<?xml version="1.0" encoding="UTF-8" standalone="no" ?>
<gpx xmlns="http://www.topografix.com/GPX/1/1" xmlns:xsi="http://www.w3.org/2001/XMLSchema-instance" xsi:schemaLocation="http://www.topografix.com/GPX/1/1 http://www.topografix.com/GPX/1/1/gpx.xsd" version="1.1" creator="VisuGPX - https://www.visugpx.com">
  <metadata>
    <name>sortie du 11/02/2017</name>
    <desc><![CDATA[sortie encore un peu boueuse mais avec le soleil]]></desc>
  </metadata>
  <trk>
    <name><![CDATA[Tracé actuel: 11 FEV 2017 08:22]]></name>
    <trkseg>
      <trkpt lat="43.35231" lon="-0.55338">
        <ele>115.98</ele>
        <time>2017-02-11T07:22:44Z</time>
      </trkpt>
      <trkpt lat="43.35229" lon="-0.55375">
        <ele>120.3</ele>
        <time>2017-02-11T07:23:06Z</time>
      </trkpt>
      <trkpt lat="43.3523" lon="-0.55375">
        <ele>116.46</ele>
        <time>2017-02-11T07:23:34Z</time>
      </trkpt>
      <trkpt lat="43.3523" lon="-0.55375">
        <ele>116.94</ele>
        <time>2017-02-11T07:23:37Z</time>
      </trkpt>
      <trkpt lat="43.35224" lon="-0.55331">
        <ele>117.42</ele>
        <time>2017-02-11T07:23:51Z</time>
      </trkpt>
      <trkpt lat="43.35222" lon="-0.55253">
        <ele>118.86</ele>
        <time>2017-02-11T07:24:08Z</time>
      </trkpt>
      <trkpt lat="43.35193" lon="-0.55187">
        <ele>120.3</ele>
        <time>2017-02-11T07:24:23Z</time>
      </trkpt>
      <trkpt lat="43.3515" lon="-0.55128">
        <ele>123.19</ele>
        <time>2017-02-11T07:24:39Z</time>
      </trkpt>
      <trkpt lat="43.35117" lon="-0.55113">
        <ele>123.67</ele>
        <time>2017-02-11T07:24:48Z</time>
      </trkpt>
      <trkpt lat="43.35064" lon="-0.55083">
        <ele>123.67</ele>
        <time>2017-02-11T07:25:02Z</time>
      </trkpt>
      <trkpt lat="43.35056" lon="-0.55081">
        <ele>123.67</ele>
        <time>2017-02-11T07:25:04Z</time>
      </trkpt>
      <trkpt lat="43.35032" lon="-0.55064">
        <ele>123.19</ele>
        <time>2017-02-11T07:25:11Z</time>
      </trkpt>
      <trkpt lat="43.35028" lon="-0.5506">
        <ele>123.19</ele>
        <time>2017-02-11T07:25:12Z</time>
      </trkpt>
      <trkpt lat="43.34969" lon="-0.54975">
        <ele>122.22</ele>
        <time>2017-02-11T07:25:31Z</time>
      </trkpt>
      <trkpt lat="43.34936" lon="-0.54923">
        <ele>123.19</ele>
        <time>2017-02-11T07:25:43Z</time>
      </trkpt>
      <trkpt lat="43.34925" lon="-0.54915">
        <ele>123.67</ele>
        <time>2017-02-11T07:25:46Z</time>
      </trkpt>
      <trkpt lat="43.34898" lon="-0.54901">
        <ele>124.15</ele>
        <time>2017-02-11T07:25:52Z</time>
      </trkpt>
      <trkpt lat="43.3486" lon="-0.54894">
        <ele>125.59</ele>
        <time>2017-02-11T07:25:59Z</time>
      </trkpt>
      <trkpt lat="43.34855" lon="-0.54892">
        <ele>125.59</ele>
        <time>2017-02-11T07:26:00Z</time>
      </trkpt>
      <trkpt lat="43.3485" lon="-0.5489">
        <ele>125.59</ele>
        <time>2017-02-11T07:26:01Z</time>
      </trkpt>
      <trkpt lat="43.34846" lon="-0.54886">
        <ele>125.59</ele>
        <time>2017-02-11T07:26:02Z</time>
      </trkpt>
      <trkpt lat="43.34843" lon="-0.54882">
        <ele>125.59</ele>
        <time>2017-02-11T07:26:03Z</time>
      </trkpt>
      <trkpt lat="43.3484" lon="-0.54878">
        <ele>125.11</ele>
        <time>2017-02-11T07:26:04Z</time>
      </trkpt>
      <trkpt lat="43.34836" lon="-0.54873">
        <ele>125.11</ele>
        <time>2017-02-11T07:26:05Z</time>
      </trkpt>
      <trkpt lat="43.34831" lon="-0.54861">
        <ele>124.15</ele>
        <time>2017-02-11T07:26:07Z</time>
      </trkpt>
      <trkpt lat="43.34828" lon="-0.54854">
        <ele>124.15</ele>
        <time>2017-02-11T07:26:08Z</time>
      </trkpt>
      <trkpt lat="43.34828" lon="-0.54846">
        <ele>123.67</ele>
        <time>2017-02-11T07:26:09Z</time>
      </trkpt>
      <trkpt lat="43.34828" lon="-0.54841">
        <ele>123.67</ele>
        <time>2017-02-11T07:26:10Z</time>
      </trkpt>
      <trkpt lat="43.34828" lon="-0.54835">
        <ele>123.67</ele>
        <time>2017-02-11T07:26:11Z</time>
      </trkpt>
      <trkpt lat="43.34829" lon="-0.5483">
        <ele>123.67</ele>
        <time>2017-02-11T07:26:12Z</time>
      </trkpt>
      <trkpt lat="43.34848" lon="-0.5479">
        <ele>123.67</ele>
        <time>2017-02-11T07:26:24Z</time>
      </trkpt>
      <trkpt lat="43.3488" lon="-0.54762">
        <ele>127.99</ele>
        <time>2017-02-11T07:26:40Z</time>
      </trkpt>
      <trkpt lat="43.34904" lon="-0.54723">
        <ele>132.32</ele>
        <time>2017-02-11T07:26:57Z</time>
      </trkpt>
      <trkpt lat="43.34921" lon="-0.54676">
        <ele>134.72</ele>
        <time>2017-02-11T07:27:13Z</time>
      </trkpt>
      <trkpt lat="43.3494" lon="-0.5464">
        <ele>136.64</ele>
        <time>2017-02-11T07:27:29Z</time>
      </trkpt>
      <trkpt lat="43.34966" lon="-0.54634">
        <ele>140.49</ele>
        <time>2017-02-11T07:27:45Z</time>
      </trkpt>
      <trkpt lat="43.34992" lon="-0.54639">
        <ele>144.82</ele>
        <time>2017-02-11T07:28:03Z</time>
      </trkpt>
      <trkpt lat="43.35015" lon="-0.54645">
        <ele>149.14</ele>
        <time>2017-02-11T07:28:19Z</time>
      </trkpt>
      <trkpt lat="43.35043" lon="-0.5465">
        <ele>152.51</ele>
        <time>2017-02-11T07:28:38Z</time>
      </trkpt>
      <trkpt lat="43.35073" lon="-0.54654">
        <ele>155.87</ele>
        <time>2017-02-11T07:28:57Z</time>
      </trkpt>
      <trkpt lat="43.35093" lon="-0.54659">
        <ele>159.72</ele>
        <time>2017-02-11T07:29:12Z</time>
      </trkpt>
      <trkpt lat="43.3511" lon="-0.54639">
        <ele>161.16</ele>
        <time>2017-02-11T07:29:25Z</time>
      </trkpt>
      <trkpt lat="43.35133" lon="-0.54625">
        <ele>162.12</ele>
        <time>2017-02-11T07:29:38Z</time>
      </trkpt>
      <trkpt lat="43.35156" lon="-0.54604">
        <ele>163.56</ele>
        <time>2017-02-11T07:29:53Z</time>
      </trkpt>
      <trkpt lat="43.35162" lon="-0.54574">
        <ele>168.37</ele>
        <time>2017-02-11T07:30:09Z</time>
      </trkpt>
      <trkpt lat="43.35164" lon="-0.54539">
        <ele>173.17</ele>
        <time>2017-02-11T07:30:23Z</time>
      </trkpt>
      <trkpt lat="43.35166" lon="-0.54507">
        <ele>175.1</ele>
        <time>2017-02-11T07:30:37Z</time>
      </trkpt>
      <trkpt lat="43.35166" lon="-0.54497">
        <ele>176.54</ele>
        <time>2017-02-11T07:30:42Z</time>
      </trkpt>
      <trkpt lat="43.35166" lon="-0.54495">
        <ele>176.54</ele>
        <time>2017-02-11T07:30:43Z</time>
      </trkpt>
      <trkpt lat="43.35166" lon="-0.54493">
        <ele>177.02</ele>
        <time>2017-02-11T07:30:44Z</time>
      </trkpt>
      <trkpt lat="43.35165" lon="-0.54491">
        <ele>177.02</ele>
        <time>2017-02-11T07:30:45Z</time>
      </trkpt>
      <trkpt lat="43.35165" lon="-0.54489">
        <ele>177.5</ele>
        <time>2017-02-11T07:30:46Z</time>
      </trkpt>
      <trkpt lat="43.35165" lon="-0.54488">
        <ele>177.98</ele>
        <time>2017-02-11T07:30:47Z</time>
      </trkpt>
      <trkpt lat="43.35165" lon="-0.54486">
        <ele>177.98</ele>
        <time>2017-02-11T07:30:48Z</time>
      </trkpt>
      <trkpt lat="43.35175" lon="-0.54463">
        <ele>180.87</ele>
        <time>2017-02-11T07:31:02Z</time>
      </trkpt>
      <trkpt lat="43.35174" lon="-0.54462">
        <ele>180.87</ele>
        <time>2017-02-11T07:31:03Z</time>
      </trkpt>
      <trkpt lat="43.35172" lon="-0.5446">
        <ele>180.38</ele>
        <time>2017-02-11T07:31:16Z</time>
      </trkpt>
      <trkpt lat="43.35174" lon="-0.5446">
        <ele>179.42</ele>
        <time>2017-02-11T07:31:49Z</time>
      </trkpt>
      <trkpt lat="43.35172" lon="-0.54461">
        <ele>178.46</ele>
        <time>2017-02-11T07:32:24Z</time>
      </trkpt>
      <trkpt lat="43.3517" lon="-0.54456">
        <ele>177.98</ele>
        <time>2017-02-11T07:32:36Z</time>
      </trkpt>
      <trkpt lat="43.35171" lon="-0.54455">
        <ele>177.98</ele>
        <time>2017-02-11T07:32:37Z</time>
      </trkpt>
      <trkpt lat="43.35172" lon="-0.54453">
        <ele>177.98</ele>
        <time>2017-02-11T07:32:38Z</time>
      </trkpt>
      <trkpt lat="43.35173" lon="-0.54451">
        <ele>177.98</ele>
        <time>2017-02-11T07:32:39Z</time>
      </trkpt>
      <trkpt lat="43.35173" lon="-0.54449">
        <ele>177.98</ele>
        <time>2017-02-11T07:32:40Z</time>
      </trkpt>
      <trkpt lat="43.35174" lon="-0.54447">
        <ele>178.46</ele>
        <time>2017-02-11T07:32:41Z</time>
      </trkpt>
      <trkpt lat="43.35175" lon="-0.54444">
        <ele>178.46</ele>
        <time>2017-02-11T07:32:42Z</time>
      </trkpt>
      <trkpt lat="43.35176" lon="-0.54441">
        <ele>178.46</ele>
        <time>2017-02-11T07:32:43Z</time>
      </trkpt>
      <trkpt lat="43.3519" lon="-0.54382">
        <ele>178.94</ele>
        <time>2017-02-11T07:32:58Z</time>
      </trkpt>
      <trkpt lat="43.35204" lon="-0.54316">
        <ele>177.5</ele>
        <time>2017-02-11T07:33:11Z</time>
      </trkpt>
      <trkpt lat="43.35205" lon="-0.5431">
        <ele>177.02</ele>
        <time>2017-02-11T07:33:12Z</time>
      </trkpt>
      <trkpt lat="43.35204" lon="-0.54304">
        <ele>177.02</ele>
        <time>2017-02-11T07:33:13Z</time>
      </trkpt>
      <trkpt lat="43.35203" lon="-0.54299">
        <ele>177.02</ele>
        <time>2017-02-11T07:33:14Z</time>
      </trkpt>
      <trkpt lat="43.35201" lon="-0.54295">
        <ele>177.02</ele>
        <time>2017-02-11T07:33:15Z</time>
      </trkpt>
      <trkpt lat="43.352" lon="-0.5429">
        <ele>177.02</ele>
        <time>2017-02-11T07:33:16Z</time>
      </trkpt>
      <trkpt lat="43.35183" lon="-0.54219">
        <ele>179.9</ele>
        <time>2017-02-11T07:33:34Z</time>
      </trkpt>
      <trkpt lat="43.35171" lon="-0.54167">
        <ele>184.71</ele>
        <time>2017-02-11T07:33:50Z</time>
      </trkpt>
      <trkpt lat="43.35178" lon="-0.54128">
        <ele>189.52</ele>
        <time>2017-02-11T07:34:06Z</time>
      </trkpt>
      <trkpt lat="43.35191" lon="-0.54088">
        <ele>192.88</ele>
        <time>2017-02-11T07:34:24Z</time>
      </trkpt>
      <trkpt lat="43.35187" lon="-0.54062">
        <ele>199.13</ele>
        <time>2017-02-11T07:34:39Z</time>
      </trkpt>
      <trkpt lat="43.35164" lon="-0.54048">
        <ele>203.46</ele>
        <time>2017-02-11T07:34:52Z</time>
      </trkpt>
      <trkpt lat="43.35144" lon="-0.54038">
        <ele>207.3</ele>
        <time>2017-02-11T07:35:03Z</time>
      </trkpt>
      <trkpt lat="43.35113" lon="-0.54026">
        <ele>206.34</ele>
        <time>2017-02-11T07:35:13Z</time>
      </trkpt>
      <trkpt lat="43.35087" lon="-0.53983">
        <ele>205.86</ele>
        <time>2017-02-11T07:35:23Z</time>
      </trkpt>
      <trkpt lat="43.35081" lon="-0.53972">
        <ele>205.86</ele>
        <time>2017-02-11T07:35:25Z</time>
      </trkpt>
      <trkpt lat="43.35078" lon="-0.53966">
        <ele>205.38</ele>
        <time>2017-02-11T07:35:26Z</time>
      </trkpt>
      <trkpt lat="43.35076" lon="-0.5396">
        <ele>205.38</ele>
        <time>2017-02-11T07:35:27Z</time>
      </trkpt>
      <trkpt lat="43.35074" lon="-0.53953">
        <ele>205.38</ele>
        <time>2017-02-11T07:35:28Z</time>
      </trkpt>
      <trkpt lat="43.35074" lon="-0.53945">
        <ele>205.38</ele>
        <time>2017-02-11T07:35:29Z</time>
      </trkpt>
      <trkpt lat="43.35073" lon="-0.53937">
        <ele>205.38</ele>
        <time>2017-02-11T07:35:30Z</time>
      </trkpt>
      <trkpt lat="43.35074" lon="-0.53916">
        <ele>205.38</ele>
        <time>2017-02-11T07:35:33Z</time>
      </trkpt>
      <trkpt lat="43.35074" lon="-0.53886">
        <ele>204.9</ele>
        <time>2017-02-11T07:35:37Z</time>
      </trkpt>
      <trkpt lat="43.35073" lon="-0.53878">
        <ele>204.9</ele>
        <time>2017-02-11T07:35:38Z</time>
      </trkpt>
      <trkpt lat="43.35073" lon="-0.53871">
        <ele>204.9</ele>
        <time>2017-02-11T07:35:39Z</time>
      </trkpt>
      <trkpt lat="43.3507" lon="-0.53856">
        <ele>204.42</ele>
        <time>2017-02-11T07:35:41Z</time>
      </trkpt>
      <trkpt lat="43.3505" lon="-0.53761">
        <ele>197.21</ele>
        <time>2017-02-11T07:35:51Z</time>
      </trkpt>
      <trkpt lat="43.35035" lon="-0.53707">
        <ele>192.4</ele>
        <time>2017-02-11T07:35:56Z</time>
      </trkpt>
      <trkpt lat="43.35008" lon="-0.53626">
        <ele>191.44</ele>
        <time>2017-02-11T07:36:08Z</time>
      </trkpt>
      <trkpt lat="43.35003" lon="-0.53588">
        <ele>192.4</ele>
        <time>2017-02-11T07:36:15Z</time>
      </trkpt>
      <trkpt lat="43.35002" lon="-0.53582">
        <ele>192.4</ele>
        <time>2017-02-11T07:36:16Z</time>
      </trkpt>
      <trkpt lat="43.35003" lon="-0.53558">
        <ele>192.88</ele>
        <time>2017-02-11T07:36:20Z</time>
      </trkpt>
      <trkpt lat="43.35004" lon="-0.53535">
        <ele>193.36</ele>
        <time>2017-02-11T07:36:24Z</time>
      </trkpt>
      <trkpt lat="43.35004" lon="-0.53529">
        <ele>193.36</ele>
        <time>2017-02-11T07:36:25Z</time>
      </trkpt>
      <trkpt lat="43.35004" lon="-0.53523">
        <ele>193.36</ele>
        <time>2017-02-11T07:36:26Z</time>
      </trkpt>
      <trkpt lat="43.35004" lon="-0.53438">
        <ele>193.84</ele>
        <time>2017-02-11T07:36:40Z</time>
      </trkpt>
      <trkpt lat="43.35" lon="-0.53376">
        <ele>195.28</ele>
        <time>2017-02-11T07:36:52Z</time>
      </trkpt>
      <trkpt lat="43.34989" lon="-0.53342">
        <ele>196.25</ele>
        <time>2017-02-11T07:37:00Z</time>
      </trkpt>
      <trkpt lat="43.34985" lon="-0.53338">
        <ele>195.77</ele>
        <time>2017-02-11T07:37:01Z</time>
      </trkpt>
      <trkpt lat="43.34982" lon="-0.53333">
        <ele>195.77</ele>
        <time>2017-02-11T07:37:02Z</time>
      </trkpt>
      <trkpt lat="43.3498" lon="-0.53328">
        <ele>195.77</ele>
        <time>2017-02-11T07:37:03Z</time>
      </trkpt>
      <trkpt lat="43.34979" lon="-0.53324">
        <ele>195.77</ele>
        <time>2017-02-11T07:37:04Z</time>
      </trkpt>
      <trkpt lat="43.34978" lon="-0.53319">
        <ele>195.77</ele>
        <time>2017-02-11T07:37:05Z</time>
      </trkpt>
      <trkpt lat="43.34977" lon="-0.53315">
        <ele>195.77</ele>
        <time>2017-02-11T07:37:06Z</time>
      </trkpt>
      <trkpt lat="43.34976" lon="-0.53311">
        <ele>195.77</ele>
        <time>2017-02-11T07:37:07Z</time>
      </trkpt>
      <trkpt lat="43.34976" lon="-0.53308">
        <ele>196.25</ele>
        <time>2017-02-11T07:37:08Z</time>
      </trkpt>
      <trkpt lat="43.34975" lon="-0.53304">
        <ele>196.25</ele>
        <time>2017-02-11T07:37:09Z</time>
      </trkpt>
      <trkpt lat="43.34974" lon="-0.533">
        <ele>196.73</ele>
        <time>2017-02-11T07:37:10Z</time>
      </trkpt>
      <trkpt lat="43.34973" lon="-0.53297">
        <ele>197.21</ele>
        <time>2017-02-11T07:37:11Z</time>
      </trkpt>
      <trkpt lat="43.34965" lon="-0.53243">
        <ele>201.53</ele>
        <time>2017-02-11T07:37:25Z</time>
      </trkpt>
      <trkpt lat="43.34932" lon="-0.53188">
        <ele>200.57</ele>
        <time>2017-02-11T07:37:36Z</time>
      </trkpt>
      <trkpt lat="43.34929" lon="-0.53183">
        <ele>200.09</ele>
        <time>2017-02-11T07:37:37Z</time>
      </trkpt>
      <trkpt lat="43.34925" lon="-0.53178">
        <ele>199.61</ele>
        <time>2017-02-11T07:37:38Z</time>
      </trkpt>
      <trkpt lat="43.34921" lon="-0.53176">
        <ele>199.13</ele>
        <time>2017-02-11T07:37:39Z</time>
      </trkpt>
      <trkpt lat="43.34916" lon="-0.53175">
        <ele>199.13</ele>
        <time>2017-02-11T07:37:40Z</time>
      </trkpt>
      <trkpt lat="43.34911" lon="-0.53175">
        <ele>198.65</ele>
        <time>2017-02-11T07:37:41Z</time>
      </trkpt>
      <trkpt lat="43.34904" lon="-0.53175">
        <ele>198.17</ele>
        <time>2017-02-11T07:37:42Z</time>
      </trkpt>
      <trkpt lat="43.34898" lon="-0.53175">
        <ele>197.69</ele>
        <time>2017-02-11T07:37:43Z</time>
      </trkpt>
      <trkpt lat="43.34825" lon="-0.53168">
        <ele>193.36</ele>
        <time>2017-02-11T07:37:53Z</time>
      </trkpt>
      <trkpt lat="43.34819" lon="-0.53168">
        <ele>193.36</ele>
        <time>2017-02-11T07:37:54Z</time>
      </trkpt>
      <trkpt lat="43.34814" lon="-0.53167">
        <ele>193.36</ele>
        <time>2017-02-11T07:37:55Z</time>
      </trkpt>
      <trkpt lat="43.3481" lon="-0.53166">
        <ele>193.84</ele>
        <time>2017-02-11T07:37:56Z</time>
      </trkpt>
      <trkpt lat="43.34807" lon="-0.53165">
        <ele>193.84</ele>
        <time>2017-02-11T07:37:57Z</time>
      </trkpt>
      <trkpt lat="43.34804" lon="-0.53163">
        <ele>194.32</ele>
        <time>2017-02-11T07:37:58Z</time>
      </trkpt>
      <trkpt lat="43.348" lon="-0.53162">
        <ele>194.32</ele>
        <time>2017-02-11T07:37:59Z</time>
      </trkpt>
      <trkpt lat="43.34773" lon="-0.5315">
        <ele>197.69</ele>
        <time>2017-02-11T07:38:10Z</time>
      </trkpt>
      <trkpt lat="43.34764" lon="-0.53144">
        <ele>198.65</ele>
        <time>2017-02-11T07:38:16Z</time>
      </trkpt>
      <trkpt lat="43.34764" lon="-0.53142">
        <ele>199.13</ele>
        <time>2017-02-11T07:38:17Z</time>
      </trkpt>
      <trkpt lat="43.34757" lon="-0.53124">
        <ele>202.01</ele>
        <time>2017-02-11T07:38:26Z</time>
      </trkpt>
      <trkpt lat="43.34755" lon="-0.53123">
        <ele>202.49</ele>
        <time>2017-02-11T07:38:27Z</time>
      </trkpt>
      <trkpt lat="43.34753" lon="-0.5312">
        <ele>202.98</ele>
        <time>2017-02-11T07:38:28Z</time>
      </trkpt>
      <trkpt lat="43.34752" lon="-0.53118">
        <ele>202.98</ele>
        <time>2017-02-11T07:38:29Z</time>
      </trkpt>
      <trkpt lat="43.34751" lon="-0.53116">
        <ele>203.94</ele>
        <time>2017-02-11T07:38:30Z</time>
      </trkpt>
      <trkpt lat="43.34749" lon="-0.53114">
        <ele>204.42</ele>
        <time>2017-02-11T07:38:31Z</time>
      </trkpt>
      <trkpt lat="43.34734" lon="-0.53091">
        <ele>209.22</ele>
        <time>2017-02-11T07:38:44Z</time>
      </trkpt>
      <trkpt lat="43.34732" lon="-0.53089">
        <ele>209.22</ele>
        <time>2017-02-11T07:38:45Z</time>
      </trkpt>
      <trkpt lat="43.34731" lon="-0.53087">
        <ele>209.7</ele>
        <time>2017-02-11T07:38:46Z</time>
      </trkpt>
      <trkpt lat="43.3473" lon="-0.53086">
        <ele>209.7</ele>
        <time>2017-02-11T07:38:47Z</time>
      </trkpt>
      <trkpt lat="43.34728" lon="-0.53085">
        <ele>210.19</ele>
        <time>2017-02-11T07:38:48Z</time>
      </trkpt>
      <trkpt lat="43.34708" lon="-0.53067">
        <ele>210.19</ele>
        <time>2017-02-11T07:38:59Z</time>
      </trkpt>
      <trkpt lat="43.34686" lon="-0.53045">
        <ele>211.63</ele>
        <time>2017-02-11T07:39:12Z</time>
      </trkpt>
      <trkpt lat="43.3467" lon="-0.53029">
        <ele>215.95</ele>
        <time>2017-02-11T07:39:21Z</time>
      </trkpt>
      <trkpt lat="43.34661" lon="-0.53023">
        <ele>216.91</ele>
        <time>2017-02-11T07:39:27Z</time>
      </trkpt>
      <trkpt lat="43.3466" lon="-0.53021">
        <ele>216.91</ele>
        <time>2017-02-11T07:39:28Z</time>
      </trkpt>
      <trkpt lat="43.34659" lon="-0.53019">
        <ele>216.91</ele>
        <time>2017-02-11T07:39:29Z</time>
      </trkpt>
      <trkpt lat="43.34657" lon="-0.53017">
        <ele>217.4</ele>
        <time>2017-02-11T07:39:30Z</time>
      </trkpt>
      <trkpt lat="43.34655" lon="-0.53016">
        <ele>217.4</ele>
        <time>2017-02-11T07:39:31Z</time>
      </trkpt>
      <trkpt lat="43.34653" lon="-0.53014">
        <ele>217.4</ele>
        <time>2017-02-11T07:39:32Z</time>
      </trkpt>
      <trkpt lat="43.34628" lon="-0.52986">
        <ele>219.8</ele>
        <time>2017-02-11T07:39:45Z</time>
      </trkpt>
      <trkpt lat="43.34611" lon="-0.5297">
        <ele>221.72</ele>
        <time>2017-02-11T07:39:54Z</time>
      </trkpt>
      <trkpt lat="43.34609" lon="-0.52968">
        <ele>221.72</ele>
        <time>2017-02-11T07:39:55Z</time>
      </trkpt>
      <trkpt lat="43.34592" lon="-0.52959">
        <ele>220.76</ele>
        <time>2017-02-11T07:40:02Z</time>
      </trkpt>
      <trkpt lat="43.34591" lon="-0.52957">
        <ele>220.28</ele>
        <time>2017-02-11T07:40:03Z</time>
      </trkpt>
      <trkpt lat="43.3459" lon="-0.52956">
        <ele>220.76</ele>
        <time>2017-02-11T07:40:04Z</time>
      </trkpt>
      <trkpt lat="43.34588" lon="-0.52954">
        <ele>220.76</ele>
        <time>2017-02-11T07:40:05Z</time>
      </trkpt>
      <trkpt lat="43.34586" lon="-0.52952">
        <ele>220.76</ele>
        <time>2017-02-11T07:40:06Z</time>
      </trkpt>
      <trkpt lat="43.34585" lon="-0.52951">
        <ele>220.76</ele>
        <time>2017-02-11T07:40:07Z</time>
      </trkpt>
      <trkpt lat="43.34583" lon="-0.52949">
        <ele>220.76</ele>
        <time>2017-02-11T07:40:08Z</time>
      </trkpt>
      <trkpt lat="43.34581" lon="-0.52947">
        <ele>220.76</ele>
        <time>2017-02-11T07:40:09Z</time>
      </trkpt>
      <trkpt lat="43.34579" lon="-0.52945">
        <ele>221.24</ele>
        <time>2017-02-11T07:40:10Z</time>
      </trkpt>
      <trkpt lat="43.34577" lon="-0.52943">
        <ele>220.76</ele>
        <time>2017-02-11T07:40:11Z</time>
      </trkpt>
      <trkpt lat="43.34574" lon="-0.52941">
        <ele>220.76</ele>
        <time>2017-02-11T07:40:12Z</time>
      </trkpt>
      <trkpt lat="43.34572" lon="-0.5294">
        <ele>220.76</ele>
        <time>2017-02-11T07:40:13Z</time>
      </trkpt>
      <trkpt lat="43.34552" lon="-0.52925">
        <ele>220.76</ele>
        <time>2017-02-11T07:40:23Z</time>
      </trkpt>
      <trkpt lat="43.34548" lon="-0.52923">
        <ele>219.8</ele>
        <time>2017-02-11T07:40:25Z</time>
      </trkpt>
      <trkpt lat="43.3453" lon="-0.52895">
        <ele>214.03</ele>
        <time>2017-02-11T07:40:34Z</time>
      </trkpt>
      <trkpt lat="43.34524" lon="-0.52884">
        <ele>213.07</ele>
        <time>2017-02-11T07:40:37Z</time>
      </trkpt>
      <trkpt lat="43.34521" lon="-0.5288">
        <ele>212.59</ele>
        <time>2017-02-11T07:40:38Z</time>
      </trkpt>
      <trkpt lat="43.34497" lon="-0.52854">
        <ele>212.11</ele>
        <time>2017-02-11T07:40:49Z</time>
      </trkpt>
      <trkpt lat="43.34482" lon="-0.52828">
        <ele>217.4</ele>
        <time>2017-02-11T07:41:01Z</time>
      </trkpt>
      <trkpt lat="43.34477" lon="-0.528">
        <ele>218.36</ele>
        <time>2017-02-11T07:41:08Z</time>
      </trkpt>
      <trkpt lat="43.34472" lon="-0.52773">
        <ele>218.36</ele>
        <time>2017-02-11T07:41:12Z</time>
      </trkpt>
      <trkpt lat="43.34461" lon="-0.52723">
        <ele>217.4</ele>
        <time>2017-02-11T07:41:22Z</time>
      </trkpt>
      <trkpt lat="43.34452" lon="-0.5271">
        <ele>216.43</ele>
        <time>2017-02-11T07:41:26Z</time>
      </trkpt>
      <trkpt lat="43.34443" lon="-0.527">
        <ele>215.95</ele>
        <time>2017-02-11T07:41:30Z</time>
      </trkpt>
      <trkpt lat="43.34443" lon="-0.52695">
        <ele>215.47</ele>
        <time>2017-02-11T07:41:31Z</time>
      </trkpt>
      <trkpt lat="43.34442" lon="-0.52689">
        <ele>215.47</ele>
        <time>2017-02-11T07:41:32Z</time>
      </trkpt>
      <trkpt lat="43.34442" lon="-0.52684">
        <ele>214.99</ele>
        <time>2017-02-11T07:41:33Z</time>
      </trkpt>
      <trkpt lat="43.3444" lon="-0.5268">
        <ele>214.99</ele>
        <time>2017-02-11T07:41:34Z</time>
      </trkpt>
      <trkpt lat="43.34439" lon="-0.52678">
        <ele>214.51</ele>
        <time>2017-02-11T07:41:35Z</time>
      </trkpt>
      <trkpt lat="43.34431" lon="-0.52676">
        <ele>213.07</ele>
        <time>2017-02-11T07:41:38Z</time>
      </trkpt>
      <trkpt lat="43.34428" lon="-0.52673">
        <ele>212.59</ele>
        <time>2017-02-11T07:41:39Z</time>
      </trkpt>
      <trkpt lat="43.34427" lon="-0.5267">
        <ele>212.59</ele>
        <time>2017-02-11T07:41:40Z</time>
      </trkpt>
      <trkpt lat="43.34427" lon="-0.52666">
        <ele>212.59</ele>
        <time>2017-02-11T07:41:41Z</time>
      </trkpt>
      <trkpt lat="43.34427" lon="-0.52663">
        <ele>212.11</ele>
        <time>2017-02-11T07:41:42Z</time>
      </trkpt>
      <trkpt lat="43.34427" lon="-0.5266">
        <ele>211.63</ele>
        <time>2017-02-11T07:41:43Z</time>
      </trkpt>
      <trkpt lat="43.34427" lon="-0.52657">
        <ele>211.15</ele>
        <time>2017-02-11T07:41:44Z</time>
      </trkpt>
      <trkpt lat="43.34426" lon="-0.52654">
        <ele>210.67</ele>
        <time>2017-02-11T07:41:45Z</time>
      </trkpt>
      <trkpt lat="43.34421" lon="-0.52622">
        <ele>210.19</ele>
        <time>2017-02-11T07:41:53Z</time>
      </trkpt>
      <trkpt lat="43.34416" lon="-0.52617">
        <ele>209.7</ele>
        <time>2017-02-11T07:41:57Z</time>
      </trkpt>
      <trkpt lat="43.34405" lon="-0.5261">
        <ele>209.22</ele>
        <time>2017-02-11T07:42:05Z</time>
      </trkpt>
      <trkpt lat="43.34386" lon="-0.52585">
        <ele>209.22</ele>
        <time>2017-02-11T07:42:16Z</time>
      </trkpt>
      <trkpt lat="43.34381" lon="-0.52578">
        <ele>208.74</ele>
        <time>2017-02-11T07:42:18Z</time>
      </trkpt>
      <trkpt lat="43.34378" lon="-0.52572">
        <ele>208.74</ele>
        <time>2017-02-11T07:42:19Z</time>
      </trkpt>
      <trkpt lat="43.34376" lon="-0.52567">
        <ele>208.74</ele>
        <time>2017-02-11T07:42:20Z</time>
      </trkpt>
      <trkpt lat="43.34374" lon="-0.52562">
        <ele>208.74</ele>
        <time>2017-02-11T07:42:21Z</time>
      </trkpt>
      <trkpt lat="43.34373" lon="-0.52557">
        <ele>208.74</ele>
        <time>2017-02-11T07:42:22Z</time>
      </trkpt>
      <trkpt lat="43.34368" lon="-0.52537">
        <ele>205.86</ele>
        <time>2017-02-11T07:42:27Z</time>
      </trkpt>
      <trkpt lat="43.3435" lon="-0.52506">
        <ele>204.9</ele>
        <time>2017-02-11T07:42:37Z</time>
      </trkpt>
      <trkpt lat="43.34338" lon="-0.52484">
        <ele>204.9</ele>
        <time>2017-02-11T07:42:42Z</time>
      </trkpt>
      <trkpt lat="43.34335" lon="-0.52479">
        <ele>204.9</ele>
        <time>2017-02-11T07:42:43Z</time>
      </trkpt>
      <trkpt lat="43.3433" lon="-0.52475">
        <ele>204.42</ele>
        <time>2017-02-11T07:42:44Z</time>
      </trkpt>
      <trkpt lat="43.34327" lon="-0.5247">
        <ele>204.42</ele>
        <time>2017-02-11T07:42:45Z</time>
      </trkpt>
      <trkpt lat="43.34323" lon="-0.52465">
        <ele>204.42</ele>
        <time>2017-02-11T07:42:46Z</time>
      </trkpt>
      <trkpt lat="43.3431" lon="-0.52449">
        <ele>204.42</ele>
        <time>2017-02-11T07:42:50Z</time>
      </trkpt>
      <trkpt lat="43.34307" lon="-0.52444">
        <ele>204.42</ele>
        <time>2017-02-11T07:42:51Z</time>
      </trkpt>
      <trkpt lat="43.34296" lon="-0.52409">
        <ele>206.34</ele>
        <time>2017-02-11T07:43:00Z</time>
      </trkpt>
      <trkpt lat="43.34294" lon="-0.52399">
        <ele>207.78</ele>
        <time>2017-02-11T07:43:03Z</time>
      </trkpt>
      <trkpt lat="43.34294" lon="-0.52395">
        <ele>207.78</ele>
        <time>2017-02-11T07:43:04Z</time>
      </trkpt>
      <trkpt lat="43.34294" lon="-0.52392">
        <ele>208.26</ele>
        <time>2017-02-11T07:43:05Z</time>
      </trkpt>
      <trkpt lat="43.34293" lon="-0.52389">
        <ele>208.74</ele>
        <time>2017-02-11T07:43:06Z</time>
      </trkpt>
      <trkpt lat="43.34293" lon="-0.52386">
        <ele>208.74</ele>
        <time>2017-02-11T07:43:07Z</time>
      </trkpt>
      <trkpt lat="43.34292" lon="-0.52382">
        <ele>209.22</ele>
        <time>2017-02-11T07:43:08Z</time>
      </trkpt>
      <trkpt lat="43.34289" lon="-0.52376">
        <ele>209.22</ele>
        <time>2017-02-11T07:43:10Z</time>
      </trkpt>
      <trkpt lat="43.34287" lon="-0.52373">
        <ele>209.7</ele>
        <time>2017-02-11T07:43:11Z</time>
      </trkpt>
      <trkpt lat="43.34272" lon="-0.52349">
        <ele>209.7</ele>
        <time>2017-02-11T07:43:17Z</time>
      </trkpt>
      <trkpt lat="43.3427" lon="-0.52346">
        <ele>210.19</ele>
        <time>2017-02-11T07:43:18Z</time>
      </trkpt>
      <trkpt lat="43.34257" lon="-0.52336">
        <ele>209.7</ele>
        <time>2017-02-11T07:43:23Z</time>
      </trkpt>
      <trkpt lat="43.34225" lon="-0.52333">
        <ele>208.74</ele>
        <time>2017-02-11T07:43:33Z</time>
      </trkpt>
      <trkpt lat="43.34198" lon="-0.52312">
        <ele>210.67</ele>
        <time>2017-02-11T07:43:43Z</time>
      </trkpt>
      <trkpt lat="43.34181" lon="-0.52294">
        <ele>214.03</ele>
        <time>2017-02-11T07:43:52Z</time>
      </trkpt>
      <trkpt lat="43.34163" lon="-0.52278">
        <ele>215.95</ele>
        <time>2017-02-11T07:44:02Z</time>
      </trkpt>
      <trkpt lat="43.34131" lon="-0.52264">
        <ele>217.88</ele>
        <time>2017-02-11T07:44:14Z</time>
      </trkpt>
      <trkpt lat="43.34126" lon="-0.5226">
        <ele>217.88</ele>
        <time>2017-02-11T07:44:15Z</time>
      </trkpt>
      <trkpt lat="43.34122" lon="-0.52255">
        <ele>217.4</ele>
        <time>2017-02-11T07:44:16Z</time>
      </trkpt>
      <trkpt lat="43.34086" lon="-0.52214">
        <ele>214.51</ele>
        <time>2017-02-11T07:44:23Z</time>
      </trkpt>
      <trkpt lat="43.34081" lon="-0.52211">
        <ele>214.03</ele>
        <time>2017-02-11T07:44:24Z</time>
      </trkpt>
      <trkpt lat="43.34075" lon="-0.52209">
        <ele>213.55</ele>
        <time>2017-02-11T07:44:25Z</time>
      </trkpt>
      <trkpt lat="43.3407" lon="-0.52207">
        <ele>213.07</ele>
        <time>2017-02-11T07:44:26Z</time>
      </trkpt>
      <trkpt lat="43.34064" lon="-0.52204">
        <ele>213.07</ele>
        <time>2017-02-11T07:44:27Z</time>
      </trkpt>
      <trkpt lat="43.3406" lon="-0.522">
        <ele>212.59</ele>
        <time>2017-02-11T07:44:28Z</time>
      </trkpt>
      <trkpt lat="43.34034" lon="-0.52189">
        <ele>212.59</ele>
        <time>2017-02-11T07:44:35Z</time>
      </trkpt>
      <trkpt lat="43.34029" lon="-0.52187">
        <ele>212.59</ele>
        <time>2017-02-11T07:44:36Z</time>
      </trkpt>
      <trkpt lat="43.33991" lon="-0.52164">
        <ele>215.47</ele>
        <time>2017-02-11T07:44:49Z</time>
      </trkpt>
      <trkpt lat="43.33947" lon="-0.52154">
        <ele>215.95</ele>
        <time>2017-02-11T07:45:03Z</time>
      </trkpt>
      <trkpt lat="43.33904" lon="-0.52129">
        <ele>215.95</ele>
        <time>2017-02-11T07:45:18Z</time>
      </trkpt>
      <trkpt lat="43.33873" lon="-0.52087">
        <ele>214.03</ele>
        <time>2017-02-11T07:45:26Z</time>
      </trkpt>
      <trkpt lat="43.33868" lon="-0.52082">
        <ele>214.03</ele>
        <time>2017-02-11T07:45:27Z</time>
      </trkpt>
      <trkpt lat="43.3385" lon="-0.52062">
        <ele>214.03</ele>
        <time>2017-02-11T07:45:31Z</time>
      </trkpt>
      <trkpt lat="43.33823" lon="-0.52013">
        <ele>215.95</ele>
        <time>2017-02-11T07:45:42Z</time>
      </trkpt>
      <trkpt lat="43.33816" lon="-0.51946">
        <ele>216.91</ele>
        <time>2017-02-11T07:45:54Z</time>
      </trkpt>
      <trkpt lat="43.338" lon="-0.51896">
        <ele>216.43</ele>
        <time>2017-02-11T07:46:06Z</time>
      </trkpt>
      <trkpt lat="43.33785" lon="-0.5187">
        <ele>213.55</ele>
        <time>2017-02-11T07:46:20Z</time>
      </trkpt>
      <trkpt lat="43.3377" lon="-0.51836">
        <ele>213.55</ele>
        <time>2017-02-11T07:46:30Z</time>
      </trkpt>
      <trkpt lat="43.33765" lon="-0.5182">
        <ele>213.07</ele>
        <time>2017-02-11T07:46:34Z</time>
      </trkpt>
      <trkpt lat="43.33761" lon="-0.51817">
        <ele>212.59</ele>
        <time>2017-02-11T07:46:35Z</time>
      </trkpt>
      <trkpt lat="43.33757" lon="-0.51815">
        <ele>211.63</ele>
        <time>2017-02-11T07:46:36Z</time>
      </trkpt>
      <trkpt lat="43.33753" lon="-0.51811">
        <ele>211.63</ele>
        <time>2017-02-11T07:46:37Z</time>
      </trkpt>
      <trkpt lat="43.3375" lon="-0.51807">
        <ele>211.15</ele>
        <time>2017-02-11T07:46:38Z</time>
      </trkpt>
      <trkpt lat="43.33745" lon="-0.51804">
        <ele>210.67</ele>
        <time>2017-02-11T07:46:39Z</time>
      </trkpt>
      <trkpt lat="43.33717" lon="-0.5177">
        <ele>209.7</ele>
        <time>2017-02-11T07:46:47Z</time>
      </trkpt>
      <trkpt lat="43.33709" lon="-0.51758">
        <ele>209.22</ele>
        <time>2017-02-11T07:46:49Z</time>
      </trkpt>
      <trkpt lat="43.33705" lon="-0.51754">
        <ele>209.22</ele>
        <time>2017-02-11T07:46:50Z</time>
      </trkpt>
      <trkpt lat="43.337" lon="-0.5175">
        <ele>208.74</ele>
        <time>2017-02-11T07:46:51Z</time>
      </trkpt>
      <trkpt lat="43.33696" lon="-0.51745">
        <ele>208.74</ele>
        <time>2017-02-11T07:46:52Z</time>
      </trkpt>
      <trkpt lat="43.33692" lon="-0.5174">
        <ele>208.74</ele>
        <time>2017-02-11T07:46:53Z</time>
      </trkpt>
      <trkpt lat="43.33688" lon="-0.51736">
        <ele>208.74</ele>
        <time>2017-02-11T07:46:54Z</time>
      </trkpt>
      <trkpt lat="43.3367" lon="-0.51718">
        <ele>207.78</ele>
        <time>2017-02-11T07:46:58Z</time>
      </trkpt>
      <trkpt lat="43.33664" lon="-0.51713">
        <ele>207.3</ele>
        <time>2017-02-11T07:46:59Z</time>
      </trkpt>
      <trkpt lat="43.33658" lon="-0.51709">
        <ele>206.82</ele>
        <time>2017-02-11T07:47:00Z</time>
      </trkpt>
      <trkpt lat="43.33633" lon="-0.51694">
        <ele>205.38</ele>
        <time>2017-02-11T07:47:04Z</time>
      </trkpt>
      <trkpt lat="43.33628" lon="-0.5169">
        <ele>204.9</ele>
        <time>2017-02-11T07:47:05Z</time>
      </trkpt>
      <trkpt lat="43.33623" lon="-0.51685">
        <ele>204.9</ele>
        <time>2017-02-11T07:47:06Z</time>
      </trkpt>
      <trkpt lat="43.33589" lon="-0.51658">
        <ele>204.42</ele>
        <time>2017-02-11T07:47:16Z</time>
      </trkpt>
      <trkpt lat="43.3357" lon="-0.5165">
        <ele>201.05</ele>
        <time>2017-02-11T07:47:24Z</time>
      </trkpt>
      <trkpt lat="43.33569" lon="-0.51649">
        <ele>200.57</ele>
        <time>2017-02-11T07:47:25Z</time>
      </trkpt>
      <trkpt lat="43.33568" lon="-0.51646">
        <ele>200.57</ele>
        <time>2017-02-11T07:47:26Z</time>
      </trkpt>
      <trkpt lat="43.33567" lon="-0.51644">
        <ele>200.57</ele>
        <time>2017-02-11T07:47:27Z</time>
      </trkpt>
      <trkpt lat="43.33565" lon="-0.51643">
        <ele>200.57</ele>
        <time>2017-02-11T07:47:28Z</time>
      </trkpt>
      <trkpt lat="43.33563" lon="-0.51642">
        <ele>200.09</ele>
        <time>2017-02-11T07:47:29Z</time>
      </trkpt>
      <trkpt lat="43.33527" lon="-0.51627">
        <ele>199.13</ele>
        <time>2017-02-11T07:47:40Z</time>
      </trkpt>
      <trkpt lat="43.33523" lon="-0.51625">
        <ele>199.13</ele>
        <time>2017-02-11T07:47:41Z</time>
      </trkpt>
      <trkpt lat="43.33519" lon="-0.51622">
        <ele>198.65</ele>
        <time>2017-02-11T07:47:42Z</time>
      </trkpt>
      <trkpt lat="43.33515" lon="-0.51619">
        <ele>198.17</ele>
        <time>2017-02-11T07:47:43Z</time>
      </trkpt>
      <trkpt lat="43.33511" lon="-0.51615">
        <ele>198.17</ele>
        <time>2017-02-11T07:47:44Z</time>
      </trkpt>
      <trkpt lat="43.33507" lon="-0.51611">
        <ele>197.69</ele>
        <time>2017-02-11T07:47:45Z</time>
      </trkpt>
      <trkpt lat="43.33504" lon="-0.51606">
        <ele>197.21</ele>
        <time>2017-02-11T07:47:46Z</time>
      </trkpt>
      <trkpt lat="43.33492" lon="-0.51593">
        <ele>196.73</ele>
        <time>2017-02-11T07:47:49Z</time>
      </trkpt>
      <trkpt lat="43.33489" lon="-0.51588">
        <ele>196.73</ele>
        <time>2017-02-11T07:47:50Z</time>
      </trkpt>
      <trkpt lat="43.33484" lon="-0.51577">
        <ele>197.21</ele>
        <time>2017-02-11T07:47:52Z</time>
      </trkpt>
      <trkpt lat="43.33482" lon="-0.51571">
        <ele>197.69</ele>
        <time>2017-02-11T07:47:53Z</time>
      </trkpt>
      <trkpt lat="43.33474" lon="-0.51554">
        <ele>198.17</ele>
        <time>2017-02-11T07:47:56Z</time>
      </trkpt>
      <trkpt lat="43.33459" lon="-0.51527">
        <ele>199.13</ele>
        <time>2017-02-11T07:48:01Z</time>
      </trkpt>
      <trkpt lat="43.33457" lon="-0.51521">
        <ele>199.61</ele>
        <time>2017-02-11T07:48:02Z</time>
      </trkpt>
      <trkpt lat="43.33419" lon="-0.51423">
        <ele>203.94</ele>
        <time>2017-02-11T07:48:19Z</time>
      </trkpt>
      <trkpt lat="43.33416" lon="-0.51418">
        <ele>203.94</ele>
        <time>2017-02-11T07:48:20Z</time>
      </trkpt>
      <trkpt lat="43.33413" lon="-0.51413">
        <ele>204.42</ele>
        <time>2017-02-11T07:48:21Z</time>
      </trkpt>
      <trkpt lat="43.33411" lon="-0.51408">
        <ele>204.42</ele>
        <time>2017-02-11T07:48:22Z</time>
      </trkpt>
      <trkpt lat="43.33409" lon="-0.51403">
        <ele>204.42</ele>
        <time>2017-02-11T07:48:23Z</time>
      </trkpt>
      <trkpt lat="43.33407" lon="-0.51398">
        <ele>204.9</ele>
        <time>2017-02-11T07:48:24Z</time>
      </trkpt>
      <trkpt lat="43.33406" lon="-0.51393">
        <ele>204.9</ele>
        <time>2017-02-11T07:48:25Z</time>
      </trkpt>
      <trkpt lat="43.33404" lon="-0.51387">
        <ele>205.38</ele>
        <time>2017-02-11T07:48:26Z</time>
      </trkpt>
      <trkpt lat="43.33403" lon="-0.51383">
        <ele>205.38</ele>
        <time>2017-02-11T07:48:27Z</time>
      </trkpt>
      <trkpt lat="43.33401" lon="-0.51378">
        <ele>205.86</ele>
        <time>2017-02-11T07:48:28Z</time>
      </trkpt>
      <trkpt lat="43.33391" lon="-0.5133">
        <ele>210.67</ele>
        <time>2017-02-11T07:48:41Z</time>
      </trkpt>
      <trkpt lat="43.33377" lon="-0.51289">
        <ele>214.51</ele>
        <time>2017-02-11T07:48:56Z</time>
      </trkpt>
      <trkpt lat="43.33366" lon="-0.51259">
        <ele>218.36</ele>
        <time>2017-02-11T07:49:09Z</time>
      </trkpt>
      <trkpt lat="43.33362" lon="-0.51246">
        <ele>219.8</ele>
        <time>2017-02-11T07:49:15Z</time>
      </trkpt>
      <trkpt lat="43.3336" lon="-0.51244">
        <ele>219.8</ele>
        <time>2017-02-11T07:49:16Z</time>
      </trkpt>
      <trkpt lat="43.33358" lon="-0.51243">
        <ele>219.8</ele>
        <time>2017-02-11T07:49:17Z</time>
      </trkpt>
      <trkpt lat="43.33356" lon="-0.51244">
        <ele>219.32</ele>
        <time>2017-02-11T07:49:18Z</time>
      </trkpt>
      <trkpt lat="43.33352" lon="-0.51246">
        <ele>218.84</ele>
        <time>2017-02-11T07:49:19Z</time>
      </trkpt>
      <trkpt lat="43.33348" lon="-0.51248">
        <ele>218.36</ele>
        <time>2017-02-11T07:49:20Z</time>
      </trkpt>
      <trkpt lat="43.33344" lon="-0.51251">
        <ele>217.88</ele>
        <time>2017-02-11T07:49:21Z</time>
      </trkpt>
      <trkpt lat="43.3334" lon="-0.51255">
        <ele>217.4</ele>
        <time>2017-02-11T07:49:22Z</time>
      </trkpt>
      <trkpt lat="43.33337" lon="-0.51258">
        <ele>217.4</ele>
        <time>2017-02-11T07:49:23Z</time>
      </trkpt>
      <trkpt lat="43.3333" lon="-0.51291">
        <ele>215.95</ele>
        <time>2017-02-11T07:49:31Z</time>
      </trkpt>
      <trkpt lat="43.33323" lon="-0.51354">
        <ele>215.95</ele>
        <time>2017-02-11T07:49:45Z</time>
      </trkpt>
      <trkpt lat="43.33302" lon="-0.51394">
        <ele>217.4</ele>
        <time>2017-02-11T07:49:58Z</time>
      </trkpt>
      <trkpt lat="43.33278" lon="-0.5144">
        <ele>216.43</ele>
        <time>2017-02-11T07:50:12Z</time>
      </trkpt>
      <trkpt lat="43.33273" lon="-0.51444">
        <ele>215.95</ele>
        <time>2017-02-11T07:50:13Z</time>
      </trkpt>
      <trkpt lat="43.33269" lon="-0.51447">
        <ele>214.99</ele>
        <time>2017-02-11T07:50:14Z</time>
      </trkpt>
      <trkpt lat="43.33264" lon="-0.51449">
        <ele>214.03</ele>
        <time>2017-02-11T07:50:15Z</time>
      </trkpt>
      <trkpt lat="43.33259" lon="-0.51451">
        <ele>213.07</ele>
        <time>2017-02-11T07:50:16Z</time>
      </trkpt>
      <trkpt lat="43.33254" lon="-0.51454">
        <ele>212.59</ele>
        <time>2017-02-11T07:50:17Z</time>
      </trkpt>
      <trkpt lat="43.33248" lon="-0.51459">
        <ele>211.63</ele>
        <time>2017-02-11T07:50:18Z</time>
      </trkpt>
      <trkpt lat="43.33216" lon="-0.5149">
        <ele>206.34</ele>
        <time>2017-02-11T07:50:25Z</time>
      </trkpt>
      <trkpt lat="43.33209" lon="-0.51502">
        <ele>204.9</ele>
        <time>2017-02-11T07:50:27Z</time>
      </trkpt>
      <trkpt lat="43.33202" lon="-0.51511">
        <ele>203.94</ele>
        <time>2017-02-11T07:50:29Z</time>
      </trkpt>
      <trkpt lat="43.33198" lon="-0.51514">
        <ele>203.46</ele>
        <time>2017-02-11T07:50:30Z</time>
      </trkpt>
      <trkpt lat="43.33189" lon="-0.51522">
        <ele>201.53</ele>
        <time>2017-02-11T07:50:33Z</time>
      </trkpt>
      <trkpt lat="43.33188" lon="-0.51525">
        <ele>200.57</ele>
        <time>2017-02-11T07:50:34Z</time>
      </trkpt>
      <trkpt lat="43.33187" lon="-0.51528">
        <ele>199.61</ele>
        <time>2017-02-11T07:50:35Z</time>
      </trkpt>
      <trkpt lat="43.33186" lon="-0.5153">
        <ele>198.65</ele>
        <time>2017-02-11T07:50:36Z</time>
      </trkpt>
      <trkpt lat="43.33186" lon="-0.51532">
        <ele>198.17</ele>
        <time>2017-02-11T07:50:37Z</time>
      </trkpt>
      <trkpt lat="43.33185" lon="-0.51534">
        <ele>197.69</ele>
        <time>2017-02-11T07:50:38Z</time>
      </trkpt>
      <trkpt lat="43.33185" lon="-0.51536">
        <ele>197.69</ele>
        <time>2017-02-11T07:50:39Z</time>
      </trkpt>
      <trkpt lat="43.33185" lon="-0.51543">
        <ele>198.17</ele>
        <time>2017-02-11T07:50:42Z</time>
      </trkpt>
      <trkpt lat="43.33185" lon="-0.51545">
        <ele>198.17</ele>
        <time>2017-02-11T07:50:43Z</time>
      </trkpt>
      <trkpt lat="43.33185" lon="-0.51551">
        <ele>198.65</ele>
        <time>2017-02-11T07:50:46Z</time>
      </trkpt>
      <trkpt lat="43.33185" lon="-0.51553">
        <ele>198.65</ele>
        <time>2017-02-11T07:50:47Z</time>
      </trkpt>
      <trkpt lat="43.33185" lon="-0.51559">
        <ele>199.13</ele>
        <time>2017-02-11T07:50:50Z</time>
      </trkpt>
      <trkpt lat="43.33184" lon="-0.51569">
        <ele>200.57</ele>
        <time>2017-02-11T07:50:55Z</time>
      </trkpt>
      <trkpt lat="43.3318" lon="-0.5158">
        <ele>202.49</ele>
        <time>2017-02-11T07:51:02Z</time>
      </trkpt>
      <trkpt lat="43.3318" lon="-0.51582">
        <ele>202.98</ele>
        <time>2017-02-11T07:51:03Z</time>
      </trkpt>
      <trkpt lat="43.33177" lon="-0.51611">
        <ele>207.78</ele>
        <time>2017-02-11T07:51:19Z</time>
      </trkpt>
      <trkpt lat="43.33185" lon="-0.5163">
        <ele>212.59</ele>
        <time>2017-02-11T07:51:33Z</time>
      </trkpt>
      <trkpt lat="43.33208" lon="-0.51648">
        <ele>212.59</ele>
        <time>2017-02-11T07:51:45Z</time>
      </trkpt>
      <trkpt lat="43.33245" lon="-0.51676">
        <ele>211.63</ele>
        <time>2017-02-11T07:51:57Z</time>
      </trkpt>
      <trkpt lat="43.33277" lon="-0.51703">
        <ele>213.55</ele>
        <time>2017-02-11T07:52:09Z</time>
      </trkpt>
      <trkpt lat="43.33306" lon="-0.51727">
        <ele>213.55</ele>
        <time>2017-02-11T07:52:19Z</time>
      </trkpt>
      <trkpt lat="43.33328" lon="-0.51755">
        <ele>214.51</ele>
        <time>2017-02-11T07:52:29Z</time>
      </trkpt>
      <trkpt lat="43.33345" lon="-0.51786">
        <ele>214.03</ele>
        <time>2017-02-11T07:52:39Z</time>
      </trkpt>
      <trkpt lat="43.33361" lon="-0.51833">
        <ele>210.67</ele>
        <time>2017-02-11T07:52:53Z</time>
      </trkpt>
      <trkpt lat="43.33372" lon="-0.5188">
        <ele>207.78</ele>
        <time>2017-02-11T07:53:05Z</time>
      </trkpt>
      <trkpt lat="43.33367" lon="-0.5192">
        <ele>205.38</ele>
        <time>2017-02-11T07:53:16Z</time>
      </trkpt>
      <trkpt lat="43.3336" lon="-0.51965">
        <ele>205.86</ele>
        <time>2017-02-11T07:53:28Z</time>
      </trkpt>
      <trkpt lat="43.33368" lon="-0.52014">
        <ele>204.9</ele>
        <time>2017-02-11T07:53:39Z</time>
      </trkpt>
      <trkpt lat="43.3338" lon="-0.52068">
        <ele>203.94</ele>
        <time>2017-02-11T07:53:51Z</time>
      </trkpt>
      <trkpt lat="43.33388" lon="-0.52131">
        <ele>205.86</ele>
        <time>2017-02-11T07:54:04Z</time>
      </trkpt>
      <trkpt lat="43.33396" lon="-0.52186">
        <ele>209.22</ele>
        <time>2017-02-11T07:54:16Z</time>
      </trkpt>
      <trkpt lat="43.33398" lon="-0.52234">
        <ele>209.22</ele>
        <time>2017-02-11T07:54:27Z</time>
      </trkpt>
      <trkpt lat="43.33399" lon="-0.52277">
        <ele>213.07</ele>
        <time>2017-02-11T07:54:39Z</time>
      </trkpt>
      <trkpt lat="43.33395" lon="-0.52312">
        <ele>216.43</ele>
        <time>2017-02-11T07:54:51Z</time>
      </trkpt>
      <trkpt lat="43.33394" lon="-0.52348">
        <ele>217.4</ele>
        <time>2017-02-11T07:55:07Z</time>
      </trkpt>
      <trkpt lat="43.33384" lon="-0.52378">
        <ele>220.28</ele>
        <time>2017-02-11T07:55:23Z</time>
      </trkpt>
      <trkpt lat="43.33382" lon="-0.52385">
        <ele>220.28</ele>
        <time>2017-02-11T07:55:27Z</time>
      </trkpt>
      <trkpt lat="43.33381" lon="-0.52386">
        <ele>220.28</ele>
        <time>2017-02-11T07:55:28Z</time>
      </trkpt>
      <trkpt lat="43.3338" lon="-0.52388">
        <ele>220.28</ele>
        <time>2017-02-11T07:55:29Z</time>
      </trkpt>
      <trkpt lat="43.33373" lon="-0.52402">
        <ele>224.61</ele>
        <time>2017-02-11T07:55:43Z</time>
      </trkpt>
      <trkpt lat="43.33361" lon="-0.52415">
        <ele>230.37</ele>
        <time>2017-02-11T07:56:02Z</time>
      </trkpt>
      <trkpt lat="43.3336" lon="-0.52419">
        <ele>231.33</ele>
        <time>2017-02-11T07:56:15Z</time>
      </trkpt>
      <trkpt lat="43.33358" lon="-0.52421">
        <ele>230.37</ele>
        <time>2017-02-11T07:56:30Z</time>
      </trkpt>
      <trkpt lat="43.33359" lon="-0.52423">
        <ele>230.37</ele>
        <time>2017-02-11T07:56:31Z</time>
      </trkpt>
      <trkpt lat="43.33373" lon="-0.52456">
        <ele>231.33</ele>
        <time>2017-02-11T07:56:43Z</time>
      </trkpt>
      <trkpt lat="43.33383" lon="-0.52496">
        <ele>230.37</ele>
        <time>2017-02-11T07:56:54Z</time>
      </trkpt>
      <trkpt lat="43.33384" lon="-0.52498">
        <ele>229.89</ele>
        <time>2017-02-11T07:56:55Z</time>
      </trkpt>
      <trkpt lat="43.33387" lon="-0.52498">
        <ele>229.89</ele>
        <time>2017-02-11T07:56:56Z</time>
      </trkpt>
      <trkpt lat="43.33393" lon="-0.52497">
        <ele>228.45</ele>
        <time>2017-02-11T07:56:59Z</time>
      </trkpt>
      <trkpt lat="43.33396" lon="-0.52495">
        <ele>228.45</ele>
        <time>2017-02-11T07:57:00Z</time>
      </trkpt>
      <trkpt lat="43.33397" lon="-0.52493">
        <ele>227.97</ele>
        <time>2017-02-11T07:57:01Z</time>
      </trkpt>
      <trkpt lat="43.33399" lon="-0.52493">
        <ele>227.49</ele>
        <time>2017-02-11T07:57:02Z</time>
      </trkpt>
      <trkpt lat="43.334" lon="-0.52495">
        <ele>227.01</ele>
        <time>2017-02-11T07:57:03Z</time>
      </trkpt>
      <trkpt lat="43.33402" lon="-0.52498">
        <ele>226.53</ele>
        <time>2017-02-11T07:57:04Z</time>
      </trkpt>
      <trkpt lat="43.33404" lon="-0.52501">
        <ele>225.57</ele>
        <time>2017-02-11T07:57:05Z</time>
      </trkpt>
      <trkpt lat="43.33409" lon="-0.52503">
        <ele>225.09</ele>
        <time>2017-02-11T07:57:06Z</time>
      </trkpt>
      <trkpt lat="43.33414" lon="-0.52505">
        <ele>224.61</ele>
        <time>2017-02-11T07:57:07Z</time>
      </trkpt>
      <trkpt lat="43.3342" lon="-0.52507">
        <ele>224.12</ele>
        <time>2017-02-11T07:57:08Z</time>
      </trkpt>
      <trkpt lat="43.33426" lon="-0.52509">
        <ele>223.64</ele>
        <time>2017-02-11T07:57:09Z</time>
      </trkpt>
      <trkpt lat="43.33432" lon="-0.52509">
        <ele>223.64</ele>
        <time>2017-02-11T07:57:10Z</time>
      </trkpt>
      <trkpt lat="43.33438" lon="-0.52508">
        <ele>223.16</ele>
        <time>2017-02-11T07:57:11Z</time>
      </trkpt>
      <trkpt lat="43.33444" lon="-0.52505">
        <ele>223.16</ele>
        <time>2017-02-11T07:57:12Z</time>
      </trkpt>
      <trkpt lat="43.33455" lon="-0.52499">
        <ele>222.2</ele>
        <time>2017-02-11T07:57:14Z</time>
      </trkpt>
      <trkpt lat="43.33459" lon="-0.52495">
        <ele>221.72</ele>
        <time>2017-02-11T07:57:15Z</time>
      </trkpt>
      <trkpt lat="43.33473" lon="-0.52485">
        <ele>218.36</ele>
        <time>2017-02-11T07:57:21Z</time>
      </trkpt>
      <trkpt lat="43.33475" lon="-0.52485">
        <ele>217.88</ele>
        <time>2017-02-11T07:57:22Z</time>
      </trkpt>
      <trkpt lat="43.33478" lon="-0.52486">
        <ele>216.91</ele>
        <time>2017-02-11T07:57:23Z</time>
      </trkpt>
      <trkpt lat="43.33481" lon="-0.52486">
        <ele>216.43</ele>
        <time>2017-02-11T07:57:24Z</time>
      </trkpt>
      <trkpt lat="43.33485" lon="-0.52485">
        <ele>215.47</ele>
        <time>2017-02-11T07:57:25Z</time>
      </trkpt>
      <trkpt lat="43.33488" lon="-0.52483">
        <ele>214.51</ele>
        <time>2017-02-11T07:57:26Z</time>
      </trkpt>
      <trkpt lat="43.33492" lon="-0.52481">
        <ele>213.55</ele>
        <time>2017-02-11T07:57:27Z</time>
      </trkpt>
      <trkpt lat="43.33497" lon="-0.52478">
        <ele>212.59</ele>
        <time>2017-02-11T07:57:28Z</time>
      </trkpt>
      <trkpt lat="43.33502" lon="-0.52476">
        <ele>211.63</ele>
        <time>2017-02-11T07:57:29Z</time>
      </trkpt>
      <trkpt lat="43.33508" lon="-0.52475">
        <ele>210.19</ele>
        <time>2017-02-11T07:57:30Z</time>
      </trkpt>
      <trkpt lat="43.33513" lon="-0.52475">
        <ele>208.74</ele>
        <time>2017-02-11T07:57:31Z</time>
      </trkpt>
      <trkpt lat="43.33532" lon="-0.52485">
        <ele>201.53</ele>
        <time>2017-02-11T07:57:39Z</time>
      </trkpt>
      <trkpt lat="43.3355" lon="-0.5253">
        <ele>194.8</ele>
        <time>2017-02-11T07:57:52Z</time>
      </trkpt>
      <trkpt lat="43.33542" lon="-0.52588">
        <ele>194.32</ele>
        <time>2017-02-11T07:58:05Z</time>
      </trkpt>
      <trkpt lat="43.33522" lon="-0.52628">
        <ele>192.88</ele>
        <time>2017-02-11T07:58:15Z</time>
      </trkpt>
      <trkpt lat="43.33507" lon="-0.52657">
        <ele>190.48</ele>
        <time>2017-02-11T07:58:23Z</time>
      </trkpt>
      <trkpt lat="43.33506" lon="-0.52659">
        <ele>190.48</ele>
        <time>2017-02-11T07:58:24Z</time>
      </trkpt>
      <trkpt lat="43.33506" lon="-0.5266">
        <ele>190.48</ele>
        <time>2017-02-11T07:58:25Z</time>
      </trkpt>
      <trkpt lat="43.33505" lon="-0.52662">
        <ele>190</ele>
        <time>2017-02-11T07:58:26Z</time>
      </trkpt>
      <trkpt lat="43.33503" lon="-0.52663">
        <ele>189.52</ele>
        <time>2017-02-11T07:58:27Z</time>
      </trkpt>
      <trkpt lat="43.33501" lon="-0.52668">
        <ele>189.04</ele>
        <time>2017-02-11T07:58:29Z</time>
      </trkpt>
      <trkpt lat="43.33492" lon="-0.52676">
        <ele>190.96</ele>
        <time>2017-02-11T07:58:39Z</time>
      </trkpt>
      <trkpt lat="43.33483" lon="-0.52695">
        <ele>189.52</ele>
        <time>2017-02-11T07:58:50Z</time>
      </trkpt>
      <trkpt lat="43.33483" lon="-0.52697">
        <ele>188.56</ele>
        <time>2017-02-11T07:58:51Z</time>
      </trkpt>
      <trkpt lat="43.33483" lon="-0.52699">
        <ele>188.08</ele>
        <time>2017-02-11T07:58:52Z</time>
      </trkpt>
      <trkpt lat="43.33481" lon="-0.52704">
        <ele>185.67</ele>
        <time>2017-02-11T07:58:55Z</time>
      </trkpt>
      <trkpt lat="43.3348" lon="-0.52706">
        <ele>184.71</ele>
        <time>2017-02-11T07:58:56Z</time>
      </trkpt>
      <trkpt lat="43.33475" lon="-0.52715">
        <ele>182.79</ele>
        <time>2017-02-11T07:59:01Z</time>
      </trkpt>
      <trkpt lat="43.33476" lon="-0.52721">
        <ele>181.83</ele>
        <time>2017-02-11T07:59:04Z</time>
      </trkpt>
      <trkpt lat="43.33477" lon="-0.52747">
        <ele>171.73</ele>
        <time>2017-02-11T07:59:15Z</time>
      </trkpt>
      <trkpt lat="43.33467" lon="-0.52767">
        <ele>164.04</ele>
        <time>2017-02-11T07:59:22Z</time>
      </trkpt>
      <trkpt lat="43.3346" lon="-0.52779">
        <ele>161.16</ele>
        <time>2017-02-11T07:59:27Z</time>
      </trkpt>
      <trkpt lat="43.33462" lon="-0.52799">
        <ele>154.43</ele>
        <time>2017-02-11T07:59:36Z</time>
      </trkpt>
      <trkpt lat="43.33463" lon="-0.528">
        <ele>154.43</ele>
        <time>2017-02-11T07:59:37Z</time>
      </trkpt>
      <trkpt lat="43.33476" lon="-0.52819">
        <ele>156.35</ele>
        <time>2017-02-11T07:59:46Z</time>
      </trkpt>
      <trkpt lat="43.33483" lon="-0.52827">
        <ele>159.24</ele>
        <time>2017-02-11T07:59:51Z</time>
      </trkpt>
      <trkpt lat="43.33484" lon="-0.52832">
        <ele>161.16</ele>
        <time>2017-02-11T07:59:54Z</time>
      </trkpt>
      <trkpt lat="43.33489" lon="-0.52851">
        <ele>160.68</ele>
        <time>2017-02-11T08:00:03Z</time>
      </trkpt>
      <trkpt lat="43.335" lon="-0.52867">
        <ele>161.16</ele>
        <time>2017-02-11T08:00:15Z</time>
      </trkpt>
      <trkpt lat="43.33503" lon="-0.52877">
        <ele>163.56</ele>
        <time>2017-02-11T08:00:24Z</time>
      </trkpt>
      <trkpt lat="43.33509" lon="-0.52883">
        <ele>163.56</ele>
        <time>2017-02-11T08:00:30Z</time>
      </trkpt>
      <trkpt lat="43.33512" lon="-0.52885">
        <ele>163.56</ele>
        <time>2017-02-11T08:00:33Z</time>
      </trkpt>
      <trkpt lat="43.33515" lon="-0.52893">
        <ele>161.64</ele>
        <time>2017-02-11T08:00:37Z</time>
      </trkpt>
      <trkpt lat="43.33519" lon="-0.52903">
        <ele>158.75</ele>
        <time>2017-02-11T08:00:42Z</time>
      </trkpt>
      <trkpt lat="43.33525" lon="-0.52913">
        <ele>156.83</ele>
        <time>2017-02-11T08:00:48Z</time>
      </trkpt>
      <trkpt lat="43.33536" lon="-0.52918">
        <ele>155.39</ele>
        <time>2017-02-11T08:00:55Z</time>
      </trkpt>
      <trkpt lat="43.33546" lon="-0.52916">
        <ele>157.31</ele>
        <time>2017-02-11T08:01:07Z</time>
      </trkpt>
      <trkpt lat="43.33552" lon="-0.52911">
        <ele>155.39</ele>
        <time>2017-02-11T08:01:15Z</time>
      </trkpt>
      <trkpt lat="43.33554" lon="-0.52912">
        <ele>155.39</ele>
        <time>2017-02-11T08:01:17Z</time>
      </trkpt>
      <trkpt lat="43.33559" lon="-0.52919">
        <ele>154.91</ele>
        <time>2017-02-11T08:01:24Z</time>
      </trkpt>
      <trkpt lat="43.3356" lon="-0.52925">
        <ele>153.95</ele>
        <time>2017-02-11T08:01:29Z</time>
      </trkpt>
      <trkpt lat="43.33562" lon="-0.52941">
        <ele>150.58</ele>
        <time>2017-02-11T08:01:40Z</time>
      </trkpt>
      <trkpt lat="43.33563" lon="-0.52953">
        <ele>150.58</ele>
        <time>2017-02-11T08:01:48Z</time>
      </trkpt>
      <trkpt lat="43.33565" lon="-0.52965">
        <ele>151.06</ele>
        <time>2017-02-11T08:01:53Z</time>
      </trkpt>
      <trkpt lat="43.33579" lon="-0.52985">
        <ele>148.66</ele>
        <time>2017-02-11T08:02:07Z</time>
      </trkpt>
      <trkpt lat="43.33578" lon="-0.52989">
        <ele>147.7</ele>
        <time>2017-02-11T08:02:10Z</time>
      </trkpt>
      <trkpt lat="43.33585" lon="-0.53012">
        <ele>146.74</ele>
        <time>2017-02-11T08:02:22Z</time>
      </trkpt>
      <trkpt lat="43.33586" lon="-0.5302">
        <ele>145.3</ele>
        <time>2017-02-11T08:02:27Z</time>
      </trkpt>
      <trkpt lat="43.33579" lon="-0.53036">
        <ele>144.34</ele>
        <time>2017-02-11T08:02:37Z</time>
      </trkpt>
      <trkpt lat="43.33572" lon="-0.53046">
        <ele>143.85</ele>
        <time>2017-02-11T08:02:43Z</time>
      </trkpt>
      <trkpt lat="43.33567" lon="-0.5306">
        <ele>142.89</ele>
        <time>2017-02-11T08:02:54Z</time>
      </trkpt>
      <trkpt lat="43.33554" lon="-0.53084">
        <ele>142.41</ele>
        <time>2017-02-11T08:03:08Z</time>
      </trkpt>
      <trkpt lat="43.33544" lon="-0.53093">
        <ele>143.37</ele>
        <time>2017-02-11T08:03:18Z</time>
      </trkpt>
      <trkpt lat="43.33538" lon="-0.53102">
        <ele>141.93</ele>
        <time>2017-02-11T08:03:25Z</time>
      </trkpt>
      <trkpt lat="43.33528" lon="-0.53115">
        <ele>140.97</ele>
        <time>2017-02-11T08:03:34Z</time>
      </trkpt>
      <trkpt lat="43.33518" lon="-0.53126">
        <ele>141.45</ele>
        <time>2017-02-11T08:03:41Z</time>
      </trkpt>
      <trkpt lat="43.33511" lon="-0.53137">
        <ele>141.45</ele>
        <time>2017-02-11T08:03:48Z</time>
      </trkpt>
      <trkpt lat="43.33493" lon="-0.53161">
        <ele>137.61</ele>
        <time>2017-02-11T08:04:01Z</time>
      </trkpt>
      <trkpt lat="43.33489" lon="-0.53171">
        <ele>135.68</ele>
        <time>2017-02-11T08:04:06Z</time>
      </trkpt>
      <trkpt lat="43.33469" lon="-0.53183">
        <ele>135.2</ele>
        <time>2017-02-11T08:04:15Z</time>
      </trkpt>
      <trkpt lat="43.33426" lon="-0.53197">
        <ele>133.28</ele>
        <time>2017-02-11T08:04:27Z</time>
      </trkpt>
      <trkpt lat="43.33383" lon="-0.53209">
        <ele>134.24</ele>
        <time>2017-02-11T08:04:40Z</time>
      </trkpt>
      <trkpt lat="43.33341" lon="-0.53189">
        <ele>136.16</ele>
        <time>2017-02-11T08:04:52Z</time>
      </trkpt>
      <trkpt lat="43.33326" lon="-0.53137">
        <ele>136.64</ele>
        <time>2017-02-11T08:05:03Z</time>
      </trkpt>
      <trkpt lat="43.33312" lon="-0.53077">
        <ele>136.64</ele>
        <time>2017-02-11T08:05:16Z</time>
      </trkpt>
      <trkpt lat="43.33298" lon="-0.53043">
        <ele>138.09</ele>
        <time>2017-02-11T08:05:23Z</time>
      </trkpt>
      <trkpt lat="43.33279" lon="-0.53017">
        <ele>139.05</ele>
        <time>2017-02-11T08:05:28Z</time>
      </trkpt>
      <trkpt lat="43.33275" lon="-0.53012">
        <ele>139.05</ele>
        <time>2017-02-11T08:05:29Z</time>
      </trkpt>
      <trkpt lat="43.33257" lon="-0.52993">
        <ele>139.05</ele>
        <time>2017-02-11T08:05:33Z</time>
      </trkpt>
      <trkpt lat="43.33224" lon="-0.52962">
        <ele>139.05</ele>
        <time>2017-02-11T08:05:41Z</time>
      </trkpt>
      <trkpt lat="43.33221" lon="-0.52958">
        <ele>139.05</ele>
        <time>2017-02-11T08:05:42Z</time>
      </trkpt>
      <trkpt lat="43.33217" lon="-0.52955">
        <ele>138.57</ele>
        <time>2017-02-11T08:05:43Z</time>
      </trkpt>
      <trkpt lat="43.33209" lon="-0.52948">
        <ele>138.57</ele>
        <time>2017-02-11T08:05:45Z</time>
      </trkpt>
      <trkpt lat="43.332" lon="-0.52941">
        <ele>138.09</ele>
        <time>2017-02-11T08:05:47Z</time>
      </trkpt>
      <trkpt lat="43.33196" lon="-0.52937">
        <ele>137.61</ele>
        <time>2017-02-11T08:05:48Z</time>
      </trkpt>
      <trkpt lat="43.33192" lon="-0.52933">
        <ele>137.61</ele>
        <time>2017-02-11T08:05:49Z</time>
      </trkpt>
      <trkpt lat="43.33189" lon="-0.52929">
        <ele>137.13</ele>
        <time>2017-02-11T08:05:50Z</time>
      </trkpt>
      <trkpt lat="43.33185" lon="-0.52924">
        <ele>137.13</ele>
        <time>2017-02-11T08:05:51Z</time>
      </trkpt>
      <trkpt lat="43.33182" lon="-0.52919">
        <ele>137.13</ele>
        <time>2017-02-11T08:05:52Z</time>
      </trkpt>
      <trkpt lat="43.33178" lon="-0.52914">
        <ele>137.13</ele>
        <time>2017-02-11T08:05:53Z</time>
      </trkpt>
      <trkpt lat="43.33175" lon="-0.52909">
        <ele>137.61</ele>
        <time>2017-02-11T08:05:54Z</time>
      </trkpt>
      <trkpt lat="43.33168" lon="-0.52898">
        <ele>137.61</ele>
        <time>2017-02-11T08:05:56Z</time>
      </trkpt>
      <trkpt lat="43.33141" lon="-0.52847">
        <ele>139.05</ele>
        <time>2017-02-11T08:06:05Z</time>
      </trkpt>
      <trkpt lat="43.3313" lon="-0.52833">
        <ele>139.53</ele>
        <time>2017-02-11T08:06:08Z</time>
      </trkpt>
      <trkpt lat="43.33126" lon="-0.52829">
        <ele>139.53</ele>
        <time>2017-02-11T08:06:09Z</time>
      </trkpt>
      <trkpt lat="43.33109" lon="-0.52807">
        <ele>141.45</ele>
        <time>2017-02-11T08:06:14Z</time>
      </trkpt>
      <trkpt lat="43.33098" lon="-0.52791">
        <ele>141.45</ele>
        <time>2017-02-11T08:06:17Z</time>
      </trkpt>
      <trkpt lat="43.33092" lon="-0.52781">
        <ele>141.93</ele>
        <time>2017-02-11T08:06:19Z</time>
      </trkpt>
      <trkpt lat="43.33087" lon="-0.52771">
        <ele>141.93</ele>
        <time>2017-02-11T08:06:21Z</time>
      </trkpt>
      <trkpt lat="43.33082" lon="-0.52762">
        <ele>142.41</ele>
        <time>2017-02-11T08:06:23Z</time>
      </trkpt>
      <trkpt lat="43.3308" lon="-0.52757">
        <ele>142.41</ele>
        <time>2017-02-11T08:06:24Z</time>
      </trkpt>
      <trkpt lat="43.33074" lon="-0.5274">
        <ele>142.89</ele>
        <time>2017-02-11T08:06:27Z</time>
      </trkpt>
      <trkpt lat="43.3305" lon="-0.52653">
        <ele>140.01</ele>
        <time>2017-02-11T08:06:40Z</time>
      </trkpt>
      <trkpt lat="43.33033" lon="-0.52618">
        <ele>140.49</ele>
        <time>2017-02-11T08:06:47Z</time>
      </trkpt>
      <trkpt lat="43.33022" lon="-0.52593">
        <ele>142.89</ele>
        <time>2017-02-11T08:06:52Z</time>
      </trkpt>
      <trkpt lat="43.33" lon="-0.52535">
        <ele>145.78</ele>
        <time>2017-02-11T08:07:04Z</time>
      </trkpt>
      <trkpt lat="43.32977" lon="-0.52478">
        <ele>147.7</ele>
        <time>2017-02-11T08:07:16Z</time>
      </trkpt>
      <trkpt lat="43.32963" lon="-0.52422">
        <ele>146.74</ele>
        <time>2017-02-11T08:07:26Z</time>
      </trkpt>
      <trkpt lat="43.32961" lon="-0.5241">
        <ele>146.74</ele>
        <time>2017-02-11T08:07:28Z</time>
      </trkpt>
      <trkpt lat="43.32943" lon="-0.52322">
        <ele>146.26</ele>
        <time>2017-02-11T08:07:43Z</time>
      </trkpt>
      <trkpt lat="43.3294" lon="-0.52316">
        <ele>146.26</ele>
        <time>2017-02-11T08:07:44Z</time>
      </trkpt>
      <trkpt lat="43.32937" lon="-0.52311">
        <ele>145.78</ele>
        <time>2017-02-11T08:07:45Z</time>
      </trkpt>
      <trkpt lat="43.32933" lon="-0.52305">
        <ele>145.3</ele>
        <time>2017-02-11T08:07:46Z</time>
      </trkpt>
      <trkpt lat="43.32928" lon="-0.52301">
        <ele>144.82</ele>
        <time>2017-02-11T08:07:47Z</time>
      </trkpt>
      <trkpt lat="43.32922" lon="-0.52297">
        <ele>144.34</ele>
        <time>2017-02-11T08:07:48Z</time>
      </trkpt>
      <trkpt lat="43.32918" lon="-0.52295">
        <ele>143.37</ele>
        <time>2017-02-11T08:07:49Z</time>
      </trkpt>
      <trkpt lat="43.32912" lon="-0.52293">
        <ele>142.89</ele>
        <time>2017-02-11T08:07:50Z</time>
      </trkpt>
      <trkpt lat="43.32906" lon="-0.52292">
        <ele>142.41</ele>
        <time>2017-02-11T08:07:51Z</time>
      </trkpt>
      <trkpt lat="43.329" lon="-0.52292">
        <ele>141.93</ele>
        <time>2017-02-11T08:07:52Z</time>
      </trkpt>
      <trkpt lat="43.32859" lon="-0.52292">
        <ele>140.97</ele>
        <time>2017-02-11T08:07:58Z</time>
      </trkpt>
      <trkpt lat="43.32776" lon="-0.52261">
        <ele>131.36</ele>
        <time>2017-02-11T08:08:10Z</time>
      </trkpt>
      <trkpt lat="43.32743" lon="-0.52238">
        <ele>129.92</ele>
        <time>2017-02-11T08:08:16Z</time>
      </trkpt>
      <trkpt lat="43.32685" lon="-0.52201">
        <ele>131.84</ele>
        <time>2017-02-11T08:08:29Z</time>
      </trkpt>
      <trkpt lat="43.32681" lon="-0.52197">
        <ele>132.32</ele>
        <time>2017-02-11T08:08:30Z</time>
      </trkpt>
      <trkpt lat="43.32643" lon="-0.52156">
        <ele>135.68</ele>
        <time>2017-02-11T08:08:40Z</time>
      </trkpt>
      <trkpt lat="43.3264" lon="-0.52151">
        <ele>135.68</ele>
        <time>2017-02-11T08:08:41Z</time>
      </trkpt>
      <trkpt lat="43.32595" lon="-0.52082">
        <ele>138.09</ele>
        <time>2017-02-11T08:08:55Z</time>
      </trkpt>
      <trkpt lat="43.32563" lon="-0.52022">
        <ele>141.45</ele>
        <time>2017-02-11T08:09:08Z</time>
      </trkpt>
      <trkpt lat="43.3254" lon="-0.51992">
        <ele>142.89</ele>
        <time>2017-02-11T08:09:15Z</time>
      </trkpt>
      <trkpt lat="43.32536" lon="-0.51989">
        <ele>143.37</ele>
        <time>2017-02-11T08:09:16Z</time>
      </trkpt>
      <trkpt lat="43.32492" lon="-0.51953">
        <ele>144.82</ele>
        <time>2017-02-11T08:09:28Z</time>
      </trkpt>
      <trkpt lat="43.32441" lon="-0.51915">
        <ele>144.34</ele>
        <time>2017-02-11T08:09:39Z</time>
      </trkpt>
      <trkpt lat="43.32391" lon="-0.51875">
        <ele>143.37</ele>
        <time>2017-02-11T08:09:48Z</time>
      </trkpt>
      <trkpt lat="43.32347" lon="-0.51834">
        <ele>141.45</ele>
        <time>2017-02-11T08:09:59Z</time>
      </trkpt>
      <trkpt lat="43.32311" lon="-0.51797">
        <ele>142.41</ele>
        <time>2017-02-11T08:10:10Z</time>
      </trkpt>
      <trkpt lat="43.32277" lon="-0.51738">
        <ele>142.89</ele>
        <time>2017-02-11T08:10:23Z</time>
      </trkpt>
      <trkpt lat="43.32239" lon="-0.51679">
        <ele>144.34</ele>
        <time>2017-02-11T08:10:37Z</time>
      </trkpt>
      <trkpt lat="43.32201" lon="-0.51633">
        <ele>146.26</ele>
        <time>2017-02-11T08:10:49Z</time>
      </trkpt>
      <trkpt lat="43.32194" lon="-0.51625">
        <ele>146.26</ele>
        <time>2017-02-11T08:10:51Z</time>
      </trkpt>
      <trkpt lat="43.32157" lon="-0.51596">
        <ele>146.26</ele>
        <time>2017-02-11T08:11:01Z</time>
      </trkpt>
      <trkpt lat="43.32118" lon="-0.51563">
        <ele>148.66</ele>
        <time>2017-02-11T08:11:14Z</time>
      </trkpt>
      <trkpt lat="43.32075" lon="-0.51524">
        <ele>150.1</ele>
        <time>2017-02-11T08:11:27Z</time>
      </trkpt>
      <trkpt lat="43.32049" lon="-0.51487">
        <ele>150.58</ele>
        <time>2017-02-11T08:11:38Z</time>
      </trkpt>
      <trkpt lat="43.32034" lon="-0.51459">
        <ele>149.62</ele>
        <time>2017-02-11T08:11:45Z</time>
      </trkpt>
      <trkpt lat="43.32029" lon="-0.51455">
        <ele>148.66</ele>
        <time>2017-02-11T08:11:46Z</time>
      </trkpt>
      <trkpt lat="43.32025" lon="-0.51452">
        <ele>148.18</ele>
        <time>2017-02-11T08:11:47Z</time>
      </trkpt>
      <trkpt lat="43.32014" lon="-0.51446">
        <ele>147.22</ele>
        <time>2017-02-11T08:11:49Z</time>
      </trkpt>
      <trkpt lat="43.32009" lon="-0.51444">
        <ele>146.26</ele>
        <time>2017-02-11T08:11:50Z</time>
      </trkpt>
      <trkpt lat="43.32003" lon="-0.51442">
        <ele>145.78</ele>
        <time>2017-02-11T08:11:51Z</time>
      </trkpt>
      <trkpt lat="43.31992" lon="-0.5144">
        <ele>144.34</ele>
        <time>2017-02-11T08:11:53Z</time>
      </trkpt>
      <trkpt lat="43.31987" lon="-0.51438">
        <ele>143.85</ele>
        <time>2017-02-11T08:11:54Z</time>
      </trkpt>
      <trkpt lat="43.31983" lon="-0.51434">
        <ele>143.37</ele>
        <time>2017-02-11T08:11:55Z</time>
      </trkpt>
      <trkpt lat="43.31974" lon="-0.51426">
        <ele>142.41</ele>
        <time>2017-02-11T08:11:57Z</time>
      </trkpt>
      <trkpt lat="43.3197" lon="-0.51423">
        <ele>142.41</ele>
        <time>2017-02-11T08:11:58Z</time>
      </trkpt>
      <trkpt lat="43.31965" lon="-0.51421">
        <ele>141.93</ele>
        <time>2017-02-11T08:11:59Z</time>
      </trkpt>
      <trkpt lat="43.3196" lon="-0.51419">
        <ele>141.93</ele>
        <time>2017-02-11T08:12:00Z</time>
      </trkpt>
      <trkpt lat="43.31956" lon="-0.51418">
        <ele>141.93</ele>
        <time>2017-02-11T08:12:01Z</time>
      </trkpt>
      <trkpt lat="43.31929" lon="-0.51398">
        <ele>139.05</ele>
        <time>2017-02-11T08:12:11Z</time>
      </trkpt>
      <trkpt lat="43.31911" lon="-0.51371">
        <ele>140.49</ele>
        <time>2017-02-11T08:12:24Z</time>
      </trkpt>
      <trkpt lat="43.31909" lon="-0.51371">
        <ele>140.49</ele>
        <time>2017-02-11T08:12:25Z</time>
      </trkpt>
      <trkpt lat="43.31907" lon="-0.51373">
        <ele>140.97</ele>
        <time>2017-02-11T08:12:26Z</time>
      </trkpt>
      <trkpt lat="43.31906" lon="-0.51374">
        <ele>141.45</ele>
        <time>2017-02-11T08:12:27Z</time>
      </trkpt>
      <trkpt lat="43.31905" lon="-0.51376">
        <ele>141.45</ele>
        <time>2017-02-11T08:12:28Z</time>
      </trkpt>
      <trkpt lat="43.31904" lon="-0.51379">
        <ele>141.45</ele>
        <time>2017-02-11T08:12:29Z</time>
      </trkpt>
      <trkpt lat="43.31903" lon="-0.51382">
        <ele>141.93</ele>
        <time>2017-02-11T08:12:30Z</time>
      </trkpt>
      <trkpt lat="43.31888" lon="-0.51408">
        <ele>142.41</ele>
        <time>2017-02-11T08:12:38Z</time>
      </trkpt>
      <trkpt lat="43.31877" lon="-0.5142">
        <ele>141.93</ele>
        <time>2017-02-11T08:12:41Z</time>
      </trkpt>
      <trkpt lat="43.31873" lon="-0.51424">
        <ele>141.93</ele>
        <time>2017-02-11T08:12:42Z</time>
      </trkpt>
      <trkpt lat="43.31836" lon="-0.51445">
        <ele>144.82</ele>
        <time>2017-02-11T08:12:54Z</time>
      </trkpt>
      <trkpt lat="43.31796" lon="-0.5142">
        <ele>144.82</ele>
        <time>2017-02-11T08:13:05Z</time>
      </trkpt>
      <trkpt lat="43.31791" lon="-0.51415">
        <ele>144.34</ele>
        <time>2017-02-11T08:13:06Z</time>
      </trkpt>
      <trkpt lat="43.31785" lon="-0.51411">
        <ele>143.85</ele>
        <time>2017-02-11T08:13:07Z</time>
      </trkpt>
      <trkpt lat="43.3178" lon="-0.51408">
        <ele>143.37</ele>
        <time>2017-02-11T08:13:08Z</time>
      </trkpt>
      <trkpt lat="43.31774" lon="-0.51405">
        <ele>143.37</ele>
        <time>2017-02-11T08:13:09Z</time>
      </trkpt>
      <trkpt lat="43.31768" lon="-0.51403">
        <ele>142.41</ele>
        <time>2017-02-11T08:13:10Z</time>
      </trkpt>
      <trkpt lat="43.31716" lon="-0.51393">
        <ele>139.53</ele>
        <time>2017-02-11T08:13:19Z</time>
      </trkpt>
      <trkpt lat="43.31711" lon="-0.51391">
        <ele>139.05</ele>
        <time>2017-02-11T08:13:20Z</time>
      </trkpt>
      <trkpt lat="43.31671" lon="-0.51375">
        <ele>139.05</ele>
        <time>2017-02-11T08:13:32Z</time>
      </trkpt>
      <trkpt lat="43.31627" lon="-0.51357">
        <ele>144.82</ele>
        <time>2017-02-11T08:13:48Z</time>
      </trkpt>
      <trkpt lat="43.316" lon="-0.51338">
        <ele>152.99</ele>
        <time>2017-02-11T08:13:59Z</time>
      </trkpt>
      <trkpt lat="43.31575" lon="-0.51308">
        <ele>158.75</ele>
        <time>2017-02-11T08:14:15Z</time>
      </trkpt>
      <trkpt lat="43.31556" lon="-0.51278">
        <ele>161.64</ele>
        <time>2017-02-11T08:14:30Z</time>
      </trkpt>
      <trkpt lat="43.31542" lon="-0.51244">
        <ele>164.52</ele>
        <time>2017-02-11T08:14:44Z</time>
      </trkpt>
      <trkpt lat="43.31541" lon="-0.51242">
        <ele>164.52</ele>
        <time>2017-02-11T08:14:45Z</time>
      </trkpt>
      <trkpt lat="43.3153" lon="-0.51223">
        <ele>166.45</ele>
        <time>2017-02-11T08:14:54Z</time>
      </trkpt>
      <trkpt lat="43.31528" lon="-0.51222">
        <ele>166.45</ele>
        <time>2017-02-11T08:14:55Z</time>
      </trkpt>
      <trkpt lat="43.31526" lon="-0.5122">
        <ele>166.93</ele>
        <time>2017-02-11T08:14:56Z</time>
      </trkpt>
      <trkpt lat="43.31523" lon="-0.51218">
        <ele>166.93</ele>
        <time>2017-02-11T08:14:57Z</time>
      </trkpt>
      <trkpt lat="43.3152" lon="-0.51217">
        <ele>167.41</ele>
        <time>2017-02-11T08:14:58Z</time>
      </trkpt>
      <trkpt lat="43.31517" lon="-0.51216">
        <ele>167.41</ele>
        <time>2017-02-11T08:14:59Z</time>
      </trkpt>
      <trkpt lat="43.31473" lon="-0.5122">
        <ele>165.96</ele>
        <time>2017-02-11T08:15:11Z</time>
      </trkpt>
      <trkpt lat="43.31424" lon="-0.51222">
        <ele>165.48</ele>
        <time>2017-02-11T08:15:25Z</time>
      </trkpt>
      <trkpt lat="43.31365" lon="-0.51209">
        <ele>163.56</ele>
        <time>2017-02-11T08:15:41Z</time>
      </trkpt>
      <trkpt lat="43.31333" lon="-0.51194">
        <ele>162.12</ele>
        <time>2017-02-11T08:15:48Z</time>
      </trkpt>
      <trkpt lat="43.31319" lon="-0.51187">
        <ele>161.16</ele>
        <time>2017-02-11T08:15:51Z</time>
      </trkpt>
      <trkpt lat="43.31273" lon="-0.51161">
        <ele>163.56</ele>
        <time>2017-02-11T08:16:05Z</time>
      </trkpt>
      <trkpt lat="43.31226" lon="-0.51117">
        <ele>168.37</ele>
        <time>2017-02-11T08:16:19Z</time>
      </trkpt>
      <trkpt lat="43.31197" lon="-0.5109">
        <ele>173.17</ele>
        <time>2017-02-11T08:16:29Z</time>
      </trkpt>
      <trkpt lat="43.31172" lon="-0.51051">
        <ele>173.66</ele>
        <time>2017-02-11T08:16:41Z</time>
      </trkpt>
      <trkpt lat="43.31152" lon="-0.51016">
        <ele>174.62</ele>
        <time>2017-02-11T08:16:51Z</time>
      </trkpt>
      <trkpt lat="43.31143" lon="-0.51004">
        <ele>173.66</ele>
        <time>2017-02-11T08:17:01Z</time>
      </trkpt>
      <trkpt lat="43.31113" lon="-0.50974">
        <ele>171.25</ele>
        <time>2017-02-11T08:17:13Z</time>
      </trkpt>
      <trkpt lat="43.31074" lon="-0.50928">
        <ele>177.02</ele>
        <time>2017-02-11T08:17:28Z</time>
      </trkpt>
      <trkpt lat="43.3105" lon="-0.50882">
        <ele>177.98</ele>
        <time>2017-02-11T08:17:40Z</time>
      </trkpt>
      <trkpt lat="43.31046" lon="-0.50871">
        <ele>177.02</ele>
        <time>2017-02-11T08:17:42Z</time>
      </trkpt>
      <trkpt lat="43.31039" lon="-0.5086">
        <ele>176.06</ele>
        <time>2017-02-11T08:17:44Z</time>
      </trkpt>
      <trkpt lat="43.31035" lon="-0.50855">
        <ele>176.06</ele>
        <time>2017-02-11T08:17:45Z</time>
      </trkpt>
      <trkpt lat="43.31031" lon="-0.50852">
        <ele>176.06</ele>
        <time>2017-02-11T08:17:46Z</time>
      </trkpt>
      <trkpt lat="43.3098" lon="-0.5081">
        <ele>175.58</ele>
        <time>2017-02-11T08:18:00Z</time>
      </trkpt>
      <trkpt lat="43.30934" lon="-0.50772">
        <ele>175.58</ele>
        <time>2017-02-11T08:18:16Z</time>
      </trkpt>
      <trkpt lat="43.30897" lon="-0.50735">
        <ele>174.62</ele>
        <time>2017-02-11T08:18:27Z</time>
      </trkpt>
      <trkpt lat="43.30893" lon="-0.50732">
        <ele>174.62</ele>
        <time>2017-02-11T08:18:28Z</time>
      </trkpt>
      <trkpt lat="43.30862" lon="-0.50703">
        <ele>177.98</ele>
        <time>2017-02-11T08:18:40Z</time>
      </trkpt>
      <trkpt lat="43.30826" lon="-0.50686">
        <ele>177.98</ele>
        <time>2017-02-11T08:18:51Z</time>
      </trkpt>
      <trkpt lat="43.30793" lon="-0.50671">
        <ele>177.98</ele>
        <time>2017-02-11T08:19:06Z</time>
      </trkpt>
      <trkpt lat="43.30763" lon="-0.50658">
        <ele>180.38</ele>
        <time>2017-02-11T08:19:19Z</time>
      </trkpt>
      <trkpt lat="43.3074" lon="-0.50646">
        <ele>189.04</ele>
        <time>2017-02-11T08:19:34Z</time>
      </trkpt>
      <trkpt lat="43.30729" lon="-0.50636">
        <ele>194.32</ele>
        <time>2017-02-11T08:19:42Z</time>
      </trkpt>
      <trkpt lat="43.30717" lon="-0.50622">
        <ele>197.69</ele>
        <time>2017-02-11T08:19:54Z</time>
      </trkpt>
      <trkpt lat="43.30698" lon="-0.50603">
        <ele>198.17</ele>
        <time>2017-02-11T08:20:05Z</time>
      </trkpt>
      <trkpt lat="43.30678" lon="-0.50582">
        <ele>200.57</ele>
        <time>2017-02-11T08:20:18Z</time>
      </trkpt>
      <trkpt lat="43.30657" lon="-0.50559">
        <ele>202.01</ele>
        <time>2017-02-11T08:20:31Z</time>
      </trkpt>
      <trkpt lat="43.30624" lon="-0.50533">
        <ele>201.05</ele>
        <time>2017-02-11T08:20:45Z</time>
      </trkpt>
      <trkpt lat="43.30594" lon="-0.50515">
        <ele>204.42</ele>
        <time>2017-02-11T08:20:59Z</time>
      </trkpt>
      <trkpt lat="43.30566" lon="-0.50489">
        <ele>205.86</ele>
        <time>2017-02-11T08:21:13Z</time>
      </trkpt>
      <trkpt lat="43.3054" lon="-0.50462">
        <ele>208.26</ele>
        <time>2017-02-11T08:21:26Z</time>
      </trkpt>
      <trkpt lat="43.30517" lon="-0.50434">
        <ele>213.07</ele>
        <time>2017-02-11T08:21:38Z</time>
      </trkpt>
      <trkpt lat="43.30494" lon="-0.50407">
        <ele>215.95</ele>
        <time>2017-02-11T08:21:50Z</time>
      </trkpt>
      <trkpt lat="43.30462" lon="-0.50369">
        <ele>219.8</ele>
        <time>2017-02-11T08:22:04Z</time>
      </trkpt>
      <trkpt lat="43.30426" lon="-0.50324">
        <ele>217.88</ele>
        <time>2017-02-11T08:22:19Z</time>
      </trkpt>
      <trkpt lat="43.30399" lon="-0.50291">
        <ele>221.24</ele>
        <time>2017-02-11T08:22:32Z</time>
      </trkpt>
      <trkpt lat="43.30371" lon="-0.50261">
        <ele>222.68</ele>
        <time>2017-02-11T08:22:45Z</time>
      </trkpt>
      <trkpt lat="43.30367" lon="-0.50254">
        <ele>220.76</ele>
        <time>2017-02-11T08:22:56Z</time>
      </trkpt>
      <trkpt lat="43.30364" lon="-0.50252">
        <ele>220.28</ele>
        <time>2017-02-11T08:23:01Z</time>
      </trkpt>
      <trkpt lat="43.30363" lon="-0.5025">
        <ele>220.28</ele>
        <time>2017-02-11T08:23:02Z</time>
      </trkpt>
      <trkpt lat="43.30361" lon="-0.50249">
        <ele>220.28</ele>
        <time>2017-02-11T08:23:03Z</time>
      </trkpt>
      <trkpt lat="43.30359" lon="-0.50248">
        <ele>219.8</ele>
        <time>2017-02-11T08:23:04Z</time>
      </trkpt>
      <trkpt lat="43.30357" lon="-0.50247">
        <ele>219.8</ele>
        <time>2017-02-11T08:23:05Z</time>
      </trkpt>
      <trkpt lat="43.30354" lon="-0.50246">
        <ele>219.32</ele>
        <time>2017-02-11T08:23:07Z</time>
      </trkpt>
      <trkpt lat="43.30353" lon="-0.50246">
        <ele>219.32</ele>
        <time>2017-02-11T08:23:08Z</time>
      </trkpt>
      <trkpt lat="43.30341" lon="-0.50237">
        <ele>214.51</ele>
        <time>2017-02-11T08:23:19Z</time>
      </trkpt>
      <trkpt lat="43.3034" lon="-0.50235">
        <ele>214.03</ele>
        <time>2017-02-11T08:23:20Z</time>
      </trkpt>
      <trkpt lat="43.30339" lon="-0.50234">
        <ele>213.07</ele>
        <time>2017-02-11T08:23:21Z</time>
      </trkpt>
      <trkpt lat="43.30336" lon="-0.50219">
        <ele>209.22</ele>
        <time>2017-02-11T08:23:29Z</time>
      </trkpt>
      <trkpt lat="43.30335" lon="-0.50217">
        <ele>208.74</ele>
        <time>2017-02-11T08:23:30Z</time>
      </trkpt>
      <trkpt lat="43.30335" lon="-0.50215">
        <ele>208.26</ele>
        <time>2017-02-11T08:23:31Z</time>
      </trkpt>
      <trkpt lat="43.30335" lon="-0.50199">
        <ele>202.49</ele>
        <time>2017-02-11T08:23:43Z</time>
      </trkpt>
      <trkpt lat="43.30334" lon="-0.50196">
        <ele>201.53</ele>
        <time>2017-02-11T08:23:45Z</time>
      </trkpt>
      <trkpt lat="43.30333" lon="-0.50195">
        <ele>201.05</ele>
        <time>2017-02-11T08:23:46Z</time>
      </trkpt>
      <trkpt lat="43.30333" lon="-0.50193">
        <ele>200.57</ele>
        <time>2017-02-11T08:23:47Z</time>
      </trkpt>
      <trkpt lat="43.30328" lon="-0.50191">
        <ele>197.69</ele>
        <time>2017-02-11T08:23:56Z</time>
      </trkpt>
      <trkpt lat="43.30328" lon="-0.50194">
        <ele>197.21</ele>
        <time>2017-02-11T08:23:58Z</time>
      </trkpt>
      <trkpt lat="43.30327" lon="-0.50196">
        <ele>196.73</ele>
        <time>2017-02-11T08:23:59Z</time>
      </trkpt>
      <trkpt lat="43.30326" lon="-0.50197">
        <ele>196.73</ele>
        <time>2017-02-11T08:24:00Z</time>
      </trkpt>
      <trkpt lat="43.30315" lon="-0.50191">
        <ele>195.77</ele>
        <time>2017-02-11T08:24:11Z</time>
      </trkpt>
      <trkpt lat="43.30307" lon="-0.50179">
        <ele>192.88</ele>
        <time>2017-02-11T08:24:21Z</time>
      </trkpt>
      <trkpt lat="43.30308" lon="-0.50167">
        <ele>187.59</ele>
        <time>2017-02-11T08:24:32Z</time>
      </trkpt>
      <trkpt lat="43.30289" lon="-0.50151">
        <ele>184.71</ele>
        <time>2017-02-11T08:24:45Z</time>
      </trkpt>
      <trkpt lat="43.30274" lon="-0.50144">
        <ele>181.35</ele>
        <time>2017-02-11T08:24:55Z</time>
      </trkpt>
      <trkpt lat="43.30268" lon="-0.50138">
        <ele>177.98</ele>
        <time>2017-02-11T08:25:04Z</time>
      </trkpt>
      <trkpt lat="43.30267" lon="-0.50138">
        <ele>177.5</ele>
        <time>2017-02-11T08:25:05Z</time>
      </trkpt>
      <trkpt lat="43.30265" lon="-0.50137">
        <ele>177.02</ele>
        <time>2017-02-11T08:25:06Z</time>
      </trkpt>
      <trkpt lat="43.30256" lon="-0.50129">
        <ele>172.69</ele>
        <time>2017-02-11T08:25:15Z</time>
      </trkpt>
      <trkpt lat="43.30254" lon="-0.50128">
        <ele>172.21</ele>
        <time>2017-02-11T08:25:16Z</time>
      </trkpt>
      <trkpt lat="43.30252" lon="-0.50128">
        <ele>172.21</ele>
        <time>2017-02-11T08:25:17Z</time>
      </trkpt>
      <trkpt lat="43.30251" lon="-0.50128">
        <ele>171.73</ele>
        <time>2017-02-11T08:25:18Z</time>
      </trkpt>
      <trkpt lat="43.3025" lon="-0.50129">
        <ele>171.73</ele>
        <time>2017-02-11T08:25:19Z</time>
      </trkpt>
      <trkpt lat="43.30245" lon="-0.50128">
        <ele>170.77</ele>
        <time>2017-02-11T08:25:22Z</time>
      </trkpt>
      <trkpt lat="43.30244" lon="-0.50127">
        <ele>170.29</ele>
        <time>2017-02-11T08:25:23Z</time>
      </trkpt>
      <trkpt lat="43.30242" lon="-0.50126">
        <ele>169.81</ele>
        <time>2017-02-11T08:25:24Z</time>
      </trkpt>
      <trkpt lat="43.30239" lon="-0.50125">
        <ele>169.81</ele>
        <time>2017-02-11T08:25:25Z</time>
      </trkpt>
      <trkpt lat="43.30238" lon="-0.50124">
        <ele>169.81</ele>
        <time>2017-02-11T08:25:26Z</time>
      </trkpt>
      <trkpt lat="43.30236" lon="-0.50122">
        <ele>169.81</ele>
        <time>2017-02-11T08:25:27Z</time>
      </trkpt>
      <trkpt lat="43.30228" lon="-0.50117">
        <ele>170.29</ele>
        <time>2017-02-11T08:25:35Z</time>
      </trkpt>
      <trkpt lat="43.30218" lon="-0.50117">
        <ele>170.29</ele>
        <time>2017-02-11T08:25:45Z</time>
      </trkpt>
      <trkpt lat="43.30209" lon="-0.50116">
        <ele>169.33</ele>
        <time>2017-02-11T08:25:53Z</time>
      </trkpt>
      <trkpt lat="43.30209" lon="-0.50113">
        <ele>168.85</ele>
        <time>2017-02-11T08:25:54Z</time>
      </trkpt>
      <trkpt lat="43.30207" lon="-0.50088">
        <ele>160.2</ele>
        <time>2017-02-11T08:26:05Z</time>
      </trkpt>
      <trkpt lat="43.30207" lon="-0.50086">
        <ele>159.24</ele>
        <time>2017-02-11T08:26:06Z</time>
      </trkpt>
      <trkpt lat="43.30192" lon="-0.50085">
        <ele>158.27</ele>
        <time>2017-02-11T08:26:18Z</time>
      </trkpt>
      <trkpt lat="43.30187" lon="-0.50101">
        <ele>159.24</ele>
        <time>2017-02-11T08:26:33Z</time>
      </trkpt>
      <trkpt lat="43.30182" lon="-0.50106">
        <ele>157.79</ele>
        <time>2017-02-11T08:26:51Z</time>
      </trkpt>
      <trkpt lat="43.30179" lon="-0.50112">
        <ele>157.31</ele>
        <time>2017-02-11T08:26:56Z</time>
      </trkpt>
      <trkpt lat="43.30178" lon="-0.50115">
        <ele>156.83</ele>
        <time>2017-02-11T08:26:58Z</time>
      </trkpt>
      <trkpt lat="43.30181" lon="-0.50143">
        <ele>152.99</ele>
        <time>2017-02-11T08:27:06Z</time>
      </trkpt>
      <trkpt lat="43.3017" lon="-0.50203">
        <ele>149.14</ele>
        <time>2017-02-11T08:27:17Z</time>
      </trkpt>
      <trkpt lat="43.30159" lon="-0.50319">
        <ele>148.66</ele>
        <time>2017-02-11T08:27:32Z</time>
      </trkpt>
      <trkpt lat="43.30155" lon="-0.50353">
        <ele>148.66</ele>
        <time>2017-02-11T08:27:37Z</time>
      </trkpt>
      <trkpt lat="43.30153" lon="-0.50356">
        <ele>148.18</ele>
        <time>2017-02-11T08:27:38Z</time>
      </trkpt>
      <trkpt lat="43.30149" lon="-0.50356">
        <ele>147.7</ele>
        <time>2017-02-11T08:27:39Z</time>
      </trkpt>
      <trkpt lat="43.30144" lon="-0.50354">
        <ele>147.22</ele>
        <time>2017-02-11T08:27:40Z</time>
      </trkpt>
      <trkpt lat="43.30141" lon="-0.50351">
        <ele>146.74</ele>
        <time>2017-02-11T08:27:41Z</time>
      </trkpt>
      <trkpt lat="43.30138" lon="-0.50348">
        <ele>146.26</ele>
        <time>2017-02-11T08:27:42Z</time>
      </trkpt>
      <trkpt lat="43.30108" lon="-0.50318">
        <ele>145.78</ele>
        <time>2017-02-11T08:27:51Z</time>
      </trkpt>
      <trkpt lat="43.30105" lon="-0.50314">
        <ele>146.26</ele>
        <time>2017-02-11T08:27:52Z</time>
      </trkpt>
      <trkpt lat="43.30102" lon="-0.50311">
        <ele>145.78</ele>
        <time>2017-02-11T08:27:53Z</time>
      </trkpt>
      <trkpt lat="43.30072" lon="-0.50265">
        <ele>145.3</ele>
        <time>2017-02-11T08:28:05Z</time>
      </trkpt>
      <trkpt lat="43.30059" lon="-0.50251">
        <ele>145.78</ele>
        <time>2017-02-11T08:28:09Z</time>
      </trkpt>
      <trkpt lat="43.30032" lon="-0.50231">
        <ele>146.26</ele>
        <time>2017-02-11T08:28:17Z</time>
      </trkpt>
      <trkpt lat="43.30028" lon="-0.50229">
        <ele>146.26</ele>
        <time>2017-02-11T08:28:18Z</time>
      </trkpt>
      <trkpt lat="43.30024" lon="-0.50228">
        <ele>146.26</ele>
        <time>2017-02-11T08:28:19Z</time>
      </trkpt>
      <trkpt lat="43.2997" lon="-0.50213">
        <ele>146.26</ele>
        <time>2017-02-11T08:28:32Z</time>
      </trkpt>
      <trkpt lat="43.29962" lon="-0.50212">
        <ele>146.26</ele>
        <time>2017-02-11T08:28:34Z</time>
      </trkpt>
      <trkpt lat="43.29957" lon="-0.50211">
        <ele>146.26</ele>
        <time>2017-02-11T08:28:35Z</time>
      </trkpt>
      <trkpt lat="43.29949" lon="-0.50207">
        <ele>146.26</ele>
        <time>2017-02-11T08:28:37Z</time>
      </trkpt>
      <trkpt lat="43.29946" lon="-0.50205">
        <ele>145.78</ele>
        <time>2017-02-11T08:28:38Z</time>
      </trkpt>
      <trkpt lat="43.29942" lon="-0.50204">
        <ele>145.3</ele>
        <time>2017-02-11T08:28:39Z</time>
      </trkpt>
      <trkpt lat="43.29934" lon="-0.50201">
        <ele>145.78</ele>
        <time>2017-02-11T08:28:41Z</time>
      </trkpt>
      <trkpt lat="43.29903" lon="-0.5019">
        <ele>147.22</ele>
        <time>2017-02-11T08:28:49Z</time>
      </trkpt>
      <trkpt lat="43.29899" lon="-0.50188">
        <ele>147.22</ele>
        <time>2017-02-11T08:28:50Z</time>
      </trkpt>
      <trkpt lat="43.2989" lon="-0.50183">
        <ele>146.74</ele>
        <time>2017-02-11T08:28:52Z</time>
      </trkpt>
      <trkpt lat="43.29885" lon="-0.50181">
        <ele>146.74</ele>
        <time>2017-02-11T08:28:53Z</time>
      </trkpt>
      <trkpt lat="43.29864" lon="-0.50178">
        <ele>145.78</ele>
        <time>2017-02-11T08:28:57Z</time>
      </trkpt>
      <trkpt lat="43.29859" lon="-0.5018">
        <ele>145.3</ele>
        <time>2017-02-11T08:28:58Z</time>
      </trkpt>
      <trkpt lat="43.29855" lon="-0.50183">
        <ele>145.3</ele>
        <time>2017-02-11T08:28:59Z</time>
      </trkpt>
      <trkpt lat="43.29849" lon="-0.50191">
        <ele>144.34</ele>
        <time>2017-02-11T08:29:01Z</time>
      </trkpt>
      <trkpt lat="43.29846" lon="-0.50193">
        <ele>144.34</ele>
        <time>2017-02-11T08:29:02Z</time>
      </trkpt>
      <trkpt lat="43.29842" lon="-0.50192">
        <ele>144.34</ele>
        <time>2017-02-11T08:29:03Z</time>
      </trkpt>
      <trkpt lat="43.2984" lon="-0.50191">
        <ele>144.82</ele>
        <time>2017-02-11T08:29:04Z</time>
      </trkpt>
      <trkpt lat="43.29837" lon="-0.50189">
        <ele>144.82</ele>
        <time>2017-02-11T08:29:05Z</time>
      </trkpt>
      <trkpt lat="43.29834" lon="-0.50187">
        <ele>145.3</ele>
        <time>2017-02-11T08:29:06Z</time>
      </trkpt>
      <trkpt lat="43.29823" lon="-0.50183">
        <ele>144.82</ele>
        <time>2017-02-11T08:29:09Z</time>
      </trkpt>
      <trkpt lat="43.29772" lon="-0.50175">
        <ele>145.78</ele>
        <time>2017-02-11T08:29:21Z</time>
      </trkpt>
      <trkpt lat="43.29768" lon="-0.50174">
        <ele>146.26</ele>
        <time>2017-02-11T08:29:22Z</time>
      </trkpt>
      <trkpt lat="43.29749" lon="-0.50174">
        <ele>147.7</ele>
        <time>2017-02-11T08:29:27Z</time>
      </trkpt>
      <trkpt lat="43.29748" lon="-0.50178">
        <ele>147.7</ele>
        <time>2017-02-11T08:29:28Z</time>
      </trkpt>
      <trkpt lat="43.29747" lon="-0.50183">
        <ele>147.7</ele>
        <time>2017-02-11T08:29:29Z</time>
      </trkpt>
      <trkpt lat="43.29747" lon="-0.50188">
        <ele>147.22</ele>
        <time>2017-02-11T08:29:30Z</time>
      </trkpt>
      <trkpt lat="43.29747" lon="-0.50195">
        <ele>146.74</ele>
        <time>2017-02-11T08:29:31Z</time>
      </trkpt>
      <trkpt lat="43.29734" lon="-0.50292">
        <ele>143.85</ele>
        <time>2017-02-11T08:29:42Z</time>
      </trkpt>
      <trkpt lat="43.29708" lon="-0.50411">
        <ele>142.41</ele>
        <time>2017-02-11T08:29:55Z</time>
      </trkpt>
      <trkpt lat="43.29703" lon="-0.50444">
        <ele>142.89</ele>
        <time>2017-02-11T08:29:59Z</time>
      </trkpt>
      <trkpt lat="43.297" lon="-0.50468">
        <ele>142.89</ele>
        <time>2017-02-11T08:30:02Z</time>
      </trkpt>
      <trkpt lat="43.29683" lon="-0.50586">
        <ele>143.37</ele>
        <time>2017-02-11T08:30:17Z</time>
      </trkpt>
      <trkpt lat="43.29679" lon="-0.50592">
        <ele>143.37</ele>
        <time>2017-02-11T08:30:18Z</time>
      </trkpt>
      <trkpt lat="43.29675" lon="-0.50597">
        <ele>143.37</ele>
        <time>2017-02-11T08:30:19Z</time>
      </trkpt>
      <trkpt lat="43.2967" lon="-0.50601">
        <ele>143.37</ele>
        <time>2017-02-11T08:30:20Z</time>
      </trkpt>
      <trkpt lat="43.29665" lon="-0.50605">
        <ele>143.37</ele>
        <time>2017-02-11T08:30:21Z</time>
      </trkpt>
      <trkpt lat="43.2966" lon="-0.50608">
        <ele>143.37</ele>
        <time>2017-02-11T08:30:22Z</time>
      </trkpt>
      <trkpt lat="43.29655" lon="-0.50611">
        <ele>143.37</ele>
        <time>2017-02-11T08:30:23Z</time>
      </trkpt>
      <trkpt lat="43.2965" lon="-0.50616">
        <ele>143.37</ele>
        <time>2017-02-11T08:30:24Z</time>
      </trkpt>
      <trkpt lat="43.29648" lon="-0.50622">
        <ele>143.37</ele>
        <time>2017-02-11T08:30:25Z</time>
      </trkpt>
      <trkpt lat="43.29646" lon="-0.5063">
        <ele>143.37</ele>
        <time>2017-02-11T08:30:26Z</time>
      </trkpt>
      <trkpt lat="43.29646" lon="-0.50638">
        <ele>143.85</ele>
        <time>2017-02-11T08:30:27Z</time>
      </trkpt>
      <trkpt lat="43.29647" lon="-0.50645">
        <ele>143.85</ele>
        <time>2017-02-11T08:30:28Z</time>
      </trkpt>
      <trkpt lat="43.29653" lon="-0.50685">
        <ele>144.34</ele>
        <time>2017-02-11T08:30:33Z</time>
      </trkpt>
      <trkpt lat="43.29656" lon="-0.50692">
        <ele>144.34</ele>
        <time>2017-02-11T08:30:34Z</time>
      </trkpt>
      <trkpt lat="43.2966" lon="-0.50698">
        <ele>144.34</ele>
        <time>2017-02-11T08:30:35Z</time>
      </trkpt>
      <trkpt lat="43.29666" lon="-0.50702">
        <ele>144.82</ele>
        <time>2017-02-11T08:30:36Z</time>
      </trkpt>
      <trkpt lat="43.29671" lon="-0.50703">
        <ele>144.82</ele>
        <time>2017-02-11T08:30:37Z</time>
      </trkpt>
      <trkpt lat="43.29677" lon="-0.50703">
        <ele>144.82</ele>
        <time>2017-02-11T08:30:38Z</time>
      </trkpt>
      <trkpt lat="43.29683" lon="-0.50702">
        <ele>144.34</ele>
        <time>2017-02-11T08:30:39Z</time>
      </trkpt>
      <trkpt lat="43.29689" lon="-0.50702">
        <ele>144.34</ele>
        <time>2017-02-11T08:30:40Z</time>
      </trkpt>
      <trkpt lat="43.29694" lon="-0.50702">
        <ele>143.85</ele>
        <time>2017-02-11T08:30:41Z</time>
      </trkpt>
      <trkpt lat="43.297" lon="-0.50703">
        <ele>143.85</ele>
        <time>2017-02-11T08:30:42Z</time>
      </trkpt>
      <trkpt lat="43.29733" lon="-0.50719">
        <ele>144.34</ele>
        <time>2017-02-11T08:30:48Z</time>
      </trkpt>
      <trkpt lat="43.29752" lon="-0.50738">
        <ele>144.34</ele>
        <time>2017-02-11T08:30:52Z</time>
      </trkpt>
      <trkpt lat="43.29756" lon="-0.50743">
        <ele>144.34</ele>
        <time>2017-02-11T08:30:53Z</time>
      </trkpt>
      <trkpt lat="43.29761" lon="-0.50748">
        <ele>144.82</ele>
        <time>2017-02-11T08:30:54Z</time>
      </trkpt>
      <trkpt lat="43.29804" lon="-0.50792">
        <ele>145.78</ele>
        <time>2017-02-11T08:31:03Z</time>
      </trkpt>
      <trkpt lat="43.29878" lon="-0.50863">
        <ele>145.3</ele>
        <time>2017-02-11T08:31:18Z</time>
      </trkpt>
      <trkpt lat="43.29885" lon="-0.50875">
        <ele>144.82</ele>
        <time>2017-02-11T08:31:20Z</time>
      </trkpt>
      <trkpt lat="43.29889" lon="-0.50882">
        <ele>144.82</ele>
        <time>2017-02-11T08:31:21Z</time>
      </trkpt>
      <trkpt lat="43.29891" lon="-0.50889">
        <ele>144.82</ele>
        <time>2017-02-11T08:31:22Z</time>
      </trkpt>
      <trkpt lat="43.29909" lon="-0.50945">
        <ele>144.34</ele>
        <time>2017-02-11T08:31:30Z</time>
      </trkpt>
      <trkpt lat="43.2991" lon="-0.50951">
        <ele>144.34</ele>
        <time>2017-02-11T08:31:31Z</time>
      </trkpt>
      <trkpt lat="43.2991" lon="-0.50958">
        <ele>143.85</ele>
        <time>2017-02-11T08:31:32Z</time>
      </trkpt>
      <trkpt lat="43.29909" lon="-0.50965">
        <ele>143.85</ele>
        <time>2017-02-11T08:31:33Z</time>
      </trkpt>
      <trkpt lat="43.29907" lon="-0.50973">
        <ele>143.85</ele>
        <time>2017-02-11T08:31:34Z</time>
      </trkpt>
      <trkpt lat="43.29905" lon="-0.5098">
        <ele>143.85</ele>
        <time>2017-02-11T08:31:35Z</time>
      </trkpt>
      <trkpt lat="43.29903" lon="-0.50987">
        <ele>143.85</ele>
        <time>2017-02-11T08:31:36Z</time>
      </trkpt>
      <trkpt lat="43.29867" lon="-0.51082">
        <ele>143.37</ele>
        <time>2017-02-11T08:31:50Z</time>
      </trkpt>
      <trkpt lat="43.29864" lon="-0.51096">
        <ele>143.37</ele>
        <time>2017-02-11T08:31:52Z</time>
      </trkpt>
      <trkpt lat="43.29863" lon="-0.51103">
        <ele>143.37</ele>
        <time>2017-02-11T08:31:53Z</time>
      </trkpt>
      <trkpt lat="43.29862" lon="-0.5111">
        <ele>143.37</ele>
        <time>2017-02-11T08:31:54Z</time>
      </trkpt>
      <trkpt lat="43.29862" lon="-0.51118">
        <ele>143.37</ele>
        <time>2017-02-11T08:31:55Z</time>
      </trkpt>
      <trkpt lat="43.29863" lon="-0.51125">
        <ele>143.37</ele>
        <time>2017-02-11T08:31:56Z</time>
      </trkpt>
      <trkpt lat="43.29865" lon="-0.5114">
        <ele>143.37</ele>
        <time>2017-02-11T08:31:58Z</time>
      </trkpt>
      <trkpt lat="43.29868" lon="-0.51154">
        <ele>142.89</ele>
        <time>2017-02-11T08:32:00Z</time>
      </trkpt>
      <trkpt lat="43.2987" lon="-0.51161">
        <ele>142.89</ele>
        <time>2017-02-11T08:32:01Z</time>
      </trkpt>
      <trkpt lat="43.29876" lon="-0.51173">
        <ele>142.89</ele>
        <time>2017-02-11T08:32:03Z</time>
      </trkpt>
      <trkpt lat="43.29879" lon="-0.51179">
        <ele>142.41</ele>
        <time>2017-02-11T08:32:04Z</time>
      </trkpt>
      <trkpt lat="43.29902" lon="-0.51216">
        <ele>141.45</ele>
        <time>2017-02-11T08:32:10Z</time>
      </trkpt>
      <trkpt lat="43.29904" lon="-0.51223">
        <ele>141.45</ele>
        <time>2017-02-11T08:32:11Z</time>
      </trkpt>
      <trkpt lat="43.29905" lon="-0.5123">
        <ele>141.45</ele>
        <time>2017-02-11T08:32:12Z</time>
      </trkpt>
      <trkpt lat="43.29904" lon="-0.51237">
        <ele>141.93</ele>
        <time>2017-02-11T08:32:13Z</time>
      </trkpt>
      <trkpt lat="43.29903" lon="-0.51243">
        <ele>141.93</ele>
        <time>2017-02-11T08:32:14Z</time>
      </trkpt>
      <trkpt lat="43.29902" lon="-0.5125">
        <ele>141.93</ele>
        <time>2017-02-11T08:32:15Z</time>
      </trkpt>
      <trkpt lat="43.299" lon="-0.51257">
        <ele>142.41</ele>
        <time>2017-02-11T08:32:16Z</time>
      </trkpt>
      <trkpt lat="43.29898" lon="-0.51265">
        <ele>142.41</ele>
        <time>2017-02-11T08:32:17Z</time>
      </trkpt>
      <trkpt lat="43.29896" lon="-0.51272">
        <ele>142.41</ele>
        <time>2017-02-11T08:32:18Z</time>
      </trkpt>
      <trkpt lat="43.29893" lon="-0.51278">
        <ele>142.41</ele>
        <time>2017-02-11T08:32:19Z</time>
      </trkpt>
      <trkpt lat="43.29889" lon="-0.51284">
        <ele>142.41</ele>
        <time>2017-02-11T08:32:20Z</time>
      </trkpt>
      <trkpt lat="43.29885" lon="-0.5129">
        <ele>142.41</ele>
        <time>2017-02-11T08:32:21Z</time>
      </trkpt>
      <trkpt lat="43.29846" lon="-0.5133">
        <ele>141.45</ele>
        <time>2017-02-11T08:32:30Z</time>
      </trkpt>
      <trkpt lat="43.29838" lon="-0.51339">
        <ele>141.45</ele>
        <time>2017-02-11T08:32:32Z</time>
      </trkpt>
      <trkpt lat="43.29834" lon="-0.51344">
        <ele>141.45</ele>
        <time>2017-02-11T08:32:33Z</time>
      </trkpt>
      <trkpt lat="43.29832" lon="-0.51348">
        <ele>141.45</ele>
        <time>2017-02-11T08:32:34Z</time>
      </trkpt>
      <trkpt lat="43.29829" lon="-0.51354">
        <ele>141.45</ele>
        <time>2017-02-11T08:32:35Z</time>
      </trkpt>
      <trkpt lat="43.29827" lon="-0.5136">
        <ele>141.45</ele>
        <time>2017-02-11T08:32:36Z</time>
      </trkpt>
      <trkpt lat="43.29826" lon="-0.51366">
        <ele>141.93</ele>
        <time>2017-02-11T08:32:37Z</time>
      </trkpt>
      <trkpt lat="43.29825" lon="-0.51372">
        <ele>141.45</ele>
        <time>2017-02-11T08:32:38Z</time>
      </trkpt>
      <trkpt lat="43.29804" lon="-0.51498">
        <ele>142.41</ele>
        <time>2017-02-11T08:32:57Z</time>
      </trkpt>
      <trkpt lat="43.29787" lon="-0.51627">
        <ele>144.82</ele>
        <time>2017-02-11T08:33:16Z</time>
      </trkpt>
      <trkpt lat="43.29785" lon="-0.51712">
        <ele>146.74</ele>
        <time>2017-02-11T08:33:32Z</time>
      </trkpt>
      <trkpt lat="43.29786" lon="-0.51796">
        <ele>150.1</ele>
        <time>2017-02-11T08:33:49Z</time>
      </trkpt>
      <trkpt lat="43.29792" lon="-0.51855">
        <ele>151.54</ele>
        <time>2017-02-11T08:34:03Z</time>
      </trkpt>
      <trkpt lat="43.29816" lon="-0.51876">
        <ele>150.58</ele>
        <time>2017-02-11T08:34:12Z</time>
      </trkpt>
      <trkpt lat="43.29846" lon="-0.51902">
        <ele>150.1</ele>
        <time>2017-02-11T08:34:20Z</time>
      </trkpt>
      <trkpt lat="43.29849" lon="-0.51906">
        <ele>150.58</ele>
        <time>2017-02-11T08:34:21Z</time>
      </trkpt>
      <trkpt lat="43.29871" lon="-0.5193">
        <ele>151.06</ele>
        <time>2017-02-11T08:34:27Z</time>
      </trkpt>
      <trkpt lat="43.29874" lon="-0.51934">
        <ele>151.06</ele>
        <time>2017-02-11T08:34:28Z</time>
      </trkpt>
      <trkpt lat="43.29892" lon="-0.51954">
        <ele>151.54</ele>
        <time>2017-02-11T08:34:33Z</time>
      </trkpt>
      <trkpt lat="43.29896" lon="-0.51958">
        <ele>151.54</ele>
        <time>2017-02-11T08:34:34Z</time>
      </trkpt>
      <trkpt lat="43.29922" lon="-0.51987">
        <ele>151.54</ele>
        <time>2017-02-11T08:34:41Z</time>
      </trkpt>
      <trkpt lat="43.29925" lon="-0.51991">
        <ele>151.54</ele>
        <time>2017-02-11T08:34:42Z</time>
      </trkpt>
      <trkpt lat="43.29932" lon="-0.52001">
        <ele>151.06</ele>
        <time>2017-02-11T08:34:44Z</time>
      </trkpt>
      <trkpt lat="43.29935" lon="-0.52006">
        <ele>151.06</ele>
        <time>2017-02-11T08:34:45Z</time>
      </trkpt>
      <trkpt lat="43.2994" lon="-0.52009">
        <ele>151.06</ele>
        <time>2017-02-11T08:34:46Z</time>
      </trkpt>
      <trkpt lat="43.29944" lon="-0.5201">
        <ele>151.54</ele>
        <time>2017-02-11T08:34:47Z</time>
      </trkpt>
      <trkpt lat="43.29949" lon="-0.5201">
        <ele>151.54</ele>
        <time>2017-02-11T08:34:48Z</time>
      </trkpt>
      <trkpt lat="43.29954" lon="-0.52009">
        <ele>151.54</ele>
        <time>2017-02-11T08:34:49Z</time>
      </trkpt>
      <trkpt lat="43.29958" lon="-0.52007">
        <ele>152.03</ele>
        <time>2017-02-11T08:34:50Z</time>
      </trkpt>
      <trkpt lat="43.29997" lon="-0.51993">
        <ele>154.43</ele>
        <time>2017-02-11T08:35:00Z</time>
      </trkpt>
      <trkpt lat="43.30001" lon="-0.51992">
        <ele>154.43</ele>
        <time>2017-02-11T08:35:01Z</time>
      </trkpt>
      <trkpt lat="43.30063" lon="-0.51983">
        <ele>151.54</ele>
        <time>2017-02-11T08:35:14Z</time>
      </trkpt>
      <trkpt lat="43.30088" lon="-0.51983">
        <ele>151.06</ele>
        <time>2017-02-11T08:35:18Z</time>
      </trkpt>
      <trkpt lat="43.30093" lon="-0.51984">
        <ele>151.06</ele>
        <time>2017-02-11T08:35:19Z</time>
      </trkpt>
      <trkpt lat="43.30099" lon="-0.51986">
        <ele>151.06</ele>
        <time>2017-02-11T08:35:20Z</time>
      </trkpt>
      <trkpt lat="43.30104" lon="-0.51989">
        <ele>151.54</ele>
        <time>2017-02-11T08:35:21Z</time>
      </trkpt>
      <trkpt lat="43.30108" lon="-0.51992">
        <ele>151.54</ele>
        <time>2017-02-11T08:35:22Z</time>
      </trkpt>
      <trkpt lat="43.30132" lon="-0.5201">
        <ele>154.43</ele>
        <time>2017-02-11T08:35:32Z</time>
      </trkpt>
      <trkpt lat="43.30136" lon="-0.5204">
        <ele>156.35</ele>
        <time>2017-02-11T08:35:45Z</time>
      </trkpt>
      <trkpt lat="43.3014" lon="-0.52069">
        <ele>159.24</ele>
        <time>2017-02-11T08:36:00Z</time>
      </trkpt>
      <trkpt lat="43.3014" lon="-0.52075">
        <ele>160.2</ele>
        <time>2017-02-11T08:36:03Z</time>
      </trkpt>
      <trkpt lat="43.3014" lon="-0.52077">
        <ele>160.68</ele>
        <time>2017-02-11T08:36:04Z</time>
      </trkpt>
      <trkpt lat="43.30144" lon="-0.52109">
        <ele>163.56</ele>
        <time>2017-02-11T08:36:21Z</time>
      </trkpt>
      <trkpt lat="43.30144" lon="-0.52124">
        <ele>165.48</ele>
        <time>2017-02-11T08:36:30Z</time>
      </trkpt>
      <trkpt lat="43.30144" lon="-0.52126">
        <ele>165.48</ele>
        <time>2017-02-11T08:36:31Z</time>
      </trkpt>
      <trkpt lat="43.30143" lon="-0.52128">
        <ele>165.96</ele>
        <time>2017-02-11T08:36:32Z</time>
      </trkpt>
      <trkpt lat="43.30143" lon="-0.52129">
        <ele>165.96</ele>
        <time>2017-02-11T08:36:33Z</time>
      </trkpt>
      <trkpt lat="43.30143" lon="-0.52131">
        <ele>165.96</ele>
        <time>2017-02-11T08:36:34Z</time>
      </trkpt>
      <trkpt lat="43.30142" lon="-0.52133">
        <ele>166.45</ele>
        <time>2017-02-11T08:36:35Z</time>
      </trkpt>
      <trkpt lat="43.30142" lon="-0.52135">
        <ele>166.45</ele>
        <time>2017-02-11T08:36:36Z</time>
      </trkpt>
      <trkpt lat="43.30142" lon="-0.52137">
        <ele>166.45</ele>
        <time>2017-02-11T08:36:37Z</time>
      </trkpt>
      <trkpt lat="43.30142" lon="-0.52139">
        <ele>166.93</ele>
        <time>2017-02-11T08:36:38Z</time>
      </trkpt>
      <trkpt lat="43.30142" lon="-0.5214">
        <ele>166.93</ele>
        <time>2017-02-11T08:36:39Z</time>
      </trkpt>
      <trkpt lat="43.30142" lon="-0.52142">
        <ele>166.93</ele>
        <time>2017-02-11T08:36:40Z</time>
      </trkpt>
      <trkpt lat="43.30142" lon="-0.52144">
        <ele>167.41</ele>
        <time>2017-02-11T08:36:41Z</time>
      </trkpt>
      <trkpt lat="43.30141" lon="-0.52162">
        <ele>168.85</ele>
        <time>2017-02-11T08:36:51Z</time>
      </trkpt>
      <trkpt lat="43.30139" lon="-0.52204">
        <ele>171.73</ele>
        <time>2017-02-11T08:37:08Z</time>
      </trkpt>
      <trkpt lat="43.30141" lon="-0.5225">
        <ele>174.62</ele>
        <time>2017-02-11T08:37:26Z</time>
      </trkpt>
      <trkpt lat="43.30144" lon="-0.52289">
        <ele>177.02</ele>
        <time>2017-02-11T08:37:42Z</time>
      </trkpt>
      <trkpt lat="43.30147" lon="-0.52326">
        <ele>178.94</ele>
        <time>2017-02-11T08:37:57Z</time>
      </trkpt>
      <trkpt lat="43.3015" lon="-0.52374">
        <ele>179.9</ele>
        <time>2017-02-11T08:38:16Z</time>
      </trkpt>
      <trkpt lat="43.3015" lon="-0.52408">
        <ele>182.31</ele>
        <time>2017-02-11T08:38:30Z</time>
      </trkpt>
      <trkpt lat="43.30137" lon="-0.52426">
        <ele>183.75</ele>
        <time>2017-02-11T08:38:40Z</time>
      </trkpt>
      <trkpt lat="43.30136" lon="-0.52428">
        <ele>183.75</ele>
        <time>2017-02-11T08:38:41Z</time>
      </trkpt>
      <trkpt lat="43.30135" lon="-0.5243">
        <ele>183.75</ele>
        <time>2017-02-11T08:38:42Z</time>
      </trkpt>
      <trkpt lat="43.30133" lon="-0.52432">
        <ele>184.23</ele>
        <time>2017-02-11T08:38:43Z</time>
      </trkpt>
      <trkpt lat="43.30132" lon="-0.52434">
        <ele>184.23</ele>
        <time>2017-02-11T08:38:44Z</time>
      </trkpt>
      <trkpt lat="43.3013" lon="-0.52435">
        <ele>183.75</ele>
        <time>2017-02-11T08:38:45Z</time>
      </trkpt>
      <trkpt lat="43.30128" lon="-0.52437">
        <ele>183.75</ele>
        <time>2017-02-11T08:38:46Z</time>
      </trkpt>
      <trkpt lat="43.30126" lon="-0.5244">
        <ele>183.27</ele>
        <time>2017-02-11T08:38:47Z</time>
      </trkpt>
      <trkpt lat="43.30124" lon="-0.52442">
        <ele>183.27</ele>
        <time>2017-02-11T08:38:48Z</time>
      </trkpt>
      <trkpt lat="43.30123" lon="-0.52446">
        <ele>183.27</ele>
        <time>2017-02-11T08:38:49Z</time>
      </trkpt>
      <trkpt lat="43.30122" lon="-0.52449">
        <ele>183.27</ele>
        <time>2017-02-11T08:38:50Z</time>
      </trkpt>
      <trkpt lat="43.30122" lon="-0.52452">
        <ele>183.75</ele>
        <time>2017-02-11T08:38:51Z</time>
      </trkpt>
      <trkpt lat="43.30121" lon="-0.52455">
        <ele>184.23</ele>
        <time>2017-02-11T08:38:52Z</time>
      </trkpt>
      <trkpt lat="43.30121" lon="-0.52459">
        <ele>184.23</ele>
        <time>2017-02-11T08:38:53Z</time>
      </trkpt>
      <trkpt lat="43.30118" lon="-0.52523">
        <ele>186.15</ele>
        <time>2017-02-11T08:39:11Z</time>
      </trkpt>
      <trkpt lat="43.30108" lon="-0.52571">
        <ele>190.48</ele>
        <time>2017-02-11T08:39:28Z</time>
      </trkpt>
      <trkpt lat="43.301" lon="-0.5261">
        <ele>192.88</ele>
        <time>2017-02-11T08:39:42Z</time>
      </trkpt>
      <trkpt lat="43.30086" lon="-0.52653">
        <ele>195.77</ele>
        <time>2017-02-11T08:39:59Z</time>
      </trkpt>
      <trkpt lat="43.30085" lon="-0.52655">
        <ele>196.25</ele>
        <time>2017-02-11T08:40:00Z</time>
      </trkpt>
      <trkpt lat="43.30084" lon="-0.52657">
        <ele>196.25</ele>
        <time>2017-02-11T08:40:01Z</time>
      </trkpt>
      <trkpt lat="43.30083" lon="-0.52659">
        <ele>196.73</ele>
        <time>2017-02-11T08:40:02Z</time>
      </trkpt>
      <trkpt lat="43.30083" lon="-0.5266">
        <ele>196.73</ele>
        <time>2017-02-11T08:40:03Z</time>
      </trkpt>
      <trkpt lat="43.30082" lon="-0.52662">
        <ele>197.21</ele>
        <time>2017-02-11T08:40:04Z</time>
      </trkpt>
      <trkpt lat="43.3007" lon="-0.5269">
        <ele>201.05</ele>
        <time>2017-02-11T08:40:20Z</time>
      </trkpt>
      <trkpt lat="43.30054" lon="-0.52725">
        <ele>203.94</ele>
        <time>2017-02-11T08:40:39Z</time>
      </trkpt>
      <trkpt lat="43.3003" lon="-0.52771">
        <ele>204.42</ele>
        <time>2017-02-11T08:40:56Z</time>
      </trkpt>
      <trkpt lat="43.30005" lon="-0.52814">
        <ele>206.82</ele>
        <time>2017-02-11T08:41:14Z</time>
      </trkpt>
      <trkpt lat="43.29987" lon="-0.52839">
        <ele>209.22</ele>
        <time>2017-02-11T08:41:30Z</time>
      </trkpt>
      <trkpt lat="43.29968" lon="-0.52866">
        <ele>212.59</ele>
        <time>2017-02-11T08:41:48Z</time>
      </trkpt>
      <trkpt lat="43.29952" lon="-0.52888">
        <ele>216.91</ele>
        <time>2017-02-11T08:42:04Z</time>
      </trkpt>
      <trkpt lat="43.29952" lon="-0.5289">
        <ele>217.4</ele>
        <time>2017-02-11T08:42:05Z</time>
      </trkpt>
      <trkpt lat="43.29953" lon="-0.52892">
        <ele>217.88</ele>
        <time>2017-02-11T08:42:06Z</time>
      </trkpt>
      <trkpt lat="43.29961" lon="-0.52894">
        <ele>217.88</ele>
        <time>2017-02-11T08:42:12Z</time>
      </trkpt>
      <trkpt lat="43.29985" lon="-0.52907">
        <ele>218.84</ele>
        <time>2017-02-11T08:42:28Z</time>
      </trkpt>
      <trkpt lat="43.30004" lon="-0.52916">
        <ele>221.72</ele>
        <time>2017-02-11T08:42:43Z</time>
      </trkpt>
      <trkpt lat="43.30026" lon="-0.52928">
        <ele>225.09</ele>
        <time>2017-02-11T08:43:00Z</time>
      </trkpt>
      <trkpt lat="43.30051" lon="-0.5294">
        <ele>227.49</ele>
        <time>2017-02-11T08:43:18Z</time>
      </trkpt>
      <trkpt lat="43.30064" lon="-0.52947">
        <ele>228.93</ele>
        <time>2017-02-11T08:43:29Z</time>
      </trkpt>
      <trkpt lat="43.30087" lon="-0.52958">
        <ele>231.33</ele>
        <time>2017-02-11T08:43:47Z</time>
      </trkpt>
      <trkpt lat="43.30099" lon="-0.52973">
        <ele>233.26</ele>
        <time>2017-02-11T08:44:00Z</time>
      </trkpt>
      <trkpt lat="43.30083" lon="-0.52985">
        <ele>233.74</ele>
        <time>2017-02-11T08:44:12Z</time>
      </trkpt>
      <trkpt lat="43.3005" lon="-0.53012">
        <ele>234.7</ele>
        <time>2017-02-11T08:44:29Z</time>
      </trkpt>
      <trkpt lat="43.30019" lon="-0.53036">
        <ele>236.62</ele>
        <time>2017-02-11T08:44:46Z</time>
      </trkpt>
      <trkpt lat="43.29988" lon="-0.53058">
        <ele>238.06</ele>
        <time>2017-02-11T08:45:01Z</time>
      </trkpt>
      <trkpt lat="43.29952" lon="-0.53082">
        <ele>239.51</ele>
        <time>2017-02-11T08:45:18Z</time>
      </trkpt>
      <trkpt lat="43.29927" lon="-0.53101">
        <ele>240.95</ele>
        <time>2017-02-11T08:45:31Z</time>
      </trkpt>
      <trkpt lat="43.29926" lon="-0.53103">
        <ele>241.43</ele>
        <time>2017-02-11T08:45:32Z</time>
      </trkpt>
      <trkpt lat="43.29926" lon="-0.53106">
        <ele>241.43</ele>
        <time>2017-02-11T08:45:33Z</time>
      </trkpt>
      <trkpt lat="43.29927" lon="-0.53109">
        <ele>241.91</ele>
        <time>2017-02-11T08:45:34Z</time>
      </trkpt>
      <trkpt lat="43.29928" lon="-0.5311">
        <ele>241.91</ele>
        <time>2017-02-11T08:45:35Z</time>
      </trkpt>
      <trkpt lat="43.2993" lon="-0.53111">
        <ele>241.91</ele>
        <time>2017-02-11T08:45:36Z</time>
      </trkpt>
      <trkpt lat="43.29931" lon="-0.53113">
        <ele>241.91</ele>
        <time>2017-02-11T08:45:37Z</time>
      </trkpt>
      <trkpt lat="43.29934" lon="-0.53114">
        <ele>242.39</ele>
        <time>2017-02-11T08:45:38Z</time>
      </trkpt>
      <trkpt lat="43.29936" lon="-0.53115">
        <ele>242.39</ele>
        <time>2017-02-11T08:45:39Z</time>
      </trkpt>
      <trkpt lat="43.29965" lon="-0.53132">
        <ele>243.83</ele>
        <time>2017-02-11T08:45:53Z</time>
      </trkpt>
      <trkpt lat="43.30002" lon="-0.53148">
        <ele>245.27</ele>
        <time>2017-02-11T08:46:11Z</time>
      </trkpt>
      <trkpt lat="43.30045" lon="-0.53169">
        <ele>245.75</ele>
        <time>2017-02-11T08:46:30Z</time>
      </trkpt>
      <trkpt lat="43.30087" lon="-0.53188">
        <ele>243.35</ele>
        <time>2017-02-11T08:46:41Z</time>
      </trkpt>
      <trkpt lat="43.30166" lon="-0.53224">
        <ele>237.1</ele>
        <time>2017-02-11T08:46:53Z</time>
      </trkpt>
      <trkpt lat="43.30252" lon="-0.53304">
        <ele>233.74</ele>
        <time>2017-02-11T08:47:06Z</time>
      </trkpt>
      <trkpt lat="43.30261" lon="-0.53316">
        <ele>234.22</ele>
        <time>2017-02-11T08:47:08Z</time>
      </trkpt>
      <trkpt lat="43.30265" lon="-0.5332">
        <ele>233.74</ele>
        <time>2017-02-11T08:47:09Z</time>
      </trkpt>
      <trkpt lat="43.30269" lon="-0.53323">
        <ele>233.74</ele>
        <time>2017-02-11T08:47:10Z</time>
      </trkpt>
      <trkpt lat="43.30274" lon="-0.53327">
        <ele>234.22</ele>
        <time>2017-02-11T08:47:11Z</time>
      </trkpt>
      <trkpt lat="43.30278" lon="-0.5333">
        <ele>234.22</ele>
        <time>2017-02-11T08:47:12Z</time>
      </trkpt>
      <trkpt lat="43.30281" lon="-0.53334">
        <ele>234.22</ele>
        <time>2017-02-11T08:47:13Z</time>
      </trkpt>
      <trkpt lat="43.30283" lon="-0.53337">
        <ele>234.7</ele>
        <time>2017-02-11T08:47:14Z</time>
      </trkpt>
      <trkpt lat="43.30286" lon="-0.5334">
        <ele>234.7</ele>
        <time>2017-02-11T08:47:15Z</time>
      </trkpt>
      <trkpt lat="43.30288" lon="-0.53343">
        <ele>235.18</ele>
        <time>2017-02-11T08:47:16Z</time>
      </trkpt>
      <trkpt lat="43.30314" lon="-0.53381">
        <ele>236.14</ele>
        <time>2017-02-11T08:47:29Z</time>
      </trkpt>
      <trkpt lat="43.30343" lon="-0.5342">
        <ele>238.06</ele>
        <time>2017-02-11T08:47:43Z</time>
      </trkpt>
      <trkpt lat="43.30369" lon="-0.53453">
        <ele>239.99</ele>
        <time>2017-02-11T08:47:57Z</time>
      </trkpt>
      <trkpt lat="43.30399" lon="-0.53495">
        <ele>241.91</ele>
        <time>2017-02-11T08:48:13Z</time>
      </trkpt>
      <trkpt lat="43.30418" lon="-0.53517">
        <ele>242.87</ele>
        <time>2017-02-11T08:48:25Z</time>
      </trkpt>
      <trkpt lat="43.30438" lon="-0.53538">
        <ele>243.83</ele>
        <time>2017-02-11T08:48:37Z</time>
      </trkpt>
      <trkpt lat="43.30439" lon="-0.5354">
        <ele>243.35</ele>
        <time>2017-02-11T08:48:38Z</time>
      </trkpt>
      <trkpt lat="43.30463" lon="-0.5358">
        <ele>245.75</ele>
        <time>2017-02-11T08:48:54Z</time>
      </trkpt>
      <trkpt lat="43.30488" lon="-0.5359">
        <ele>247.68</ele>
        <time>2017-02-11T08:49:09Z</time>
      </trkpt>
      <trkpt lat="43.30491" lon="-0.53586">
        <ele>247.2</ele>
        <time>2017-02-11T08:49:10Z</time>
      </trkpt>
      <trkpt lat="43.30495" lon="-0.53581">
        <ele>246.23</ele>
        <time>2017-02-11T08:49:11Z</time>
      </trkpt>
      <trkpt lat="43.30533" lon="-0.53516">
        <ele>239.02</ele>
        <time>2017-02-11T08:49:20Z</time>
      </trkpt>
      <trkpt lat="43.30552" lon="-0.53479">
        <ele>232.3</ele>
        <time>2017-02-11T08:49:28Z</time>
      </trkpt>
      <trkpt lat="43.30555" lon="-0.53478">
        <ele>231.81</ele>
        <time>2017-02-11T08:49:29Z</time>
      </trkpt>
      <trkpt lat="43.30558" lon="-0.53477">
        <ele>231.33</ele>
        <time>2017-02-11T08:49:30Z</time>
      </trkpt>
      <trkpt lat="43.30561" lon="-0.53478">
        <ele>230.85</ele>
        <time>2017-02-11T08:49:31Z</time>
      </trkpt>
      <trkpt lat="43.30565" lon="-0.5348">
        <ele>230.85</ele>
        <time>2017-02-11T08:49:32Z</time>
      </trkpt>
      <trkpt lat="43.3058" lon="-0.53485">
        <ele>228.93</ele>
        <time>2017-02-11T08:49:35Z</time>
      </trkpt>
      <trkpt lat="43.30643" lon="-0.53508">
        <ele>222.2</ele>
        <time>2017-02-11T08:49:43Z</time>
      </trkpt>
      <trkpt lat="43.30674" lon="-0.53521">
        <ele>219.32</ele>
        <time>2017-02-11T08:49:48Z</time>
      </trkpt>
      <trkpt lat="43.30679" lon="-0.53522">
        <ele>218.84</ele>
        <time>2017-02-11T08:49:49Z</time>
      </trkpt>
      <trkpt lat="43.30684" lon="-0.53522">
        <ele>217.88</ele>
        <time>2017-02-11T08:49:50Z</time>
      </trkpt>
      <trkpt lat="43.30687" lon="-0.53519">
        <ele>217.4</ele>
        <time>2017-02-11T08:49:51Z</time>
      </trkpt>
      <trkpt lat="43.30691" lon="-0.53514">
        <ele>217.4</ele>
        <time>2017-02-11T08:49:52Z</time>
      </trkpt>
      <trkpt lat="43.30694" lon="-0.5351">
        <ele>216.91</ele>
        <time>2017-02-11T08:49:53Z</time>
      </trkpt>
      <trkpt lat="43.3072" lon="-0.53469">
        <ele>214.99</ele>
        <time>2017-02-11T08:50:04Z</time>
      </trkpt>
      <trkpt lat="43.30723" lon="-0.53465">
        <ele>214.99</ele>
        <time>2017-02-11T08:50:05Z</time>
      </trkpt>
      <trkpt lat="43.30727" lon="-0.53461">
        <ele>214.51</ele>
        <time>2017-02-11T08:50:06Z</time>
      </trkpt>
      <trkpt lat="43.3073" lon="-0.53457">
        <ele>214.51</ele>
        <time>2017-02-11T08:50:07Z</time>
      </trkpt>
      <trkpt lat="43.30783" lon="-0.53396">
        <ele>208.26</ele>
        <time>2017-02-11T08:50:18Z</time>
      </trkpt>
      <trkpt lat="43.30786" lon="-0.5339">
        <ele>207.3</ele>
        <time>2017-02-11T08:50:19Z</time>
      </trkpt>
      <trkpt lat="43.30787" lon="-0.53383">
        <ele>206.82</ele>
        <time>2017-02-11T08:50:20Z</time>
      </trkpt>
      <trkpt lat="43.30787" lon="-0.53377">
        <ele>205.86</ele>
        <time>2017-02-11T08:50:21Z</time>
      </trkpt>
      <trkpt lat="43.30787" lon="-0.53371">
        <ele>204.9</ele>
        <time>2017-02-11T08:50:22Z</time>
      </trkpt>
      <trkpt lat="43.3079" lon="-0.53365">
        <ele>203.94</ele>
        <time>2017-02-11T08:50:23Z</time>
      </trkpt>
      <trkpt lat="43.30794" lon="-0.5336">
        <ele>203.46</ele>
        <time>2017-02-11T08:50:24Z</time>
      </trkpt>
      <trkpt lat="43.30799" lon="-0.53354">
        <ele>202.49</ele>
        <time>2017-02-11T08:50:25Z</time>
      </trkpt>
      <trkpt lat="43.30815" lon="-0.53336">
        <ele>200.09</ele>
        <time>2017-02-11T08:50:28Z</time>
      </trkpt>
      <trkpt lat="43.30821" lon="-0.53331">
        <ele>199.13</ele>
        <time>2017-02-11T08:50:29Z</time>
      </trkpt>
      <trkpt lat="43.30827" lon="-0.53326">
        <ele>198.17</ele>
        <time>2017-02-11T08:50:30Z</time>
      </trkpt>
      <trkpt lat="43.30848" lon="-0.53312">
        <ele>195.28</ele>
        <time>2017-02-11T08:50:33Z</time>
      </trkpt>
      <trkpt lat="43.30885" lon="-0.53278">
        <ele>192.88</ele>
        <time>2017-02-11T08:50:39Z</time>
      </trkpt>
      <trkpt lat="43.30891" lon="-0.53273">
        <ele>192.88</ele>
        <time>2017-02-11T08:50:40Z</time>
      </trkpt>
      <trkpt lat="43.30897" lon="-0.53269">
        <ele>192.4</ele>
        <time>2017-02-11T08:50:41Z</time>
      </trkpt>
      <trkpt lat="43.30903" lon="-0.53265">
        <ele>192.4</ele>
        <time>2017-02-11T08:50:42Z</time>
      </trkpt>
      <trkpt lat="43.30909" lon="-0.5326">
        <ele>191.92</ele>
        <time>2017-02-11T08:50:43Z</time>
      </trkpt>
      <trkpt lat="43.30915" lon="-0.53255">
        <ele>191.44</ele>
        <time>2017-02-11T08:50:44Z</time>
      </trkpt>
      <trkpt lat="43.3092" lon="-0.53249">
        <ele>190.96</ele>
        <time>2017-02-11T08:50:45Z</time>
      </trkpt>
      <trkpt lat="43.30924" lon="-0.53243">
        <ele>190</ele>
        <time>2017-02-11T08:50:46Z</time>
      </trkpt>
      <trkpt lat="43.30928" lon="-0.53238">
        <ele>189.52</ele>
        <time>2017-02-11T08:50:47Z</time>
      </trkpt>
      <trkpt lat="43.30932" lon="-0.53234">
        <ele>188.56</ele>
        <time>2017-02-11T08:50:48Z</time>
      </trkpt>
      <trkpt lat="43.30945" lon="-0.53224">
        <ele>186.15</ele>
        <time>2017-02-11T08:50:51Z</time>
      </trkpt>
      <trkpt lat="43.3095" lon="-0.53222">
        <ele>185.67</ele>
        <time>2017-02-11T08:50:52Z</time>
      </trkpt>
      <trkpt lat="43.30954" lon="-0.5322">
        <ele>184.71</ele>
        <time>2017-02-11T08:50:53Z</time>
      </trkpt>
      <trkpt lat="43.30963" lon="-0.53214">
        <ele>183.27</ele>
        <time>2017-02-11T08:50:55Z</time>
      </trkpt>
      <trkpt lat="43.30968" lon="-0.53211">
        <ele>182.79</ele>
        <time>2017-02-11T08:50:56Z</time>
      </trkpt>
      <trkpt lat="43.30973" lon="-0.53207">
        <ele>182.31</ele>
        <time>2017-02-11T08:50:57Z</time>
      </trkpt>
      <trkpt lat="43.30989" lon="-0.53196">
        <ele>181.35</ele>
        <time>2017-02-11T08:51:00Z</time>
      </trkpt>
      <trkpt lat="43.30994" lon="-0.5319">
        <ele>180.87</ele>
        <time>2017-02-11T08:51:01Z</time>
      </trkpt>
      <trkpt lat="43.31015" lon="-0.53163">
        <ele>179.42</ele>
        <time>2017-02-11T08:51:06Z</time>
      </trkpt>
      <trkpt lat="43.3102" lon="-0.53158">
        <ele>179.42</ele>
        <time>2017-02-11T08:51:07Z</time>
      </trkpt>
      <trkpt lat="43.31026" lon="-0.53154">
        <ele>178.94</ele>
        <time>2017-02-11T08:51:08Z</time>
      </trkpt>
      <trkpt lat="43.31038" lon="-0.53146">
        <ele>177.98</ele>
        <time>2017-02-11T08:51:10Z</time>
      </trkpt>
      <trkpt lat="43.31068" lon="-0.53129">
        <ele>176.54</ele>
        <time>2017-02-11T08:51:15Z</time>
      </trkpt>
      <trkpt lat="43.31117" lon="-0.53091">
        <ele>173.17</ele>
        <time>2017-02-11T08:51:23Z</time>
      </trkpt>
      <trkpt lat="43.3114" lon="-0.53063">
        <ele>171.25</ele>
        <time>2017-02-11T08:51:27Z</time>
      </trkpt>
      <trkpt lat="43.3115" lon="-0.53051">
        <ele>170.29</ele>
        <time>2017-02-11T08:51:29Z</time>
      </trkpt>
      <trkpt lat="43.3119" lon="-0.53014">
        <ele>168.85</ele>
        <time>2017-02-11T08:51:37Z</time>
      </trkpt>
      <trkpt lat="43.31199" lon="-0.53004">
        <ele>167.89</ele>
        <time>2017-02-11T08:51:39Z</time>
      </trkpt>
      <trkpt lat="43.31265" lon="-0.52918">
        <ele>160.2</ele>
        <time>2017-02-11T08:51:52Z</time>
      </trkpt>
      <trkpt lat="43.31288" lon="-0.52889">
        <ele>157.31</ele>
        <time>2017-02-11T08:51:56Z</time>
      </trkpt>
      <trkpt lat="43.31303" lon="-0.52872">
        <ele>155.39</ele>
        <time>2017-02-11T08:52:01Z</time>
      </trkpt>
      <trkpt lat="43.31304" lon="-0.52871">
        <ele>154.91</ele>
        <time>2017-02-11T08:52:02Z</time>
      </trkpt>
      <trkpt lat="43.31304" lon="-0.52868">
        <ele>154.43</ele>
        <time>2017-02-11T08:52:03Z</time>
      </trkpt>
      <trkpt lat="43.31304" lon="-0.52866">
        <ele>154.43</ele>
        <time>2017-02-11T08:52:04Z</time>
      </trkpt>
      <trkpt lat="43.31304" lon="-0.52864">
        <ele>153.95</ele>
        <time>2017-02-11T08:52:05Z</time>
      </trkpt>
      <trkpt lat="43.31304" lon="-0.52861">
        <ele>153.95</ele>
        <time>2017-02-11T08:52:06Z</time>
      </trkpt>
      <trkpt lat="43.31305" lon="-0.52858">
        <ele>153.95</ele>
        <time>2017-02-11T08:52:07Z</time>
      </trkpt>
      <trkpt lat="43.31307" lon="-0.52855">
        <ele>153.95</ele>
        <time>2017-02-11T08:52:08Z</time>
      </trkpt>
      <trkpt lat="43.31309" lon="-0.52852">
        <ele>153.47</ele>
        <time>2017-02-11T08:52:09Z</time>
      </trkpt>
      <trkpt lat="43.31311" lon="-0.52851">
        <ele>153.47</ele>
        <time>2017-02-11T08:52:10Z</time>
      </trkpt>
      <trkpt lat="43.31313" lon="-0.52849">
        <ele>153.47</ele>
        <time>2017-02-11T08:52:11Z</time>
      </trkpt>
      <trkpt lat="43.31316" lon="-0.52848">
        <ele>153.47</ele>
        <time>2017-02-11T08:52:12Z</time>
      </trkpt>
      <trkpt lat="43.31318" lon="-0.52847">
        <ele>153.47</ele>
        <time>2017-02-11T08:52:13Z</time>
      </trkpt>
      <trkpt lat="43.31321" lon="-0.52846">
        <ele>153.47</ele>
        <time>2017-02-11T08:52:14Z</time>
      </trkpt>
      <trkpt lat="43.31324" lon="-0.52845">
        <ele>152.99</ele>
        <time>2017-02-11T08:52:15Z</time>
      </trkpt>
      <trkpt lat="43.31341" lon="-0.52826">
        <ele>152.03</ele>
        <time>2017-02-11T08:52:21Z</time>
      </trkpt>
      <trkpt lat="43.31348" lon="-0.52817">
        <ele>151.54</ele>
        <time>2017-02-11T08:52:23Z</time>
      </trkpt>
      <trkpt lat="43.31352" lon="-0.52811">
        <ele>151.06</ele>
        <time>2017-02-11T08:52:24Z</time>
      </trkpt>
      <trkpt lat="43.3136" lon="-0.52798">
        <ele>150.1</ele>
        <time>2017-02-11T08:52:26Z</time>
      </trkpt>
      <trkpt lat="43.31365" lon="-0.52792">
        <ele>149.62</ele>
        <time>2017-02-11T08:52:27Z</time>
      </trkpt>
      <trkpt lat="43.31378" lon="-0.52774">
        <ele>148.18</ele>
        <time>2017-02-11T08:52:30Z</time>
      </trkpt>
      <trkpt lat="43.31448" lon="-0.52702">
        <ele>142.41</ele>
        <time>2017-02-11T08:52:43Z</time>
      </trkpt>
      <trkpt lat="43.31457" lon="-0.52689">
        <ele>142.41</ele>
        <time>2017-02-11T08:52:45Z</time>
      </trkpt>
      <trkpt lat="43.31524" lon="-0.52614">
        <ele>139.05</ele>
        <time>2017-02-11T08:52:59Z</time>
      </trkpt>
      <trkpt lat="43.31569" lon="-0.52568">
        <ele>136.64</ele>
        <time>2017-02-11T08:53:08Z</time>
      </trkpt>
      <trkpt lat="43.31573" lon="-0.52563">
        <ele>136.64</ele>
        <time>2017-02-11T08:53:09Z</time>
      </trkpt>
      <trkpt lat="43.31576" lon="-0.52558">
        <ele>136.16</ele>
        <time>2017-02-11T08:53:10Z</time>
      </trkpt>
      <trkpt lat="43.31585" lon="-0.52541">
        <ele>135.68</ele>
        <time>2017-02-11T08:53:13Z</time>
      </trkpt>
      <trkpt lat="43.31624" lon="-0.52457">
        <ele>134.24</ele>
        <time>2017-02-11T08:53:27Z</time>
      </trkpt>
      <trkpt lat="43.31648" lon="-0.52404">
        <ele>133.76</ele>
        <time>2017-02-11T08:53:39Z</time>
      </trkpt>
      <trkpt lat="43.31655" lon="-0.524">
        <ele>134.24</ele>
        <time>2017-02-11T08:53:42Z</time>
      </trkpt>
      <trkpt lat="43.31658" lon="-0.52402">
        <ele>134.24</ele>
        <time>2017-02-11T08:53:43Z</time>
      </trkpt>
      <trkpt lat="43.3166" lon="-0.52403">
        <ele>134.24</ele>
        <time>2017-02-11T08:53:44Z</time>
      </trkpt>
      <trkpt lat="43.31663" lon="-0.52406">
        <ele>133.76</ele>
        <time>2017-02-11T08:53:45Z</time>
      </trkpt>
      <trkpt lat="43.31666" lon="-0.52409">
        <ele>133.76</ele>
        <time>2017-02-11T08:53:46Z</time>
      </trkpt>
      <trkpt lat="43.31711" lon="-0.52447">
        <ele>133.28</ele>
        <time>2017-02-11T08:53:57Z</time>
      </trkpt>
      <trkpt lat="43.31734" lon="-0.52462">
        <ele>132.8</ele>
        <time>2017-02-11T08:54:02Z</time>
      </trkpt>
      <trkpt lat="43.31739" lon="-0.52464">
        <ele>132.8</ele>
        <time>2017-02-11T08:54:03Z</time>
      </trkpt>
      <trkpt lat="43.31749" lon="-0.52467">
        <ele>132.8</ele>
        <time>2017-02-11T08:54:05Z</time>
      </trkpt>
      <trkpt lat="43.31763" lon="-0.52469">
        <ele>132.8</ele>
        <time>2017-02-11T08:54:08Z</time>
      </trkpt>
      <trkpt lat="43.31768" lon="-0.5247">
        <ele>133.28</ele>
        <time>2017-02-11T08:54:09Z</time>
      </trkpt>
      <trkpt lat="43.31773" lon="-0.52471">
        <ele>133.28</ele>
        <time>2017-02-11T08:54:10Z</time>
      </trkpt>
      <trkpt lat="43.31777" lon="-0.52472">
        <ele>133.76</ele>
        <time>2017-02-11T08:54:11Z</time>
      </trkpt>
      <trkpt lat="43.31781" lon="-0.52474">
        <ele>133.76</ele>
        <time>2017-02-11T08:54:12Z</time>
      </trkpt>
      <trkpt lat="43.31785" lon="-0.52476">
        <ele>133.76</ele>
        <time>2017-02-11T08:54:13Z</time>
      </trkpt>
      <trkpt lat="43.31789" lon="-0.52478">
        <ele>133.76</ele>
        <time>2017-02-11T08:54:14Z</time>
      </trkpt>
      <trkpt lat="43.31859" lon="-0.52508">
        <ele>133.76</ele>
        <time>2017-02-11T08:54:29Z</time>
      </trkpt>
      <trkpt lat="43.31863" lon="-0.5251">
        <ele>133.76</ele>
        <time>2017-02-11T08:54:30Z</time>
      </trkpt>
      <trkpt lat="43.31868" lon="-0.52513">
        <ele>133.76</ele>
        <time>2017-02-11T08:54:31Z</time>
      </trkpt>
      <trkpt lat="43.31873" lon="-0.52516">
        <ele>133.76</ele>
        <time>2017-02-11T08:54:32Z</time>
      </trkpt>
      <trkpt lat="43.31877" lon="-0.5252">
        <ele>133.28</ele>
        <time>2017-02-11T08:54:33Z</time>
      </trkpt>
      <trkpt lat="43.3188" lon="-0.52524">
        <ele>133.76</ele>
        <time>2017-02-11T08:54:34Z</time>
      </trkpt>
      <trkpt lat="43.31897" lon="-0.52538">
        <ele>133.76</ele>
        <time>2017-02-11T08:54:38Z</time>
      </trkpt>
      <trkpt lat="43.31901" lon="-0.52543">
        <ele>133.76</ele>
        <time>2017-02-11T08:54:39Z</time>
      </trkpt>
      <trkpt lat="43.31907" lon="-0.52552">
        <ele>134.24</ele>
        <time>2017-02-11T08:54:41Z</time>
      </trkpt>
      <trkpt lat="43.31911" lon="-0.52556">
        <ele>134.24</ele>
        <time>2017-02-11T08:54:42Z</time>
      </trkpt>
      <trkpt lat="43.31914" lon="-0.5256">
        <ele>134.72</ele>
        <time>2017-02-11T08:54:43Z</time>
      </trkpt>
      <trkpt lat="43.31917" lon="-0.52565">
        <ele>134.72</ele>
        <time>2017-02-11T08:54:44Z</time>
      </trkpt>
      <trkpt lat="43.3192" lon="-0.5257">
        <ele>134.72</ele>
        <time>2017-02-11T08:54:45Z</time>
      </trkpt>
      <trkpt lat="43.31927" lon="-0.52579">
        <ele>134.72</ele>
        <time>2017-02-11T08:54:47Z</time>
      </trkpt>
      <trkpt lat="43.3193" lon="-0.52585">
        <ele>134.72</ele>
        <time>2017-02-11T08:54:48Z</time>
      </trkpt>
      <trkpt lat="43.31932" lon="-0.52591">
        <ele>134.24</ele>
        <time>2017-02-11T08:54:49Z</time>
      </trkpt>
      <trkpt lat="43.31933" lon="-0.52598">
        <ele>134.24</ele>
        <time>2017-02-11T08:54:50Z</time>
      </trkpt>
      <trkpt lat="43.31934" lon="-0.52604">
        <ele>134.24</ele>
        <time>2017-02-11T08:54:51Z</time>
      </trkpt>
      <trkpt lat="43.31933" lon="-0.52611">
        <ele>134.24</ele>
        <time>2017-02-11T08:54:52Z</time>
      </trkpt>
      <trkpt lat="43.31933" lon="-0.52618">
        <ele>134.24</ele>
        <time>2017-02-11T08:54:53Z</time>
      </trkpt>
      <trkpt lat="43.31931" lon="-0.52624">
        <ele>134.24</ele>
        <time>2017-02-11T08:54:54Z</time>
      </trkpt>
      <trkpt lat="43.3193" lon="-0.5263">
        <ele>134.24</ele>
        <time>2017-02-11T08:54:55Z</time>
      </trkpt>
      <trkpt lat="43.31928" lon="-0.52636">
        <ele>134.24</ele>
        <time>2017-02-11T08:54:56Z</time>
      </trkpt>
      <trkpt lat="43.31925" lon="-0.52642">
        <ele>134.24</ele>
        <time>2017-02-11T08:54:57Z</time>
      </trkpt>
      <trkpt lat="43.31922" lon="-0.52647">
        <ele>134.24</ele>
        <time>2017-02-11T08:54:58Z</time>
      </trkpt>
      <trkpt lat="43.31914" lon="-0.5267">
        <ele>134.24</ele>
        <time>2017-02-11T08:55:02Z</time>
      </trkpt>
      <trkpt lat="43.31914" lon="-0.52676">
        <ele>134.24</ele>
        <time>2017-02-11T08:55:03Z</time>
      </trkpt>
      <trkpt lat="43.31913" lon="-0.52682">
        <ele>134.24</ele>
        <time>2017-02-11T08:55:04Z</time>
      </trkpt>
      <trkpt lat="43.31914" lon="-0.52687">
        <ele>134.24</ele>
        <time>2017-02-11T08:55:05Z</time>
      </trkpt>
      <trkpt lat="43.31915" lon="-0.52693">
        <ele>134.24</ele>
        <time>2017-02-11T08:55:06Z</time>
      </trkpt>
      <trkpt lat="43.31917" lon="-0.52698">
        <ele>134.24</ele>
        <time>2017-02-11T08:55:07Z</time>
      </trkpt>
      <trkpt lat="43.31937" lon="-0.52787">
        <ele>133.28</ele>
        <time>2017-02-11T08:55:22Z</time>
      </trkpt>
      <trkpt lat="43.3195" lon="-0.52835">
        <ele>133.28</ele>
        <time>2017-02-11T08:55:30Z</time>
      </trkpt>
      <trkpt lat="43.31951" lon="-0.52842">
        <ele>133.28</ele>
        <time>2017-02-11T08:55:31Z</time>
      </trkpt>
      <trkpt lat="43.31961" lon="-0.52878">
        <ele>132.8</ele>
        <time>2017-02-11T08:55:37Z</time>
      </trkpt>
      <trkpt lat="43.31966" lon="-0.52889">
        <ele>132.8</ele>
        <time>2017-02-11T08:55:39Z</time>
      </trkpt>
      <trkpt lat="43.31981" lon="-0.52919">
        <ele>132.8</ele>
        <time>2017-02-11T08:55:45Z</time>
      </trkpt>
      <trkpt lat="43.3201" lon="-0.52976">
        <ele>133.28</ele>
        <time>2017-02-11T08:55:56Z</time>
      </trkpt>
      <trkpt lat="43.32013" lon="-0.52981">
        <ele>133.28</ele>
        <time>2017-02-11T08:55:57Z</time>
      </trkpt>
      <trkpt lat="43.32028" lon="-0.53001">
        <ele>134.72</ele>
        <time>2017-02-11T08:56:02Z</time>
      </trkpt>
      <trkpt lat="43.32047" lon="-0.53024">
        <ele>135.68</ele>
        <time>2017-02-11T08:56:08Z</time>
      </trkpt>
      <trkpt lat="43.32087" lon="-0.53076">
        <ele>137.13</ele>
        <time>2017-02-11T08:56:23Z</time>
      </trkpt>
      <trkpt lat="43.32106" lon="-0.53137">
        <ele>138.09</ele>
        <time>2017-02-11T08:56:38Z</time>
      </trkpt>
      <trkpt lat="43.32125" lon="-0.53211">
        <ele>139.53</ele>
        <time>2017-02-11T08:56:56Z</time>
      </trkpt>
      <trkpt lat="43.32142" lon="-0.53261">
        <ele>143.37</ele>
        <time>2017-02-11T08:57:11Z</time>
      </trkpt>
      <trkpt lat="43.32171" lon="-0.53312">
        <ele>145.78</ele>
        <time>2017-02-11T08:57:26Z</time>
      </trkpt>
      <trkpt lat="43.322" lon="-0.53385">
        <ele>146.74</ele>
        <time>2017-02-11T08:57:43Z</time>
      </trkpt>
      <trkpt lat="43.32214" lon="-0.53436">
        <ele>144.82</ele>
        <time>2017-02-11T08:57:51Z</time>
      </trkpt>
      <trkpt lat="43.32216" lon="-0.53443">
        <ele>144.34</ele>
        <time>2017-02-11T08:57:52Z</time>
      </trkpt>
      <trkpt lat="43.32251" lon="-0.5352">
        <ele>143.85</ele>
        <time>2017-02-11T08:58:06Z</time>
      </trkpt>
      <trkpt lat="43.32277" lon="-0.5358">
        <ele>142.41</ele>
        <time>2017-02-11T08:58:16Z</time>
      </trkpt>
      <trkpt lat="43.32322" lon="-0.53691">
        <ele>138.09</ele>
        <time>2017-02-11T08:58:30Z</time>
      </trkpt>
      <trkpt lat="43.32326" lon="-0.537">
        <ele>138.09</ele>
        <time>2017-02-11T08:58:31Z</time>
      </trkpt>
      <trkpt lat="43.3233" lon="-0.53707">
        <ele>137.61</ele>
        <time>2017-02-11T08:58:32Z</time>
      </trkpt>
      <trkpt lat="43.32335" lon="-0.53713">
        <ele>137.61</ele>
        <time>2017-02-11T08:58:33Z</time>
      </trkpt>
      <trkpt lat="43.3234" lon="-0.53719">
        <ele>138.09</ele>
        <time>2017-02-11T08:58:34Z</time>
      </trkpt>
      <trkpt lat="43.32392" lon="-0.53789">
        <ele>138.57</ele>
        <time>2017-02-11T08:58:48Z</time>
      </trkpt>
      <trkpt lat="43.32451" lon="-0.53892">
        <ele>141.45</ele>
        <time>2017-02-11T08:59:07Z</time>
      </trkpt>
      <trkpt lat="43.32467" lon="-0.53931">
        <ele>141.93</ele>
        <time>2017-02-11T08:59:14Z</time>
      </trkpt>
      <trkpt lat="43.3247" lon="-0.53937">
        <ele>141.93</ele>
        <time>2017-02-11T08:59:15Z</time>
      </trkpt>
      <trkpt lat="43.32502" lon="-0.5399">
        <ele>144.82</ele>
        <time>2017-02-11T08:59:26Z</time>
      </trkpt>
      <trkpt lat="43.32505" lon="-0.53991">
        <ele>145.3</ele>
        <time>2017-02-11T08:59:27Z</time>
      </trkpt>
      <trkpt lat="43.32508" lon="-0.5399">
        <ele>144.82</ele>
        <time>2017-02-11T08:59:28Z</time>
      </trkpt>
      <trkpt lat="43.32511" lon="-0.53988">
        <ele>144.82</ele>
        <time>2017-02-11T08:59:29Z</time>
      </trkpt>
      <trkpt lat="43.32514" lon="-0.53984">
        <ele>144.34</ele>
        <time>2017-02-11T08:59:30Z</time>
      </trkpt>
      <trkpt lat="43.32517" lon="-0.53979">
        <ele>143.85</ele>
        <time>2017-02-11T08:59:31Z</time>
      </trkpt>
      <trkpt lat="43.32562" lon="-0.53912">
        <ele>134.72</ele>
        <time>2017-02-11T08:59:39Z</time>
      </trkpt>
      <trkpt lat="43.32644" lon="-0.53777">
        <ele>127.51</ele>
        <time>2017-02-11T08:59:53Z</time>
      </trkpt>
      <trkpt lat="43.32649" lon="-0.53768">
        <ele>127.51</ele>
        <time>2017-02-11T08:59:54Z</time>
      </trkpt>
      <trkpt lat="43.32657" lon="-0.53756">
        <ele>127.03</ele>
        <time>2017-02-11T08:59:56Z</time>
      </trkpt>
      <trkpt lat="43.32661" lon="-0.53753">
        <ele>127.03</ele>
        <time>2017-02-11T08:59:57Z</time>
      </trkpt>
      <trkpt lat="43.32665" lon="-0.5375">
        <ele>127.03</ele>
        <time>2017-02-11T08:59:58Z</time>
      </trkpt>
      <trkpt lat="43.3267" lon="-0.5375">
        <ele>127.03</ele>
        <time>2017-02-11T08:59:59Z</time>
      </trkpt>
      <trkpt lat="43.32673" lon="-0.5375">
        <ele>127.03</ele>
        <time>2017-02-11T09:00:00Z</time>
      </trkpt>
      <trkpt lat="43.32676" lon="-0.53751">
        <ele>127.03</ele>
        <time>2017-02-11T09:00:01Z</time>
      </trkpt>
      <trkpt lat="43.32679" lon="-0.53754">
        <ele>127.03</ele>
        <time>2017-02-11T09:00:02Z</time>
      </trkpt>
      <trkpt lat="43.32681" lon="-0.53757">
        <ele>127.03</ele>
        <time>2017-02-11T09:00:03Z</time>
      </trkpt>
      <trkpt lat="43.32723" lon="-0.53795">
        <ele>127.03</ele>
        <time>2017-02-11T09:00:16Z</time>
      </trkpt>
      <trkpt lat="43.32733" lon="-0.53798">
        <ele>127.99</ele>
        <time>2017-02-11T09:00:24Z</time>
      </trkpt>
      <trkpt lat="43.32736" lon="-0.53799">
        <ele>126.07</ele>
        <time>2017-02-11T09:00:55Z</time>
      </trkpt>
      <trkpt lat="43.32739" lon="-0.53798">
        <ele>130.4</ele>
        <time>2017-02-11T09:01:29Z</time>
      </trkpt>
      <trkpt lat="43.32737" lon="-0.53793">
        <ele>133.28</ele>
        <time>2017-02-11T09:02:07Z</time>
      </trkpt>
      <trkpt lat="43.32737" lon="-0.53795">
        <ele>137.13</ele>
        <time>2017-02-11T09:02:41Z</time>
      </trkpt>
      <trkpt lat="43.32736" lon="-0.53796">
        <ele>137.13</ele>
        <time>2017-02-11T09:03:08Z</time>
      </trkpt>
      <trkpt lat="43.32738" lon="-0.53799">
        <ele>136.16</ele>
        <time>2017-02-11T09:03:45Z</time>
      </trkpt>
      <trkpt lat="43.32735" lon="-0.53804">
        <ele>137.61</ele>
        <time>2017-02-11T09:04:21Z</time>
      </trkpt>
      <trkpt lat="43.32735" lon="-0.53802">
        <ele>135.2</ele>
        <time>2017-02-11T09:04:50Z</time>
      </trkpt>
      <trkpt lat="43.32733" lon="-0.53804">
        <ele>135.2</ele>
        <time>2017-02-11T09:05:02Z</time>
      </trkpt>
      <trkpt lat="43.32734" lon="-0.53806">
        <ele>135.2</ele>
        <time>2017-02-11T09:05:03Z</time>
      </trkpt>
      <trkpt lat="43.32762" lon="-0.53831">
        <ele>133.76</ele>
        <time>2017-02-11T09:05:15Z</time>
      </trkpt>
      <trkpt lat="43.32813" lon="-0.53866">
        <ele>132.8</ele>
        <time>2017-02-11T09:05:29Z</time>
      </trkpt>
      <trkpt lat="43.32848" lon="-0.53899">
        <ele>131.84</ele>
        <time>2017-02-11T09:05:41Z</time>
      </trkpt>
      <trkpt lat="43.32881" lon="-0.53931">
        <ele>132.8</ele>
        <time>2017-02-11T09:05:53Z</time>
      </trkpt>
      <trkpt lat="43.32884" lon="-0.53931">
        <ele>133.28</ele>
        <time>2017-02-11T09:05:54Z</time>
      </trkpt>
      <trkpt lat="43.32887" lon="-0.5393">
        <ele>132.8</ele>
        <time>2017-02-11T09:05:55Z</time>
      </trkpt>
      <trkpt lat="43.3289" lon="-0.53926">
        <ele>132.8</ele>
        <time>2017-02-11T09:05:56Z</time>
      </trkpt>
      <trkpt lat="43.32892" lon="-0.53922">
        <ele>132.32</ele>
        <time>2017-02-11T09:05:57Z</time>
      </trkpt>
      <trkpt lat="43.32894" lon="-0.53918">
        <ele>132.32</ele>
        <time>2017-02-11T09:05:58Z</time>
      </trkpt>
      <trkpt lat="43.32896" lon="-0.53912">
        <ele>131.84</ele>
        <time>2017-02-11T09:05:59Z</time>
      </trkpt>
      <trkpt lat="43.32898" lon="-0.53907">
        <ele>131.36</ele>
        <time>2017-02-11T09:06:00Z</time>
      </trkpt>
      <trkpt lat="43.32932" lon="-0.5382">
        <ele>130.4</ele>
        <time>2017-02-11T09:06:14Z</time>
      </trkpt>
      <trkpt lat="43.32964" lon="-0.53776">
        <ele>130.4</ele>
        <time>2017-02-11T09:06:22Z</time>
      </trkpt>
      <trkpt lat="43.32968" lon="-0.53772">
        <ele>129.92</ele>
        <time>2017-02-11T09:06:23Z</time>
      </trkpt>
      <trkpt lat="43.33071" lon="-0.53705">
        <ele>128.95</ele>
        <time>2017-02-11T09:06:41Z</time>
      </trkpt>
      <trkpt lat="43.33155" lon="-0.53628">
        <ele>129.92</ele>
        <time>2017-02-11T09:06:57Z</time>
      </trkpt>
      <trkpt lat="43.3323" lon="-0.53529">
        <ele>129.43</ele>
        <time>2017-02-11T09:07:14Z</time>
      </trkpt>
      <trkpt lat="43.33307" lon="-0.53427">
        <ele>129.92</ele>
        <time>2017-02-11T09:07:32Z</time>
      </trkpt>
      <trkpt lat="43.33355" lon="-0.53365">
        <ele>130.88</ele>
        <time>2017-02-11T09:07:46Z</time>
      </trkpt>
      <trkpt lat="43.33402" lon="-0.53304">
        <ele>132.32</ele>
        <time>2017-02-11T09:08:04Z</time>
      </trkpt>
      <trkpt lat="43.33447" lon="-0.53245">
        <ele>134.72</ele>
        <time>2017-02-11T09:08:21Z</time>
      </trkpt>
      <trkpt lat="43.33459" lon="-0.5324">
        <ele>135.2</ele>
        <time>2017-02-11T09:08:26Z</time>
      </trkpt>
      <trkpt lat="43.33464" lon="-0.53245">
        <ele>135.68</ele>
        <time>2017-02-11T09:08:29Z</time>
      </trkpt>
      <trkpt lat="43.33466" lon="-0.53245">
        <ele>135.68</ele>
        <time>2017-02-11T09:08:30Z</time>
      </trkpt>
      <trkpt lat="43.33468" lon="-0.53245">
        <ele>136.16</ele>
        <time>2017-02-11T09:08:31Z</time>
      </trkpt>
      <trkpt lat="43.3347" lon="-0.53244">
        <ele>136.16</ele>
        <time>2017-02-11T09:08:32Z</time>
      </trkpt>
      <trkpt lat="43.33472" lon="-0.53243">
        <ele>136.64</ele>
        <time>2017-02-11T09:08:33Z</time>
      </trkpt>
      <trkpt lat="43.33474" lon="-0.53242">
        <ele>136.64</ele>
        <time>2017-02-11T09:08:34Z</time>
      </trkpt>
      <trkpt lat="43.33476" lon="-0.53239">
        <ele>136.64</ele>
        <time>2017-02-11T09:08:35Z</time>
      </trkpt>
      <trkpt lat="43.33477" lon="-0.53237">
        <ele>137.13</ele>
        <time>2017-02-11T09:08:36Z</time>
      </trkpt>
      <trkpt lat="43.33478" lon="-0.53236">
        <ele>137.61</ele>
        <time>2017-02-11T09:08:37Z</time>
      </trkpt>
      <trkpt lat="43.3348" lon="-0.53234">
        <ele>137.61</ele>
        <time>2017-02-11T09:08:38Z</time>
      </trkpt>
      <trkpt lat="43.33482" lon="-0.53233">
        <ele>138.09</ele>
        <time>2017-02-11T09:08:39Z</time>
      </trkpt>
      <trkpt lat="43.33504" lon="-0.53226">
        <ele>140.49</ele>
        <time>2017-02-11T09:08:54Z</time>
      </trkpt>
      <trkpt lat="43.33523" lon="-0.53229">
        <ele>141.93</ele>
        <time>2017-02-11T09:09:07Z</time>
      </trkpt>
      <trkpt lat="43.33524" lon="-0.53229">
        <ele>142.41</ele>
        <time>2017-02-11T09:09:08Z</time>
      </trkpt>
      <trkpt lat="43.33525" lon="-0.53229">
        <ele>142.41</ele>
        <time>2017-02-11T09:09:09Z</time>
      </trkpt>
      <trkpt lat="43.33548" lon="-0.53232">
        <ele>147.7</ele>
        <time>2017-02-11T09:09:25Z</time>
      </trkpt>
      <trkpt lat="43.3356" lon="-0.53234">
        <ele>151.06</ele>
        <time>2017-02-11T09:09:33Z</time>
      </trkpt>
      <trkpt lat="43.33561" lon="-0.53235">
        <ele>151.06</ele>
        <time>2017-02-11T09:09:34Z</time>
      </trkpt>
      <trkpt lat="43.33563" lon="-0.53235">
        <ele>151.54</ele>
        <time>2017-02-11T09:09:35Z</time>
      </trkpt>
      <trkpt lat="43.33573" lon="-0.53237">
        <ele>154.43</ele>
        <time>2017-02-11T09:09:43Z</time>
      </trkpt>
      <trkpt lat="43.33574" lon="-0.53237">
        <ele>154.43</ele>
        <time>2017-02-11T09:09:44Z</time>
      </trkpt>
      <trkpt lat="43.33576" lon="-0.53237">
        <ele>154.43</ele>
        <time>2017-02-11T09:09:45Z</time>
      </trkpt>
      <trkpt lat="43.33593" lon="-0.53239">
        <ele>156.83</ele>
        <time>2017-02-11T09:09:58Z</time>
      </trkpt>
      <trkpt lat="43.33611" lon="-0.53242">
        <ele>159.72</ele>
        <time>2017-02-11T09:10:11Z</time>
      </trkpt>
      <trkpt lat="43.33614" lon="-0.53242">
        <ele>160.68</ele>
        <time>2017-02-11T09:10:14Z</time>
      </trkpt>
      <trkpt lat="43.33617" lon="-0.53243">
        <ele>160.68</ele>
        <time>2017-02-11T09:10:16Z</time>
      </trkpt>
      <trkpt lat="43.33618" lon="-0.53244">
        <ele>161.16</ele>
        <time>2017-02-11T09:10:17Z</time>
      </trkpt>
      <trkpt lat="43.33619" lon="-0.53244">
        <ele>161.64</ele>
        <time>2017-02-11T09:10:18Z</time>
      </trkpt>
      <trkpt lat="43.33621" lon="-0.53244">
        <ele>162.12</ele>
        <time>2017-02-11T09:10:19Z</time>
      </trkpt>
      <trkpt lat="43.33622" lon="-0.53245">
        <ele>162.12</ele>
        <time>2017-02-11T09:10:20Z</time>
      </trkpt>
      <trkpt lat="43.33641" lon="-0.53252">
        <ele>164.04</ele>
        <time>2017-02-11T09:10:34Z</time>
      </trkpt>
      <trkpt lat="43.33663" lon="-0.5327">
        <ele>163.08</ele>
        <time>2017-02-11T09:10:49Z</time>
      </trkpt>
      <trkpt lat="43.33687" lon="-0.53298">
        <ele>162.6</ele>
        <time>2017-02-11T09:11:08Z</time>
      </trkpt>
      <trkpt lat="43.33704" lon="-0.5331">
        <ele>162.12</ele>
        <time>2017-02-11T09:11:20Z</time>
      </trkpt>
      <trkpt lat="43.33725" lon="-0.53307">
        <ele>165.48</ele>
        <time>2017-02-11T09:11:35Z</time>
      </trkpt>
      <trkpt lat="43.3375" lon="-0.53304">
        <ele>167.41</ele>
        <time>2017-02-11T09:11:51Z</time>
      </trkpt>
      <trkpt lat="43.33768" lon="-0.53306">
        <ele>170.77</ele>
        <time>2017-02-11T09:12:04Z</time>
      </trkpt>
      <trkpt lat="43.33789" lon="-0.53307">
        <ele>175.58</ele>
        <time>2017-02-11T09:12:17Z</time>
      </trkpt>
      <trkpt lat="43.33808" lon="-0.53304">
        <ele>178.46</ele>
        <time>2017-02-11T09:12:28Z</time>
      </trkpt>
      <trkpt lat="43.33809" lon="-0.53305">
        <ele>178.94</ele>
        <time>2017-02-11T09:12:29Z</time>
      </trkpt>
      <trkpt lat="43.33833" lon="-0.53305">
        <ele>185.19</ele>
        <time>2017-02-11T09:12:44Z</time>
      </trkpt>
      <trkpt lat="43.33853" lon="-0.53303">
        <ele>185.67</ele>
        <time>2017-02-11T09:12:58Z</time>
      </trkpt>
      <trkpt lat="43.33863" lon="-0.53304">
        <ele>186.15</ele>
        <time>2017-02-11T09:13:05Z</time>
      </trkpt>
      <trkpt lat="43.33864" lon="-0.53304">
        <ele>185.67</ele>
        <time>2017-02-11T09:13:06Z</time>
      </trkpt>
      <trkpt lat="43.3388" lon="-0.53307">
        <ele>186.15</ele>
        <time>2017-02-11T09:13:17Z</time>
      </trkpt>
      <trkpt lat="43.33903" lon="-0.5331">
        <ele>188.08</ele>
        <time>2017-02-11T09:13:31Z</time>
      </trkpt>
      <trkpt lat="43.33927" lon="-0.53316">
        <ele>191.44</ele>
        <time>2017-02-11T09:13:43Z</time>
      </trkpt>
      <trkpt lat="43.33951" lon="-0.5331">
        <ele>193.36</ele>
        <time>2017-02-11T09:13:55Z</time>
      </trkpt>
      <trkpt lat="43.33956" lon="-0.53307">
        <ele>194.8</ele>
        <time>2017-02-11T09:13:59Z</time>
      </trkpt>
      <trkpt lat="43.33976" lon="-0.53306">
        <ele>198.17</ele>
        <time>2017-02-11T09:14:13Z</time>
      </trkpt>
      <trkpt lat="43.33994" lon="-0.53309">
        <ele>199.61</ele>
        <time>2017-02-11T09:14:25Z</time>
      </trkpt>
      <trkpt lat="43.34011" lon="-0.53309">
        <ele>202.98</ele>
        <time>2017-02-11T09:14:37Z</time>
      </trkpt>
      <trkpt lat="43.34037" lon="-0.53306">
        <ele>208.74</ele>
        <time>2017-02-11T09:14:53Z</time>
      </trkpt>
      <trkpt lat="43.34041" lon="-0.53305">
        <ele>209.22</ele>
        <time>2017-02-11T09:14:55Z</time>
      </trkpt>
      <trkpt lat="43.34042" lon="-0.53304">
        <ele>209.7</ele>
        <time>2017-02-11T09:14:56Z</time>
      </trkpt>
      <trkpt lat="43.34059" lon="-0.53291">
        <ele>214.99</ele>
        <time>2017-02-11T09:15:09Z</time>
      </trkpt>
      <trkpt lat="43.34078" lon="-0.53276">
        <ele>214.03</ele>
        <time>2017-02-11T09:15:24Z</time>
      </trkpt>
      <trkpt lat="43.34093" lon="-0.53262">
        <ele>213.55</ele>
        <time>2017-02-11T09:15:36Z</time>
      </trkpt>
      <trkpt lat="43.34109" lon="-0.53248">
        <ele>214.99</ele>
        <time>2017-02-11T09:15:49Z</time>
      </trkpt>
      <trkpt lat="43.34125" lon="-0.53229">
        <ele>218.84</ele>
        <time>2017-02-11T09:16:04Z</time>
      </trkpt>
      <trkpt lat="43.34127" lon="-0.53223">
        <ele>218.84</ele>
        <time>2017-02-11T09:16:07Z</time>
      </trkpt>
      <trkpt lat="43.34128" lon="-0.53222">
        <ele>218.84</ele>
        <time>2017-02-11T09:16:08Z</time>
      </trkpt>
      <trkpt lat="43.3413" lon="-0.53217">
        <ele>218.36</ele>
        <time>2017-02-11T09:16:11Z</time>
      </trkpt>
      <trkpt lat="43.34131" lon="-0.53215">
        <ele>218.36</ele>
        <time>2017-02-11T09:16:12Z</time>
      </trkpt>
      <trkpt lat="43.34141" lon="-0.53192">
        <ele>218.84</ele>
        <time>2017-02-11T09:16:26Z</time>
      </trkpt>
      <trkpt lat="43.34142" lon="-0.5319">
        <ele>218.84</ele>
        <time>2017-02-11T09:16:27Z</time>
      </trkpt>
      <trkpt lat="43.34142" lon="-0.53188">
        <ele>218.84</ele>
        <time>2017-02-11T09:16:28Z</time>
      </trkpt>
      <trkpt lat="43.34142" lon="-0.53186">
        <ele>218.84</ele>
        <time>2017-02-11T09:16:29Z</time>
      </trkpt>
      <trkpt lat="43.34142" lon="-0.53184">
        <ele>218.84</ele>
        <time>2017-02-11T09:16:30Z</time>
      </trkpt>
      <trkpt lat="43.34141" lon="-0.53182">
        <ele>218.84</ele>
        <time>2017-02-11T09:16:31Z</time>
      </trkpt>
      <trkpt lat="43.3414" lon="-0.53181">
        <ele>218.84</ele>
        <time>2017-02-11T09:16:32Z</time>
      </trkpt>
      <trkpt lat="43.34138" lon="-0.5318">
        <ele>218.84</ele>
        <time>2017-02-11T09:16:33Z</time>
      </trkpt>
      <trkpt lat="43.34137" lon="-0.53179">
        <ele>218.36</ele>
        <time>2017-02-11T09:16:34Z</time>
      </trkpt>
      <trkpt lat="43.34135" lon="-0.53178">
        <ele>217.88</ele>
        <time>2017-02-11T09:16:35Z</time>
      </trkpt>
      <trkpt lat="43.34133" lon="-0.53177">
        <ele>217.88</ele>
        <time>2017-02-11T09:16:36Z</time>
      </trkpt>
      <trkpt lat="43.34131" lon="-0.53177">
        <ele>217.88</ele>
        <time>2017-02-11T09:16:37Z</time>
      </trkpt>
      <trkpt lat="43.34129" lon="-0.53177">
        <ele>217.88</ele>
        <time>2017-02-11T09:16:38Z</time>
      </trkpt>
      <trkpt lat="43.341" lon="-0.53174">
        <ele>216.43</ele>
        <time>2017-02-11T09:16:51Z</time>
      </trkpt>
      <trkpt lat="43.34044" lon="-0.53178">
        <ele>212.59</ele>
        <time>2017-02-11T09:17:06Z</time>
      </trkpt>
      <trkpt lat="43.33997" lon="-0.53168">
        <ele>208.74</ele>
        <time>2017-02-11T09:17:19Z</time>
      </trkpt>
      <trkpt lat="43.33994" lon="-0.53166">
        <ele>207.78</ele>
        <time>2017-02-11T09:17:21Z</time>
      </trkpt>
      <trkpt lat="43.33992" lon="-0.53168">
        <ele>207.78</ele>
        <time>2017-02-11T09:17:22Z</time>
      </trkpt>
      <trkpt lat="43.3399" lon="-0.5319">
        <ele>205.86</ele>
        <time>2017-02-11T09:17:27Z</time>
      </trkpt>
      <trkpt lat="43.33964" lon="-0.53215">
        <ele>202.49</ele>
        <time>2017-02-11T09:17:35Z</time>
      </trkpt>
      <trkpt lat="43.33956" lon="-0.53216">
        <ele>201.53</ele>
        <time>2017-02-11T09:17:37Z</time>
      </trkpt>
      <trkpt lat="43.33941" lon="-0.53216">
        <ele>198.17</ele>
        <time>2017-02-11T09:17:42Z</time>
      </trkpt>
      <trkpt lat="43.3392" lon="-0.53208">
        <ele>193.84</ele>
        <time>2017-02-11T09:17:51Z</time>
      </trkpt>
      <trkpt lat="43.33916" lon="-0.532">
        <ele>192.88</ele>
        <time>2017-02-11T09:17:53Z</time>
      </trkpt>
      <trkpt lat="43.33897" lon="-0.53203">
        <ele>190.96</ele>
        <time>2017-02-11T09:18:01Z</time>
      </trkpt>
      <trkpt lat="43.33883" lon="-0.53204">
        <ele>190.48</ele>
        <time>2017-02-11T09:18:04Z</time>
      </trkpt>
      <trkpt lat="43.3385" lon="-0.53186">
        <ele>190</ele>
        <time>2017-02-11T09:18:14Z</time>
      </trkpt>
      <trkpt lat="43.33846" lon="-0.53173">
        <ele>188.56</ele>
        <time>2017-02-11T09:18:18Z</time>
      </trkpt>
      <trkpt lat="43.33823" lon="-0.53167">
        <ele>184.23</ele>
        <time>2017-02-11T09:18:25Z</time>
      </trkpt>
      <trkpt lat="43.33819" lon="-0.53157">
        <ele>182.31</ele>
        <time>2017-02-11T09:18:28Z</time>
      </trkpt>
      <trkpt lat="43.33806" lon="-0.53155">
        <ele>181.35</ele>
        <time>2017-02-11T09:18:32Z</time>
      </trkpt>
      <trkpt lat="43.33798" lon="-0.53156">
        <ele>180.87</ele>
        <time>2017-02-11T09:18:34Z</time>
      </trkpt>
      <trkpt lat="43.33787" lon="-0.53149">
        <ele>180.38</ele>
        <time>2017-02-11T09:18:37Z</time>
      </trkpt>
      <trkpt lat="43.3376" lon="-0.53161">
        <ele>179.42</ele>
        <time>2017-02-11T09:18:44Z</time>
      </trkpt>
      <trkpt lat="43.33721" lon="-0.5314">
        <ele>176.06</ele>
        <time>2017-02-11T09:18:52Z</time>
      </trkpt>
      <trkpt lat="43.33707" lon="-0.53131">
        <ele>174.62</ele>
        <time>2017-02-11T09:18:55Z</time>
      </trkpt>
      <trkpt lat="43.33688" lon="-0.53124">
        <ele>171.25</ele>
        <time>2017-02-11T09:18:59Z</time>
      </trkpt>
      <trkpt lat="43.33672" lon="-0.53138">
        <ele>168.85</ele>
        <time>2017-02-11T09:19:03Z</time>
      </trkpt>
      <trkpt lat="43.33641" lon="-0.53155">
        <ele>164.52</ele>
        <time>2017-02-11T09:19:09Z</time>
      </trkpt>
      <trkpt lat="43.33606" lon="-0.53179">
        <ele>153.95</ele>
        <time>2017-02-11T09:19:18Z</time>
      </trkpt>
      <trkpt lat="43.33601" lon="-0.53179">
        <ele>152.51</ele>
        <time>2017-02-11T09:19:19Z</time>
      </trkpt>
      <trkpt lat="43.33561" lon="-0.53173">
        <ele>148.18</ele>
        <time>2017-02-11T09:19:28Z</time>
      </trkpt>
      <trkpt lat="43.33536" lon="-0.53198">
        <ele>145.78</ele>
        <time>2017-02-11T09:19:35Z</time>
      </trkpt>
      <trkpt lat="43.33516" lon="-0.53207">
        <ele>143.85</ele>
        <time>2017-02-11T09:19:39Z</time>
      </trkpt>
      <trkpt lat="43.33508" lon="-0.5321">
        <ele>142.89</ele>
        <time>2017-02-11T09:19:41Z</time>
      </trkpt>
      <trkpt lat="43.33494" lon="-0.53221">
        <ele>143.37</ele>
        <time>2017-02-11T09:19:45Z</time>
      </trkpt>
      <trkpt lat="43.3349" lon="-0.53229">
        <ele>142.89</ele>
        <time>2017-02-11T09:19:47Z</time>
      </trkpt>
      <trkpt lat="43.33487" lon="-0.53232">
        <ele>142.89</ele>
        <time>2017-02-11T09:19:48Z</time>
      </trkpt>
      <trkpt lat="43.33484" lon="-0.53235">
        <ele>142.41</ele>
        <time>2017-02-11T09:19:49Z</time>
      </trkpt>
      <trkpt lat="43.33477" lon="-0.53242">
        <ele>141.93</ele>
        <time>2017-02-11T09:19:51Z</time>
      </trkpt>
      <trkpt lat="43.33473" lon="-0.53244">
        <ele>141.45</ele>
        <time>2017-02-11T09:19:52Z</time>
      </trkpt>
      <trkpt lat="43.3347" lon="-0.53244">
        <ele>140.49</ele>
        <time>2017-02-11T09:19:53Z</time>
      </trkpt>
      <trkpt lat="43.33467" lon="-0.53242">
        <ele>140.01</ele>
        <time>2017-02-11T09:19:54Z</time>
      </trkpt>
      <trkpt lat="43.33465" lon="-0.5324">
        <ele>139.53</ele>
        <time>2017-02-11T09:19:55Z</time>
      </trkpt>
      <trkpt lat="43.33464" lon="-0.53238">
        <ele>139.05</ele>
        <time>2017-02-11T09:19:56Z</time>
      </trkpt>
      <trkpt lat="43.33463" lon="-0.53236">
        <ele>139.05</ele>
        <time>2017-02-11T09:19:57Z</time>
      </trkpt>
      <trkpt lat="43.33463" lon="-0.53234">
        <ele>139.05</ele>
        <time>2017-02-11T09:19:58Z</time>
      </trkpt>
      <trkpt lat="43.33463" lon="-0.5323">
        <ele>138.57</ele>
        <time>2017-02-11T09:19:59Z</time>
      </trkpt>
      <trkpt lat="43.33464" lon="-0.53228">
        <ele>138.09</ele>
        <time>2017-02-11T09:20:00Z</time>
      </trkpt>
      <trkpt lat="43.33466" lon="-0.53225">
        <ele>138.09</ele>
        <time>2017-02-11T09:20:01Z</time>
      </trkpt>
      <trkpt lat="43.33467" lon="-0.53222">
        <ele>138.09</ele>
        <time>2017-02-11T09:20:02Z</time>
      </trkpt>
      <trkpt lat="43.3347" lon="-0.53219">
        <ele>138.57</ele>
        <time>2017-02-11T09:20:03Z</time>
      </trkpt>
      <trkpt lat="43.33472" lon="-0.53216">
        <ele>138.57</ele>
        <time>2017-02-11T09:20:04Z</time>
      </trkpt>
      <trkpt lat="43.33474" lon="-0.53214">
        <ele>138.57</ele>
        <time>2017-02-11T09:20:05Z</time>
      </trkpt>
      <trkpt lat="43.33476" lon="-0.53211">
        <ele>138.09</ele>
        <time>2017-02-11T09:20:06Z</time>
      </trkpt>
      <trkpt lat="43.3351" lon="-0.53163">
        <ele>138.09</ele>
        <time>2017-02-11T09:20:22Z</time>
      </trkpt>
      <trkpt lat="43.33555" lon="-0.53104">
        <ele>138.57</ele>
        <time>2017-02-11T09:20:40Z</time>
      </trkpt>
      <trkpt lat="43.33601" lon="-0.53043">
        <ele>139.53</ele>
        <time>2017-02-11T09:20:58Z</time>
      </trkpt>
      <trkpt lat="43.33634" lon="-0.52987">
        <ele>140.49</ele>
        <time>2017-02-11T09:21:13Z</time>
      </trkpt>
      <trkpt lat="43.33642" lon="-0.52969">
        <ele>140.97</ele>
        <time>2017-02-11T09:21:20Z</time>
      </trkpt>
      <trkpt lat="43.33643" lon="-0.52968">
        <ele>140.97</ele>
        <time>2017-02-11T09:21:21Z</time>
      </trkpt>
      <trkpt lat="43.33662" lon="-0.52947">
        <ele>146.26</ele>
        <time>2017-02-11T09:21:37Z</time>
      </trkpt>
      <trkpt lat="43.33681" lon="-0.52924">
        <ele>148.66</ele>
        <time>2017-02-11T09:21:54Z</time>
      </trkpt>
      <trkpt lat="43.33701" lon="-0.52905">
        <ele>153.95</ele>
        <time>2017-02-11T09:22:14Z</time>
      </trkpt>
      <trkpt lat="43.33703" lon="-0.52903">
        <ele>154.91</ele>
        <time>2017-02-11T09:22:16Z</time>
      </trkpt>
      <trkpt lat="43.33704" lon="-0.52903">
        <ele>155.39</ele>
        <time>2017-02-11T09:22:17Z</time>
      </trkpt>
      <trkpt lat="43.33705" lon="-0.52902">
        <ele>155.39</ele>
        <time>2017-02-11T09:22:18Z</time>
      </trkpt>
      <trkpt lat="43.33705" lon="-0.52901">
        <ele>155.87</ele>
        <time>2017-02-11T09:22:19Z</time>
      </trkpt>
      <trkpt lat="43.33721" lon="-0.52881">
        <ele>159.72</ele>
        <time>2017-02-11T09:22:36Z</time>
      </trkpt>
      <trkpt lat="43.33736" lon="-0.52865">
        <ele>164.52</ele>
        <time>2017-02-11T09:22:52Z</time>
      </trkpt>
      <trkpt lat="43.33739" lon="-0.5286">
        <ele>165.96</ele>
        <time>2017-02-11T09:22:56Z</time>
      </trkpt>
      <trkpt lat="43.3374" lon="-0.52859">
        <ele>166.45</ele>
        <time>2017-02-11T09:22:57Z</time>
      </trkpt>
      <trkpt lat="43.33741" lon="-0.52858">
        <ele>166.45</ele>
        <time>2017-02-11T09:22:58Z</time>
      </trkpt>
      <trkpt lat="43.33742" lon="-0.52857">
        <ele>166.45</ele>
        <time>2017-02-11T09:22:59Z</time>
      </trkpt>
      <trkpt lat="43.33743" lon="-0.52856">
        <ele>166.93</ele>
        <time>2017-02-11T09:23:00Z</time>
      </trkpt>
      <trkpt lat="43.33745" lon="-0.52853">
        <ele>166.93</ele>
        <time>2017-02-11T09:23:02Z</time>
      </trkpt>
      <trkpt lat="43.33747" lon="-0.52852">
        <ele>167.41</ele>
        <time>2017-02-11T09:23:03Z</time>
      </trkpt>
      <trkpt lat="43.33748" lon="-0.52851">
        <ele>167.89</ele>
        <time>2017-02-11T09:23:04Z</time>
      </trkpt>
      <trkpt lat="43.33748" lon="-0.52849">
        <ele>167.89</ele>
        <time>2017-02-11T09:23:05Z</time>
      </trkpt>
      <trkpt lat="43.33749" lon="-0.52848">
        <ele>168.37</ele>
        <time>2017-02-11T09:23:06Z</time>
      </trkpt>
      <trkpt lat="43.33768" lon="-0.52828">
        <ele>171.25</ele>
        <time>2017-02-11T09:23:24Z</time>
      </trkpt>
      <trkpt lat="43.33788" lon="-0.52814">
        <ele>177.98</ele>
        <time>2017-02-11T09:23:43Z</time>
      </trkpt>
      <trkpt lat="43.33799" lon="-0.52813">
        <ele>180.87</ele>
        <time>2017-02-11T09:23:55Z</time>
      </trkpt>
      <trkpt lat="43.33803" lon="-0.52813">
        <ele>181.35</ele>
        <time>2017-02-11T09:23:58Z</time>
      </trkpt>
      <trkpt lat="43.33804" lon="-0.52814">
        <ele>181.35</ele>
        <time>2017-02-11T09:23:59Z</time>
      </trkpt>
      <trkpt lat="43.33805" lon="-0.52814">
        <ele>181.35</ele>
        <time>2017-02-11T09:24:00Z</time>
      </trkpt>
      <trkpt lat="43.33808" lon="-0.52815">
        <ele>181.35</ele>
        <time>2017-02-11T09:24:02Z</time>
      </trkpt>
      <trkpt lat="43.33808" lon="-0.52816">
        <ele>181.83</ele>
        <time>2017-02-11T09:24:03Z</time>
      </trkpt>
      <trkpt lat="43.33809" lon="-0.52816">
        <ele>181.83</ele>
        <time>2017-02-11T09:24:04Z</time>
      </trkpt>
      <trkpt lat="43.33823" lon="-0.52821">
        <ele>185.67</ele>
        <time>2017-02-11T09:24:18Z</time>
      </trkpt>
      <trkpt lat="43.33828" lon="-0.52824">
        <ele>186.15</ele>
        <time>2017-02-11T09:24:22Z</time>
      </trkpt>
      <trkpt lat="43.3384" lon="-0.52827">
        <ele>184.71</ele>
        <time>2017-02-11T09:24:31Z</time>
      </trkpt>
      <trkpt lat="43.33841" lon="-0.52826">
        <ele>184.71</ele>
        <time>2017-02-11T09:24:32Z</time>
      </trkpt>
      <trkpt lat="43.33841" lon="-0.52825">
        <ele>185.19</ele>
        <time>2017-02-11T09:24:33Z</time>
      </trkpt>
      <trkpt lat="43.33842" lon="-0.52823">
        <ele>185.19</ele>
        <time>2017-02-11T09:24:34Z</time>
      </trkpt>
      <trkpt lat="43.33851" lon="-0.52815">
        <ele>186.15</ele>
        <time>2017-02-11T09:24:44Z</time>
      </trkpt>
      <trkpt lat="43.33858" lon="-0.52809">
        <ele>187.11</ele>
        <time>2017-02-11T09:24:51Z</time>
      </trkpt>
      <trkpt lat="43.33875" lon="-0.52792">
        <ele>185.67</ele>
        <time>2017-02-11T09:25:07Z</time>
      </trkpt>
      <trkpt lat="43.33897" lon="-0.52774">
        <ele>188.08</ele>
        <time>2017-02-11T09:25:25Z</time>
      </trkpt>
      <trkpt lat="43.33912" lon="-0.5276">
        <ele>190.96</ele>
        <time>2017-02-11T09:25:41Z</time>
      </trkpt>
      <trkpt lat="43.3393" lon="-0.52743">
        <ele>194.8</ele>
        <time>2017-02-11T09:25:57Z</time>
      </trkpt>
      <trkpt lat="43.33942" lon="-0.5273">
        <ele>196.25</ele>
        <time>2017-02-11T09:26:09Z</time>
      </trkpt>
      <trkpt lat="43.33951" lon="-0.52723">
        <ele>198.65</ele>
        <time>2017-02-11T09:26:17Z</time>
      </trkpt>
      <trkpt lat="43.33968" lon="-0.52709">
        <ele>200.57</ele>
        <time>2017-02-11T09:26:33Z</time>
      </trkpt>
      <trkpt lat="43.33983" lon="-0.52696">
        <ele>204.42</ele>
        <time>2017-02-11T09:26:47Z</time>
      </trkpt>
      <trkpt lat="43.33996" lon="-0.52689">
        <ele>205.86</ele>
        <time>2017-02-11T09:26:57Z</time>
      </trkpt>
      <trkpt lat="43.34015" lon="-0.52656">
        <ele>204.9</ele>
        <time>2017-02-11T09:27:08Z</time>
      </trkpt>
      <trkpt lat="43.34037" lon="-0.52632">
        <ele>204.9</ele>
        <time>2017-02-11T09:27:15Z</time>
      </trkpt>
      <trkpt lat="43.34041" lon="-0.52628">
        <ele>204.9</ele>
        <time>2017-02-11T09:27:16Z</time>
      </trkpt>
      <trkpt lat="43.34044" lon="-0.52625">
        <ele>204.9</ele>
        <time>2017-02-11T09:27:17Z</time>
      </trkpt>
      <trkpt lat="43.34048" lon="-0.52622">
        <ele>204.9</ele>
        <time>2017-02-11T09:27:18Z</time>
      </trkpt>
      <trkpt lat="43.34052" lon="-0.52619">
        <ele>204.42</ele>
        <time>2017-02-11T09:27:19Z</time>
      </trkpt>
      <trkpt lat="43.34095" lon="-0.52596">
        <ele>202.01</ele>
        <time>2017-02-11T09:27:33Z</time>
      </trkpt>
      <trkpt lat="43.34126" lon="-0.52574">
        <ele>202.98</ele>
        <time>2017-02-11T09:27:49Z</time>
      </trkpt>
      <trkpt lat="43.34151" lon="-0.52553">
        <ele>205.86</ele>
        <time>2017-02-11T09:28:04Z</time>
      </trkpt>
      <trkpt lat="43.34153" lon="-0.52544">
        <ele>206.34</ele>
        <time>2017-02-11T09:28:08Z</time>
      </trkpt>
      <trkpt lat="43.34139" lon="-0.52494">
        <ele>205.86</ele>
        <time>2017-02-11T09:28:19Z</time>
      </trkpt>
      <trkpt lat="43.34122" lon="-0.52446">
        <ele>209.7</ele>
        <time>2017-02-11T09:28:30Z</time>
      </trkpt>
      <trkpt lat="43.34104" lon="-0.52395">
        <ele>215.47</ele>
        <time>2017-02-11T09:28:41Z</time>
      </trkpt>
      <trkpt lat="43.34101" lon="-0.5239">
        <ele>215.47</ele>
        <time>2017-02-11T09:28:42Z</time>
      </trkpt>
      <trkpt lat="43.34086" lon="-0.52342">
        <ele>216.91</ele>
        <time>2017-02-11T09:28:53Z</time>
      </trkpt>
      <trkpt lat="43.34079" lon="-0.52316">
        <ele>217.4</ele>
        <time>2017-02-11T09:28:58Z</time>
      </trkpt>
      <trkpt lat="43.34076" lon="-0.5231">
        <ele>217.4</ele>
        <time>2017-02-11T09:28:59Z</time>
      </trkpt>
      <trkpt lat="43.34073" lon="-0.52305">
        <ele>217.4</ele>
        <time>2017-02-11T09:29:00Z</time>
      </trkpt>
      <trkpt lat="43.34069" lon="-0.52299">
        <ele>216.91</ele>
        <time>2017-02-11T09:29:01Z</time>
      </trkpt>
      <trkpt lat="43.34066" lon="-0.52293">
        <ele>216.43</ele>
        <time>2017-02-11T09:29:02Z</time>
      </trkpt>
      <trkpt lat="43.34055" lon="-0.52276">
        <ele>214.99</ele>
        <time>2017-02-11T09:29:05Z</time>
      </trkpt>
      <trkpt lat="43.34047" lon="-0.52266">
        <ele>214.51</ele>
        <time>2017-02-11T09:29:07Z</time>
      </trkpt>
      <trkpt lat="43.34028" lon="-0.52229">
        <ele>214.99</ele>
        <time>2017-02-11T09:29:18Z</time>
      </trkpt>
      <trkpt lat="43.34011" lon="-0.52192">
        <ele>216.91</ele>
        <time>2017-02-11T09:29:34Z</time>
      </trkpt>
      <trkpt lat="43.3401" lon="-0.5219">
        <ele>216.91</ele>
        <time>2017-02-11T09:29:35Z</time>
      </trkpt>
      <trkpt lat="43.34009" lon="-0.52188">
        <ele>216.91</ele>
        <time>2017-02-11T09:29:36Z</time>
      </trkpt>
      <trkpt lat="43.34006" lon="-0.52176">
        <ele>217.88</ele>
        <time>2017-02-11T09:29:42Z</time>
      </trkpt>
      <trkpt lat="43.34007" lon="-0.52174">
        <ele>217.88</ele>
        <time>2017-02-11T09:29:43Z</time>
      </trkpt>
      <trkpt lat="43.34009" lon="-0.52175">
        <ele>217.4</ele>
        <time>2017-02-11T09:29:44Z</time>
      </trkpt>
      <trkpt lat="43.3401" lon="-0.52176">
        <ele>216.91</ele>
        <time>2017-02-11T09:29:45Z</time>
      </trkpt>
      <trkpt lat="43.34012" lon="-0.52177">
        <ele>216.91</ele>
        <time>2017-02-11T09:29:46Z</time>
      </trkpt>
      <trkpt lat="43.34013" lon="-0.52178">
        <ele>216.43</ele>
        <time>2017-02-11T09:29:47Z</time>
      </trkpt>
      <trkpt lat="43.34015" lon="-0.52179">
        <ele>216.43</ele>
        <time>2017-02-11T09:29:48Z</time>
      </trkpt>
      <trkpt lat="43.34017" lon="-0.5218">
        <ele>216.43</ele>
        <time>2017-02-11T09:29:49Z</time>
      </trkpt>
      <trkpt lat="43.34018" lon="-0.52181">
        <ele>216.43</ele>
        <time>2017-02-11T09:29:50Z</time>
      </trkpt>
      <trkpt lat="43.34021" lon="-0.52182">
        <ele>216.43</ele>
        <time>2017-02-11T09:29:51Z</time>
      </trkpt>
      <trkpt lat="43.34023" lon="-0.52183">
        <ele>216.43</ele>
        <time>2017-02-11T09:29:52Z</time>
      </trkpt>
      <trkpt lat="43.34044" lon="-0.52193">
        <ele>216.91</ele>
        <time>2017-02-11T09:30:04Z</time>
      </trkpt>
      <trkpt lat="43.3407" lon="-0.52208">
        <ele>215.47</ele>
        <time>2017-02-11T09:30:14Z</time>
      </trkpt>
      <trkpt lat="43.34094" lon="-0.52231">
        <ele>216.91</ele>
        <time>2017-02-11T09:30:26Z</time>
      </trkpt>
      <trkpt lat="43.34109" lon="-0.52249">
        <ele>218.36</ele>
        <time>2017-02-11T09:30:35Z</time>
      </trkpt>
      <trkpt lat="43.34111" lon="-0.5225">
        <ele>218.36</ele>
        <time>2017-02-11T09:30:36Z</time>
      </trkpt>
      <trkpt lat="43.3412" lon="-0.52255">
        <ele>219.8</ele>
        <time>2017-02-11T09:30:43Z</time>
      </trkpt>
      <trkpt lat="43.34122" lon="-0.52256">
        <ele>220.28</ele>
        <time>2017-02-11T09:30:44Z</time>
      </trkpt>
      <trkpt lat="43.34124" lon="-0.52257">
        <ele>220.28</ele>
        <time>2017-02-11T09:30:45Z</time>
      </trkpt>
      <trkpt lat="43.34153" lon="-0.52275">
        <ele>222.2</ele>
        <time>2017-02-11T09:30:53Z</time>
      </trkpt>
      <trkpt lat="43.34156" lon="-0.5228">
        <ele>222.2</ele>
        <time>2017-02-11T09:30:54Z</time>
      </trkpt>
      <trkpt lat="43.34159" lon="-0.52285">
        <ele>222.2</ele>
        <time>2017-02-11T09:30:55Z</time>
      </trkpt>
      <trkpt lat="43.34163" lon="-0.52292">
        <ele>221.72</ele>
        <time>2017-02-11T09:30:56Z</time>
      </trkpt>
      <trkpt lat="43.34168" lon="-0.52296">
        <ele>221.72</ele>
        <time>2017-02-11T09:30:57Z</time>
      </trkpt>
      <trkpt lat="43.34174" lon="-0.52299">
        <ele>221.24</ele>
        <time>2017-02-11T09:30:58Z</time>
      </trkpt>
      <trkpt lat="43.34179" lon="-0.52302">
        <ele>220.76</ele>
        <time>2017-02-11T09:30:59Z</time>
      </trkpt>
      <trkpt lat="43.34184" lon="-0.52306">
        <ele>220.28</ele>
        <time>2017-02-11T09:31:00Z</time>
      </trkpt>
      <trkpt lat="43.34188" lon="-0.5231">
        <ele>219.8</ele>
        <time>2017-02-11T09:31:01Z</time>
      </trkpt>
      <trkpt lat="43.34192" lon="-0.52313">
        <ele>219.32</ele>
        <time>2017-02-11T09:31:02Z</time>
      </trkpt>
      <trkpt lat="43.34197" lon="-0.52316">
        <ele>219.32</ele>
        <time>2017-02-11T09:31:03Z</time>
      </trkpt>
      <trkpt lat="43.34206" lon="-0.52317">
        <ele>218.36</ele>
        <time>2017-02-11T09:31:05Z</time>
      </trkpt>
      <trkpt lat="43.34211" lon="-0.52318">
        <ele>217.88</ele>
        <time>2017-02-11T09:31:06Z</time>
      </trkpt>
      <trkpt lat="43.34216" lon="-0.52319">
        <ele>217.88</ele>
        <time>2017-02-11T09:31:07Z</time>
      </trkpt>
      <trkpt lat="43.34232" lon="-0.52321">
        <ele>216.91</ele>
        <time>2017-02-11T09:31:11Z</time>
      </trkpt>
      <trkpt lat="43.34235" lon="-0.52323">
        <ele>216.91</ele>
        <time>2017-02-11T09:31:12Z</time>
      </trkpt>
      <trkpt lat="43.34239" lon="-0.52325">
        <ele>216.91</ele>
        <time>2017-02-11T09:31:13Z</time>
      </trkpt>
      <trkpt lat="43.34242" lon="-0.52328">
        <ele>216.91</ele>
        <time>2017-02-11T09:31:14Z</time>
      </trkpt>
      <trkpt lat="43.34246" lon="-0.52331">
        <ele>216.91</ele>
        <time>2017-02-11T09:31:15Z</time>
      </trkpt>
      <trkpt lat="43.34249" lon="-0.52334">
        <ele>217.4</ele>
        <time>2017-02-11T09:31:16Z</time>
      </trkpt>
      <trkpt lat="43.34261" lon="-0.52347">
        <ele>217.4</ele>
        <time>2017-02-11T09:31:20Z</time>
      </trkpt>
      <trkpt lat="43.34263" lon="-0.52351">
        <ele>216.91</ele>
        <time>2017-02-11T09:31:21Z</time>
      </trkpt>
      <trkpt lat="43.34265" lon="-0.52355">
        <ele>216.91</ele>
        <time>2017-02-11T09:31:22Z</time>
      </trkpt>
      <trkpt lat="43.34266" lon="-0.52361">
        <ele>216.43</ele>
        <time>2017-02-11T09:31:23Z</time>
      </trkpt>
      <trkpt lat="43.34266" lon="-0.52366">
        <ele>216.43</ele>
        <time>2017-02-11T09:31:24Z</time>
      </trkpt>
      <trkpt lat="43.34267" lon="-0.52371">
        <ele>215.95</ele>
        <time>2017-02-11T09:31:25Z</time>
      </trkpt>
      <trkpt lat="43.34268" lon="-0.52377">
        <ele>214.99</ele>
        <time>2017-02-11T09:31:26Z</time>
      </trkpt>
      <trkpt lat="43.34279" lon="-0.52411">
        <ele>212.11</ele>
        <time>2017-02-11T09:31:32Z</time>
      </trkpt>
      <trkpt lat="43.34282" lon="-0.52417">
        <ele>211.63</ele>
        <time>2017-02-11T09:31:33Z</time>
      </trkpt>
      <trkpt lat="43.34286" lon="-0.52424">
        <ele>211.15</ele>
        <time>2017-02-11T09:31:34Z</time>
      </trkpt>
      <trkpt lat="43.3429" lon="-0.52429">
        <ele>210.67</ele>
        <time>2017-02-11T09:31:35Z</time>
      </trkpt>
      <trkpt lat="43.34293" lon="-0.52433">
        <ele>210.19</ele>
        <time>2017-02-11T09:31:36Z</time>
      </trkpt>
      <trkpt lat="43.343" lon="-0.5244">
        <ele>209.22</ele>
        <time>2017-02-11T09:31:38Z</time>
      </trkpt>
      <trkpt lat="43.34307" lon="-0.52449">
        <ele>208.26</ele>
        <time>2017-02-11T09:31:40Z</time>
      </trkpt>
      <trkpt lat="43.34311" lon="-0.52453">
        <ele>207.78</ele>
        <time>2017-02-11T09:31:41Z</time>
      </trkpt>
      <trkpt lat="43.34335" lon="-0.52485">
        <ele>207.78</ele>
        <time>2017-02-11T09:31:51Z</time>
      </trkpt>
      <trkpt lat="43.34352" lon="-0.52519">
        <ele>208.26</ele>
        <time>2017-02-11T09:32:02Z</time>
      </trkpt>
      <trkpt lat="43.34364" lon="-0.52559">
        <ele>209.22</ele>
        <time>2017-02-11T09:32:13Z</time>
      </trkpt>
      <trkpt lat="43.34384" lon="-0.52584">
        <ele>211.63</ele>
        <time>2017-02-11T09:32:25Z</time>
      </trkpt>
      <trkpt lat="43.34385" lon="-0.52586">
        <ele>212.11</ele>
        <time>2017-02-11T09:32:26Z</time>
      </trkpt>
      <trkpt lat="43.34386" lon="-0.52589">
        <ele>212.11</ele>
        <time>2017-02-11T09:32:27Z</time>
      </trkpt>
      <trkpt lat="43.34387" lon="-0.52591">
        <ele>212.59</ele>
        <time>2017-02-11T09:32:28Z</time>
      </trkpt>
      <trkpt lat="43.34389" lon="-0.52593">
        <ele>212.11</ele>
        <time>2017-02-11T09:32:29Z</time>
      </trkpt>
      <trkpt lat="43.34391" lon="-0.52594">
        <ele>212.59</ele>
        <time>2017-02-11T09:32:30Z</time>
      </trkpt>
      <trkpt lat="43.34405" lon="-0.52602">
        <ele>214.51</ele>
        <time>2017-02-11T09:32:40Z</time>
      </trkpt>
      <trkpt lat="43.34406" lon="-0.52604">
        <ele>214.99</ele>
        <time>2017-02-11T09:32:41Z</time>
      </trkpt>
      <trkpt lat="43.3441" lon="-0.52628">
        <ele>217.4</ele>
        <time>2017-02-11T09:32:50Z</time>
      </trkpt>
      <trkpt lat="43.34412" lon="-0.52634">
        <ele>217.88</ele>
        <time>2017-02-11T09:32:51Z</time>
      </trkpt>
      <trkpt lat="43.34413" lon="-0.52639">
        <ele>217.88</ele>
        <time>2017-02-11T09:32:52Z</time>
      </trkpt>
      <trkpt lat="43.34414" lon="-0.52642">
        <ele>218.36</ele>
        <time>2017-02-11T09:32:53Z</time>
      </trkpt>
      <trkpt lat="43.34414" lon="-0.52644">
        <ele>218.84</ele>
        <time>2017-02-11T09:32:54Z</time>
      </trkpt>
      <trkpt lat="43.34414" lon="-0.5265">
        <ele>219.32</ele>
        <time>2017-02-11T09:32:58Z</time>
      </trkpt>
      <trkpt lat="43.34415" lon="-0.52653">
        <ele>218.84</ele>
        <time>2017-02-11T09:32:59Z</time>
      </trkpt>
      <trkpt lat="43.34416" lon="-0.52654">
        <ele>218.84</ele>
        <time>2017-02-11T09:33:00Z</time>
      </trkpt>
      <trkpt lat="43.34417" lon="-0.52655">
        <ele>218.36</ele>
        <time>2017-02-11T09:33:01Z</time>
      </trkpt>
      <trkpt lat="43.34419" lon="-0.52656">
        <ele>218.36</ele>
        <time>2017-02-11T09:33:02Z</time>
      </trkpt>
      <trkpt lat="43.34423" lon="-0.52658">
        <ele>217.88</ele>
        <time>2017-02-11T09:33:05Z</time>
      </trkpt>
      <trkpt lat="43.34424" lon="-0.5266">
        <ele>217.88</ele>
        <time>2017-02-11T09:33:06Z</time>
      </trkpt>
      <trkpt lat="43.34425" lon="-0.52662">
        <ele>217.88</ele>
        <time>2017-02-11T09:33:07Z</time>
      </trkpt>
      <trkpt lat="43.34425" lon="-0.52666">
        <ele>217.88</ele>
        <time>2017-02-11T09:33:08Z</time>
      </trkpt>
      <trkpt lat="43.34427" lon="-0.52678">
        <ele>217.88</ele>
        <time>2017-02-11T09:33:14Z</time>
      </trkpt>
      <trkpt lat="43.3443" lon="-0.52682">
        <ele>219.8</ele>
        <time>2017-02-11T09:33:18Z</time>
      </trkpt>
      <trkpt lat="43.34431" lon="-0.52683">
        <ele>220.28</ele>
        <time>2017-02-11T09:33:19Z</time>
      </trkpt>
      <trkpt lat="43.34445" lon="-0.52712">
        <ele>220.28</ele>
        <time>2017-02-11T09:33:28Z</time>
      </trkpt>
      <trkpt lat="43.3445" lon="-0.52746">
        <ele>218.36</ele>
        <time>2017-02-11T09:33:35Z</time>
      </trkpt>
      <trkpt lat="43.3445" lon="-0.52753">
        <ele>218.36</ele>
        <time>2017-02-11T09:33:36Z</time>
      </trkpt>
      <trkpt lat="43.3445" lon="-0.52759">
        <ele>218.36</ele>
        <time>2017-02-11T09:33:37Z</time>
      </trkpt>
      <trkpt lat="43.34455" lon="-0.52783">
        <ele>219.8</ele>
        <time>2017-02-11T09:33:44Z</time>
      </trkpt>
      <trkpt lat="43.34471" lon="-0.52822">
        <ele>221.72</ele>
        <time>2017-02-11T09:33:55Z</time>
      </trkpt>
      <trkpt lat="43.34475" lon="-0.52827">
        <ele>221.24</ele>
        <time>2017-02-11T09:33:56Z</time>
      </trkpt>
      <trkpt lat="43.34497" lon="-0.52854">
        <ele>218.84</ele>
        <time>2017-02-11T09:34:00Z</time>
      </trkpt>
      <trkpt lat="43.34509" lon="-0.52874">
        <ele>217.88</ele>
        <time>2017-02-11T09:34:03Z</time>
      </trkpt>
      <trkpt lat="43.34512" lon="-0.52879">
        <ele>217.4</ele>
        <time>2017-02-11T09:34:04Z</time>
      </trkpt>
      <trkpt lat="43.34536" lon="-0.52909">
        <ele>219.32</ele>
        <time>2017-02-11T09:34:14Z</time>
      </trkpt>
      <trkpt lat="43.34566" lon="-0.5294">
        <ele>218.36</ele>
        <time>2017-02-11T09:34:24Z</time>
      </trkpt>
      <trkpt lat="43.34592" lon="-0.52959">
        <ele>218.84</ele>
        <time>2017-02-11T09:34:32Z</time>
      </trkpt>
      <trkpt lat="43.34622" lon="-0.52996">
        <ele>217.4</ele>
        <time>2017-02-11T09:34:41Z</time>
      </trkpt>
      <trkpt lat="43.34626" lon="-0.52999">
        <ele>217.4</ele>
        <time>2017-02-11T09:34:42Z</time>
      </trkpt>
      <trkpt lat="43.34653" lon="-0.5302">
        <ele>218.84</ele>
        <time>2017-02-11T09:34:50Z</time>
      </trkpt>
      <trkpt lat="43.34656" lon="-0.53025">
        <ele>218.36</ele>
        <time>2017-02-11T09:34:51Z</time>
      </trkpt>
      <trkpt lat="43.3467" lon="-0.53041">
        <ele>215.95</ele>
        <time>2017-02-11T09:34:54Z</time>
      </trkpt>
      <trkpt lat="43.34674" lon="-0.53045">
        <ele>215.47</ele>
        <time>2017-02-11T09:34:55Z</time>
      </trkpt>
      <trkpt lat="43.34679" lon="-0.53049">
        <ele>214.51</ele>
        <time>2017-02-11T09:34:56Z</time>
      </trkpt>
      <trkpt lat="43.34686" lon="-0.53053">
        <ele>213.55</ele>
        <time>2017-02-11T09:34:57Z</time>
      </trkpt>
      <trkpt lat="43.34693" lon="-0.53056">
        <ele>213.07</ele>
        <time>2017-02-11T09:34:58Z</time>
      </trkpt>
      <trkpt lat="43.34699" lon="-0.53061">
        <ele>212.59</ele>
        <time>2017-02-11T09:34:59Z</time>
      </trkpt>
      <trkpt lat="43.34705" lon="-0.53066">
        <ele>212.11</ele>
        <time>2017-02-11T09:35:00Z</time>
      </trkpt>
      <trkpt lat="43.34744" lon="-0.5312">
        <ele>206.82</ele>
        <time>2017-02-11T09:35:08Z</time>
      </trkpt>
      <trkpt lat="43.34747" lon="-0.53126">
        <ele>206.34</ele>
        <time>2017-02-11T09:35:09Z</time>
      </trkpt>
      <trkpt lat="43.34749" lon="-0.53131">
        <ele>205.38</ele>
        <time>2017-02-11T09:35:10Z</time>
      </trkpt>
      <trkpt lat="43.34751" lon="-0.53136">
        <ele>204.9</ele>
        <time>2017-02-11T09:35:11Z</time>
      </trkpt>
      <trkpt lat="43.34754" lon="-0.5314">
        <ele>204.42</ele>
        <time>2017-02-11T09:35:12Z</time>
      </trkpt>
      <trkpt lat="43.34758" lon="-0.53143">
        <ele>204.42</ele>
        <time>2017-02-11T09:35:13Z</time>
      </trkpt>
      <trkpt lat="43.34763" lon="-0.53145">
        <ele>203.94</ele>
        <time>2017-02-11T09:35:14Z</time>
      </trkpt>
      <trkpt lat="43.34768" lon="-0.53148">
        <ele>203.94</ele>
        <time>2017-02-11T09:35:15Z</time>
      </trkpt>
      <trkpt lat="43.34774" lon="-0.53151">
        <ele>202.98</ele>
        <time>2017-02-11T09:35:16Z</time>
      </trkpt>
      <trkpt lat="43.3478" lon="-0.53155">
        <ele>202.98</ele>
        <time>2017-02-11T09:35:17Z</time>
      </trkpt>
      <trkpt lat="43.34808" lon="-0.53164">
        <ele>200.09</ele>
        <time>2017-02-11T09:35:21Z</time>
      </trkpt>
      <trkpt lat="43.34816" lon="-0.53165">
        <ele>199.13</ele>
        <time>2017-02-11T09:35:22Z</time>
      </trkpt>
      <trkpt lat="43.34866" lon="-0.5317">
        <ele>198.65</ele>
        <time>2017-02-11T09:35:31Z</time>
      </trkpt>
      <trkpt lat="43.34904" lon="-0.53171">
        <ele>199.61</ele>
        <time>2017-02-11T09:35:44Z</time>
      </trkpt>
      <trkpt lat="43.34929" lon="-0.5319">
        <ele>202.49</ele>
        <time>2017-02-11T09:35:56Z</time>
      </trkpt>
      <trkpt lat="43.34953" lon="-0.53227">
        <ele>204.9</ele>
        <time>2017-02-11T09:36:09Z</time>
      </trkpt>
      <trkpt lat="43.34968" lon="-0.53252">
        <ele>203.94</ele>
        <time>2017-02-11T09:36:21Z</time>
      </trkpt>
      <trkpt lat="43.34969" lon="-0.53254">
        <ele>203.94</ele>
        <time>2017-02-11T09:36:22Z</time>
      </trkpt>
      <trkpt lat="43.34981" lon="-0.53272">
        <ele>204.42</ele>
        <time>2017-02-11T09:36:35Z</time>
      </trkpt>
      <trkpt lat="43.34982" lon="-0.53274">
        <ele>204.42</ele>
        <time>2017-02-11T09:36:36Z</time>
      </trkpt>
      <trkpt lat="43.34982" lon="-0.53276">
        <ele>204.42</ele>
        <time>2017-02-11T09:36:37Z</time>
      </trkpt>
      <trkpt lat="43.34983" lon="-0.53278">
        <ele>204.9</ele>
        <time>2017-02-11T09:36:38Z</time>
      </trkpt>
      <trkpt lat="43.34984" lon="-0.5328">
        <ele>204.9</ele>
        <time>2017-02-11T09:36:39Z</time>
      </trkpt>
      <trkpt lat="43.34985" lon="-0.53282">
        <ele>204.9</ele>
        <time>2017-02-11T09:36:40Z</time>
      </trkpt>
      <trkpt lat="43.34986" lon="-0.53284">
        <ele>205.38</ele>
        <time>2017-02-11T09:36:41Z</time>
      </trkpt>
      <trkpt lat="43.34996" lon="-0.5329">
        <ele>206.82</ele>
        <time>2017-02-11T09:36:50Z</time>
      </trkpt>
      <trkpt lat="43.35014" lon="-0.53293">
        <ele>212.59</ele>
        <time>2017-02-11T09:37:06Z</time>
      </trkpt>
      <trkpt lat="43.35029" lon="-0.53302">
        <ele>219.32</ele>
        <time>2017-02-11T09:37:23Z</time>
      </trkpt>
      <trkpt lat="43.35031" lon="-0.53308">
        <ele>219.8</ele>
        <time>2017-02-11T09:37:27Z</time>
      </trkpt>
      <trkpt lat="43.35031" lon="-0.5331">
        <ele>219.8</ele>
        <time>2017-02-11T09:37:28Z</time>
      </trkpt>
      <trkpt lat="43.35031" lon="-0.53312">
        <ele>219.32</ele>
        <time>2017-02-11T09:37:29Z</time>
      </trkpt>
      <trkpt lat="43.35031" lon="-0.53314">
        <ele>218.84</ele>
        <time>2017-02-11T09:37:30Z</time>
      </trkpt>
      <trkpt lat="43.35034" lon="-0.53354">
        <ele>214.99</ele>
        <time>2017-02-11T09:37:41Z</time>
      </trkpt>
      <trkpt lat="43.35036" lon="-0.53375">
        <ele>214.03</ele>
        <time>2017-02-11T09:37:45Z</time>
      </trkpt>
      <trkpt lat="43.3505" lon="-0.53435">
        <ele>213.55</ele>
        <time>2017-02-11T09:37:54Z</time>
      </trkpt>
      <trkpt lat="43.35057" lon="-0.53456">
        <ele>214.51</ele>
        <time>2017-02-11T09:38:08Z</time>
      </trkpt>
      <trkpt lat="43.35054" lon="-0.53456">
        <ele>214.99</ele>
        <time>2017-02-11T09:38:11Z</time>
      </trkpt>
      <trkpt lat="43.35054" lon="-0.53458">
        <ele>215.47</ele>
        <time>2017-02-11T09:38:12Z</time>
      </trkpt>
      <trkpt lat="43.35054" lon="-0.5346">
        <ele>215.47</ele>
        <time>2017-02-11T09:38:13Z</time>
      </trkpt>
      <trkpt lat="43.35055" lon="-0.53462">
        <ele>215.47</ele>
        <time>2017-02-11T09:38:14Z</time>
      </trkpt>
      <trkpt lat="43.35055" lon="-0.53464">
        <ele>215.95</ele>
        <time>2017-02-11T09:38:15Z</time>
      </trkpt>
      <trkpt lat="43.35056" lon="-0.53471">
        <ele>217.88</ele>
        <time>2017-02-11T09:38:21Z</time>
      </trkpt>
      <trkpt lat="43.35057" lon="-0.53475">
        <ele>218.36</ele>
        <time>2017-02-11T09:38:27Z</time>
      </trkpt>
      <trkpt lat="43.35063" lon="-0.53505">
        <ele>219.32</ele>
        <time>2017-02-11T09:38:40Z</time>
      </trkpt>
      <trkpt lat="43.35076" lon="-0.53564">
        <ele>214.51</ele>
        <time>2017-02-11T09:38:53Z</time>
      </trkpt>
      <trkpt lat="43.35076" lon="-0.5357">
        <ele>214.03</ele>
        <time>2017-02-11T09:38:54Z</time>
      </trkpt>
      <trkpt lat="43.35075" lon="-0.53576">
        <ele>213.07</ele>
        <time>2017-02-11T09:38:55Z</time>
      </trkpt>
      <trkpt lat="43.35073" lon="-0.53605">
        <ele>210.19</ele>
        <time>2017-02-11T09:39:00Z</time>
      </trkpt>
      <trkpt lat="43.35075" lon="-0.5361">
        <ele>209.7</ele>
        <time>2017-02-11T09:39:01Z</time>
      </trkpt>
      <trkpt lat="43.35077" lon="-0.53616">
        <ele>209.7</ele>
        <time>2017-02-11T09:39:02Z</time>
      </trkpt>
      <trkpt lat="43.3508" lon="-0.5362">
        <ele>209.22</ele>
        <time>2017-02-11T09:39:03Z</time>
      </trkpt>
      <trkpt lat="43.35083" lon="-0.53624">
        <ele>208.74</ele>
        <time>2017-02-11T09:39:04Z</time>
      </trkpt>
      <trkpt lat="43.35109" lon="-0.53663">
        <ele>208.74</ele>
        <time>2017-02-11T09:39:18Z</time>
      </trkpt>
      <trkpt lat="43.35118" lon="-0.53703">
        <ele>210.67</ele>
        <time>2017-02-11T09:39:33Z</time>
      </trkpt>
      <trkpt lat="43.35127" lon="-0.5374">
        <ele>212.11</ele>
        <time>2017-02-11T09:39:49Z</time>
      </trkpt>
      <trkpt lat="43.35134" lon="-0.53765">
        <ele>212.59</ele>
        <time>2017-02-11T09:40:04Z</time>
      </trkpt>
      <trkpt lat="43.35139" lon="-0.53789">
        <ele>214.99</ele>
        <time>2017-02-11T09:40:19Z</time>
      </trkpt>
      <trkpt lat="43.35146" lon="-0.5381">
        <ele>220.28</ele>
        <time>2017-02-11T09:40:34Z</time>
      </trkpt>
      <trkpt lat="43.35149" lon="-0.53819">
        <ele>222.2</ele>
        <time>2017-02-11T09:40:50Z</time>
      </trkpt>
      <trkpt lat="43.35152" lon="-0.53834">
        <ele>223.64</ele>
        <time>2017-02-11T09:41:04Z</time>
      </trkpt>
      <trkpt lat="43.35153" lon="-0.5384">
        <ele>225.57</ele>
        <time>2017-02-11T09:41:15Z</time>
      </trkpt>
      <trkpt lat="43.35154" lon="-0.53847">
        <ele>227.97</ele>
        <time>2017-02-11T09:41:29Z</time>
      </trkpt>
      <trkpt lat="43.35156" lon="-0.53855">
        <ele>229.41</ele>
        <time>2017-02-11T09:41:48Z</time>
      </trkpt>
      <trkpt lat="43.35159" lon="-0.53862">
        <ele>230.85</ele>
        <time>2017-02-11T09:42:02Z</time>
      </trkpt>
      <trkpt lat="43.35162" lon="-0.53869">
        <ele>234.7</ele>
        <time>2017-02-11T09:42:19Z</time>
      </trkpt>
      <trkpt lat="43.35166" lon="-0.53883">
        <ele>237.1</ele>
        <time>2017-02-11T09:42:33Z</time>
      </trkpt>
      <trkpt lat="43.35176" lon="-0.539">
        <ele>234.7</ele>
        <time>2017-02-11T09:42:47Z</time>
      </trkpt>
      <trkpt lat="43.35187" lon="-0.53918">
        <ele>226.05</ele>
        <time>2017-02-11T09:42:59Z</time>
      </trkpt>
      <trkpt lat="43.35194" lon="-0.53924">
        <ele>223.64</ele>
        <time>2017-02-11T09:43:03Z</time>
      </trkpt>
      <trkpt lat="43.35196" lon="-0.53926">
        <ele>223.16</ele>
        <time>2017-02-11T09:43:04Z</time>
      </trkpt>
      <trkpt lat="43.35197" lon="-0.53929">
        <ele>222.2</ele>
        <time>2017-02-11T09:43:05Z</time>
      </trkpt>
      <trkpt lat="43.35208" lon="-0.5397">
        <ele>213.55</ele>
        <time>2017-02-11T09:43:14Z</time>
      </trkpt>
      <trkpt lat="43.35212" lon="-0.53985">
        <ele>211.63</ele>
        <time>2017-02-11T09:43:17Z</time>
      </trkpt>
      <trkpt lat="43.35216" lon="-0.5399">
        <ele>210.67</ele>
        <time>2017-02-11T09:43:18Z</time>
      </trkpt>
      <trkpt lat="43.35219" lon="-0.53994">
        <ele>210.19</ele>
        <time>2017-02-11T09:43:19Z</time>
      </trkpt>
      <trkpt lat="43.35222" lon="-0.53998">
        <ele>209.22</ele>
        <time>2017-02-11T09:43:20Z</time>
      </trkpt>
      <trkpt lat="43.35224" lon="-0.54003">
        <ele>208.26</ele>
        <time>2017-02-11T09:43:21Z</time>
      </trkpt>
      <trkpt lat="43.35225" lon="-0.5401">
        <ele>207.3</ele>
        <time>2017-02-11T09:43:22Z</time>
      </trkpt>
      <trkpt lat="43.35226" lon="-0.54016">
        <ele>206.34</ele>
        <time>2017-02-11T09:43:23Z</time>
      </trkpt>
      <trkpt lat="43.35226" lon="-0.54022">
        <ele>205.38</ele>
        <time>2017-02-11T09:43:24Z</time>
      </trkpt>
      <trkpt lat="43.35227" lon="-0.54029">
        <ele>204.42</ele>
        <time>2017-02-11T09:43:25Z</time>
      </trkpt>
      <trkpt lat="43.35228" lon="-0.54036">
        <ele>203.46</ele>
        <time>2017-02-11T09:43:26Z</time>
      </trkpt>
      <trkpt lat="43.35228" lon="-0.54042">
        <ele>202.98</ele>
        <time>2017-02-11T09:43:27Z</time>
      </trkpt>
      <trkpt lat="43.35229" lon="-0.54055">
        <ele>200.57</ele>
        <time>2017-02-11T09:43:30Z</time>
      </trkpt>
      <trkpt lat="43.3523" lon="-0.54059">
        <ele>199.13</ele>
        <time>2017-02-11T09:43:31Z</time>
      </trkpt>
      <trkpt lat="43.35231" lon="-0.54063">
        <ele>198.65</ele>
        <time>2017-02-11T09:43:32Z</time>
      </trkpt>
      <trkpt lat="43.35233" lon="-0.54068">
        <ele>197.21</ele>
        <time>2017-02-11T09:43:33Z</time>
      </trkpt>
      <trkpt lat="43.35234" lon="-0.54073">
        <ele>196.25</ele>
        <time>2017-02-11T09:43:34Z</time>
      </trkpt>
      <trkpt lat="43.35236" lon="-0.54078">
        <ele>196.25</ele>
        <time>2017-02-11T09:43:35Z</time>
      </trkpt>
      <trkpt lat="43.35244" lon="-0.54105">
        <ele>194.8</ele>
        <time>2017-02-11T09:43:41Z</time>
      </trkpt>
      <trkpt lat="43.35246" lon="-0.5411">
        <ele>195.28</ele>
        <time>2017-02-11T09:43:42Z</time>
      </trkpt>
      <trkpt lat="43.35269" lon="-0.54175">
        <ele>197.21</ele>
        <time>2017-02-11T09:43:56Z</time>
      </trkpt>
      <trkpt lat="43.35286" lon="-0.54248">
        <ele>200.09</ele>
        <time>2017-02-11T09:44:12Z</time>
      </trkpt>
      <trkpt lat="43.35299" lon="-0.54324">
        <ele>202.01</ele>
        <time>2017-02-11T09:44:28Z</time>
      </trkpt>
      <trkpt lat="43.35296" lon="-0.54384">
        <ele>203.46</ele>
        <time>2017-02-11T09:44:43Z</time>
      </trkpt>
      <trkpt lat="43.35296" lon="-0.54454">
        <ele>203.46</ele>
        <time>2017-02-11T09:44:59Z</time>
      </trkpt>
      <trkpt lat="43.35298" lon="-0.5453">
        <ele>201.53</ele>
        <time>2017-02-11T09:45:14Z</time>
      </trkpt>
      <trkpt lat="43.35298" lon="-0.54535">
        <ele>201.53</ele>
        <time>2017-02-11T09:45:15Z</time>
      </trkpt>
      <trkpt lat="43.35298" lon="-0.54541">
        <ele>201.53</ele>
        <time>2017-02-11T09:45:16Z</time>
      </trkpt>
      <trkpt lat="43.35298" lon="-0.54546">
        <ele>201.53</ele>
        <time>2017-02-11T09:45:17Z</time>
      </trkpt>
      <trkpt lat="43.35298" lon="-0.54551">
        <ele>202.01</ele>
        <time>2017-02-11T09:45:18Z</time>
      </trkpt>
      <trkpt lat="43.35296" lon="-0.54581">
        <ele>202.01</ele>
        <time>2017-02-11T09:45:28Z</time>
      </trkpt>
      <trkpt lat="43.35291" lon="-0.5462">
        <ele>202.49</ele>
        <time>2017-02-11T09:45:38Z</time>
      </trkpt>
      <trkpt lat="43.35295" lon="-0.54687">
        <ele>203.46</ele>
        <time>2017-02-11T09:45:51Z</time>
      </trkpt>
      <trkpt lat="43.35321" lon="-0.54739">
        <ele>206.82</ele>
        <time>2017-02-11T09:46:05Z</time>
      </trkpt>
      <trkpt lat="43.35343" lon="-0.54756">
        <ele>205.86</ele>
        <time>2017-02-11T09:46:15Z</time>
      </trkpt>
      <trkpt lat="43.35343" lon="-0.54759">
        <ele>205.86</ele>
        <time>2017-02-11T09:46:16Z</time>
      </trkpt>
      <trkpt lat="43.35342" lon="-0.54766">
        <ele>205.86</ele>
        <time>2017-02-11T09:46:18Z</time>
      </trkpt>
      <trkpt lat="43.35341" lon="-0.54775">
        <ele>204.9</ele>
        <time>2017-02-11T09:46:20Z</time>
      </trkpt>
      <trkpt lat="43.35334" lon="-0.54781">
        <ele>202.01</ele>
        <time>2017-02-11T09:46:28Z</time>
      </trkpt>
      <trkpt lat="43.35333" lon="-0.54784">
        <ele>201.05</ele>
        <time>2017-02-11T09:46:32Z</time>
      </trkpt>
      <trkpt lat="43.35322" lon="-0.54849">
        <ele>189.52</ele>
        <time>2017-02-11T09:46:45Z</time>
      </trkpt>
      <trkpt lat="43.3532" lon="-0.54861">
        <ele>187.11</ele>
        <time>2017-02-11T09:46:47Z</time>
      </trkpt>
      <trkpt lat="43.35311" lon="-0.54928">
        <ele>177.98</ele>
        <time>2017-02-11T09:46:53Z</time>
      </trkpt>
      <trkpt lat="43.35318" lon="-0.55041">
        <ele>158.75</ele>
        <time>2017-02-11T09:47:05Z</time>
      </trkpt>
      <trkpt lat="43.35321" lon="-0.55088">
        <ele>150.58</ele>
        <time>2017-02-11T09:47:10Z</time>
      </trkpt>
      <trkpt lat="43.35323" lon="-0.55117">
        <ele>146.74</ele>
        <time>2017-02-11T09:47:14Z</time>
      </trkpt>
      <trkpt lat="43.35322" lon="-0.55122">
        <ele>145.78</ele>
        <time>2017-02-11T09:47:15Z</time>
      </trkpt>
      <trkpt lat="43.3532" lon="-0.55128">
        <ele>145.3</ele>
        <time>2017-02-11T09:47:16Z</time>
      </trkpt>
      <trkpt lat="43.35317" lon="-0.55132">
        <ele>144.82</ele>
        <time>2017-02-11T09:47:17Z</time>
      </trkpt>
      <trkpt lat="43.35314" lon="-0.55137">
        <ele>143.85</ele>
        <time>2017-02-11T09:47:18Z</time>
      </trkpt>
      <trkpt lat="43.3531" lon="-0.55141">
        <ele>142.89</ele>
        <time>2017-02-11T09:47:19Z</time>
      </trkpt>
      <trkpt lat="43.35305" lon="-0.55147">
        <ele>141.93</ele>
        <time>2017-02-11T09:47:20Z</time>
      </trkpt>
      <trkpt lat="43.35278" lon="-0.55186">
        <ele>135.2</ele>
        <time>2017-02-11T09:47:27Z</time>
      </trkpt>
      <trkpt lat="43.35276" lon="-0.55191">
        <ele>134.24</ele>
        <time>2017-02-11T09:47:28Z</time>
      </trkpt>
      <trkpt lat="43.35273" lon="-0.55196">
        <ele>133.76</ele>
        <time>2017-02-11T09:47:29Z</time>
      </trkpt>
      <trkpt lat="43.3527" lon="-0.552">
        <ele>132.8</ele>
        <time>2017-02-11T09:47:30Z</time>
      </trkpt>
      <trkpt lat="43.35267" lon="-0.55203">
        <ele>132.32</ele>
        <time>2017-02-11T09:47:31Z</time>
      </trkpt>
      <trkpt lat="43.35263" lon="-0.55206">
        <ele>131.84</ele>
        <time>2017-02-11T09:47:32Z</time>
      </trkpt>
      <trkpt lat="43.35259" lon="-0.5521">
        <ele>131.36</ele>
        <time>2017-02-11T09:47:33Z</time>
      </trkpt>
      <trkpt lat="43.35255" lon="-0.55215">
        <ele>130.88</ele>
        <time>2017-02-11T09:47:34Z</time>
      </trkpt>
      <trkpt lat="43.35251" lon="-0.55222">
        <ele>129.92</ele>
        <time>2017-02-11T09:47:35Z</time>
      </trkpt>
      <trkpt lat="43.35246" lon="-0.5523">
        <ele>129.43</ele>
        <time>2017-02-11T09:47:36Z</time>
      </trkpt>
      <trkpt lat="43.35227" lon="-0.55256">
        <ele>126.55</ele>
        <time>2017-02-11T09:47:40Z</time>
      </trkpt>
      <trkpt lat="43.35225" lon="-0.55262">
        <ele>126.07</ele>
        <time>2017-02-11T09:47:41Z</time>
      </trkpt>
      <trkpt lat="43.35223" lon="-0.55269">
        <ele>125.59</ele>
        <time>2017-02-11T09:47:42Z</time>
      </trkpt>
      <trkpt lat="43.35223" lon="-0.55276">
        <ele>125.11</ele>
        <time>2017-02-11T09:47:43Z</time>
      </trkpt>
      <trkpt lat="43.35223" lon="-0.55283">
        <ele>124.63</ele>
        <time>2017-02-11T09:47:44Z</time>
      </trkpt>
      <trkpt lat="43.35225" lon="-0.55335">
        <ele>123.19</ele>
        <time>2017-02-11T09:47:51Z</time>
      </trkpt>
      <trkpt lat="43.35227" lon="-0.55343">
        <ele>123.19</ele>
        <time>2017-02-11T09:47:52Z</time>
      </trkpt>
      <trkpt lat="43.35229" lon="-0.5535">
        <ele>122.71</ele>
        <time>2017-02-11T09:47:53Z</time>
      </trkpt>
      <trkpt lat="43.35231" lon="-0.55357">
        <ele>122.71</ele>
        <time>2017-02-11T09:47:54Z</time>
      </trkpt>
      <trkpt lat="43.35234" lon="-0.55363">
        <ele>122.71</ele>
        <time>2017-02-11T09:47:55Z</time>
      </trkpt>
      <trkpt lat="43.35234" lon="-0.55368">
        <ele>122.22</ele>
        <time>2017-02-11T09:47:56Z</time>
      </trkpt>
      <trkpt lat="43.35234" lon="-0.55371">
        <ele>121.74</ele>
        <time>2017-02-11T09:47:57Z</time>
      </trkpt>
      <trkpt lat="43.35233" lon="-0.55374">
        <ele>121.74</ele>
        <time>2017-02-11T09:47:58Z</time>
      </trkpt>
      <trkpt lat="43.35232" lon="-0.55377">
        <ele>121.74</ele>
        <time>2017-02-11T09:48:02Z</time>
      </trkpt>
    </trkseg>
  </trk>
</gpx>